<?xml version="1.0" encoding="UTF-8"?>
<gpx creator="Garmin Connect" version="1.1"
  xsi:schemaLocation="http://www.topografix.com/GPX/1/1 http://www.topografix.com/GPX/11.xsd"
  xmlns:ns3="http://www.garmin.com/xmlschemas/TrackPointExtension/v1"
  xmlns="http://www.topografix.com/GPX/1/1"
  xmlns:xsi="http://www.w3.org/2001/XMLSchema-instance" xmlns:ns2="http://www.garmin.com/xmlschemas/GpxExtensions/v3">
  <metadata>
    <name>MTB - Køge Ås</name>
    <link href="connect.garmin.com">
      <text>Garmin Connect</text>
    </link>
    <time>2018-11-25T14:53:29.000Z</time>
  </metadata>
  <trk>
    <name>MTB - Køge Ås</name>
    <trkseg>
      <trkpt lat="55.46119552105665" lon="12.172182351350784">
        <ele>2.0</ele>
        <time>2018-11-25T14:53:29.000Z</time>
      </trkpt>
      <trkpt lat="55.46138050965965" lon="12.172016641125083">
        <ele>1.0</ele>
        <time>2018-11-25T14:53:29.007Z</time>
      </trkpt>
      <trkpt lat="55.46174176968634" lon="12.171799885109067">
        <ele>1.0</ele>
        <time>2018-11-25T14:53:29.027Z</time>
      </trkpt>
      <trkpt lat="55.46184930950403" lon="12.171756215393543">
        <ele>1.0</ele>
        <time>2018-11-25T14:53:29.050Z</time>
      </trkpt>
      <trkpt lat="55.462076207622886" lon="12.171685053035617">
        <ele>1.0</ele>
        <time>2018-11-25T14:53:29.081Z</time>
      </trkpt>
      <trkpt lat="55.46245557256043" lon="12.171623529866338">
        <ele>1.0</ele>
        <time>2018-11-25T14:53:29.124Z</time>
      </trkpt>
      <trkpt lat="55.4628249630332" lon="12.171520767733455">
        <ele>0.0</ele>
        <time>2018-11-25T14:53:29.180Z</time>
      </trkpt>
      <trkpt lat="55.46365971677005" lon="12.171346675604582">
        <ele>0.0</ele>
        <time>2018-11-25T14:53:29.264Z</time>
      </trkpt>
      <trkpt lat="55.46398401260376" lon="12.171203009784222">
        <ele>0.0</ele>
        <time>2018-11-25T14:53:29.359Z</time>
      </trkpt>
      <trkpt lat="55.46422256156802" lon="12.171013914048672">
        <ele>0.0</ele>
        <time>2018-11-25T14:53:29.462Z</time>
      </trkpt>
      <trkpt lat="55.464235469698906" lon="12.170967729762197">
        <ele>0.0</ele>
        <time>2018-11-25T14:53:29.566Z</time>
      </trkpt>
      <trkpt lat="55.464210491627455" lon="12.170910481363535">
        <ele>0.0</ele>
        <time>2018-11-25T14:53:29.672Z</time>
      </trkpt>
      <trkpt lat="55.46421275474131" lon="12.170775532722473">
        <ele>0.0</ele>
        <time>2018-11-25T14:53:29.780Z</time>
      </trkpt>
      <trkpt lat="55.46413639560342" lon="12.170465486124158">
        <ele>0.0</ele>
        <time>2018-11-25T14:53:29.895Z</time>
      </trkpt>
      <trkpt lat="55.46379449777305" lon="12.169441636651754">
        <ele>0.0</ele>
        <time>2018-11-25T14:53:30.032Z</time>
      </trkpt>
      <trkpt lat="55.46340683475137" lon="12.168147219344974">
        <ele>1.0</ele>
        <time>2018-11-25T14:53:30.197Z</time>
      </trkpt>
      <trkpt lat="55.462944908067584" lon="12.166754230856895">
        <ele>2.0</ele>
        <time>2018-11-25T14:53:30.392Z</time>
      </trkpt>
      <trkpt lat="55.462871650233865" lon="12.166577624157071">
        <ele>3.0</ele>
        <time>2018-11-25T14:53:30.591Z</time>
      </trkpt>
      <trkpt lat="55.46275455504656" lon="12.166207563132048">
        <ele>3.0</ele>
        <time>2018-11-25T14:53:30.798Z</time>
      </trkpt>
      <trkpt lat="55.46271063387394" lon="12.166120894253254">
        <ele>3.0</ele>
        <time>2018-11-25T14:53:31.007Z</time>
      </trkpt>
      <trkpt lat="55.46261080540717" lon="12.165744043886662">
        <ele>4.0</ele>
        <time>2018-11-25T14:53:31.224Z</time>
      </trkpt>
      <trkpt lat="55.46259278431535" lon="12.165582608431578">
        <ele>4.0</ele>
        <time>2018-11-25T14:53:31.444Z</time>
      </trkpt>
      <trkpt lat="55.462652714923024" lon="12.165384711697698">
        <ele>4.0</ele>
        <time>2018-11-25T14:53:31.668Z</time>
      </trkpt>
      <trkpt lat="55.462705520913005" lon="12.165084974840283">
        <ele>4.0</ele>
        <time>2018-11-25T14:53:31.898Z</time>
      </trkpt>
      <trkpt lat="55.462760673835874" lon="12.164954049512744">
        <ele>4.0</ele>
        <time>2018-11-25T14:53:32.131Z</time>
      </trkpt>
      <trkpt lat="55.46280534937978" lon="12.164747854694724">
        <ele>5.0</ele>
        <time>2018-11-25T14:53:32.368Z</time>
      </trkpt>
      <trkpt lat="55.462808618322015" lon="12.16460008174181">
        <ele>5.0</ele>
        <time>2018-11-25T14:53:32.608Z</time>
      </trkpt>
      <trkpt lat="55.46277073211968" lon="12.164480304345489">
        <ele>5.0</ele>
        <time>2018-11-25T14:53:32.851Z</time>
      </trkpt>
      <trkpt lat="55.462869638577104" lon="12.163922153413296">
        <ele>7.0</ele>
        <time>2018-11-25T14:53:33.105Z</time>
      </trkpt>
      <trkpt lat="55.462865363806486" lon="12.163861468434334">
        <ele>7.0</ele>
        <time>2018-11-25T14:53:33.360Z</time>
      </trkpt>
      <trkpt lat="55.46281331218779" lon="12.163776895031333">
        <ele>7.0</ele>
        <time>2018-11-25T14:53:33.617Z</time>
      </trkpt>
      <trkpt lat="55.46274156309664" lon="12.163712941110134">
        <ele>7.0</ele>
        <time>2018-11-25T14:53:33.877Z</time>
      </trkpt>
      <trkpt lat="55.462707029655576" lon="12.16371227055788">
        <ele>6.0</ele>
        <time>2018-11-25T14:53:34.138Z</time>
      </trkpt>
      <trkpt lat="55.462737288326025" lon="12.16380170546472">
        <ele>6.0</ele>
        <time>2018-11-25T14:53:34.401Z</time>
      </trkpt>
      <trkpt lat="55.46270267106593" lon="12.163949981331825">
        <ele>6.0</ele>
        <time>2018-11-25T14:53:34.667Z</time>
      </trkpt>
      <trkpt lat="55.46277525834739" lon="12.164197666570544">
        <ele>6.0</ele>
        <time>2018-11-25T14:53:34.938Z</time>
      </trkpt>
      <trkpt lat="55.46292630024254" lon="12.16410018503666">
        <ele>6.0</ele>
        <time>2018-11-25T14:53:35.215Z</time>
      </trkpt>
      <trkpt lat="55.46298472210765" lon="12.164010163396597">
        <ele>7.0</ele>
        <time>2018-11-25T14:53:35.494Z</time>
      </trkpt>
      <trkpt lat="55.463022105395794" lon="12.163983341306448">
        <ele>7.0</ele>
        <time>2018-11-25T14:53:35.775Z</time>
      </trkpt>
      <trkpt lat="55.46314590610564" lon="12.163964817300439">
        <ele>7.0</ele>
        <time>2018-11-25T14:53:36.060Z</time>
      </trkpt>
      <trkpt lat="55.463214218616486" lon="12.163929110392928">
        <ele>7.0</ele>
        <time>2018-11-25T14:53:36.347Z</time>
      </trkpt>
      <trkpt lat="55.463283034041524" lon="12.16373959556222">
        <ele>7.0</ele>
        <time>2018-11-25T14:53:36.638Z</time>
      </trkpt>
      <trkpt lat="55.46332821249962" lon="12.163662565872073">
        <ele>7.0</ele>
        <time>2018-11-25T14:53:36.931Z</time>
      </trkpt>
      <trkpt lat="55.46333667822182" lon="12.163612358272076">
        <ele>7.0</ele>
        <time>2018-11-25T14:53:37.225Z</time>
      </trkpt>
      <trkpt lat="55.46349794603884" lon="12.163273226469755">
        <ele>8.0</ele>
        <time>2018-11-25T14:53:37.528Z</time>
      </trkpt>
      <trkpt lat="55.46355997212231" lon="12.163106594234705">
        <ele>8.0</ele>
        <time>2018-11-25T14:53:37.834Z</time>
      </trkpt>
      <trkpt lat="55.46372601762414" lon="12.162868967279792">
        <ele>7.0</ele>
        <time>2018-11-25T14:53:38.147Z</time>
      </trkpt>
      <trkpt lat="55.46378058381379" lon="12.162715243175626">
        <ele>6.0</ele>
        <time>2018-11-25T14:53:38.464Z</time>
      </trkpt>
      <trkpt lat="55.463863564655185" lon="12.16257082298398">
        <ele>6.0</ele>
        <time>2018-11-25T14:53:38.785Z</time>
      </trkpt>
      <trkpt lat="55.463892398402095" lon="12.162505192682147">
        <ele>5.0</ele>
        <time>2018-11-25T14:53:39.107Z</time>
      </trkpt>
      <trkpt lat="55.463886028155684" lon="12.162440149113536">
        <ele>5.0</ele>
        <time>2018-11-25T14:53:39.431Z</time>
      </trkpt>
      <trkpt lat="55.463845543563366" lon="12.16232598759234">
        <ele>5.0</ele>
        <time>2018-11-25T14:53:39.757Z</time>
      </trkpt>
      <trkpt lat="55.463709169998765" lon="12.162110824137926">
        <ele>5.0</ele>
        <time>2018-11-25T14:53:40.089Z</time>
      </trkpt>
      <trkpt lat="55.463556786999106" lon="12.161964308470488">
        <ele>6.0</ele>
        <time>2018-11-25T14:53:40.427Z</time>
      </trkpt>
      <trkpt lat="55.463384790346026" lon="12.161844111979008">
        <ele>6.0</ele>
        <time>2018-11-25T14:53:40.771Z</time>
      </trkpt>
      <trkpt lat="55.46316426247358" lon="12.16171134263277">
        <ele>7.0</ele>
        <time>2018-11-25T14:53:41.123Z</time>
      </trkpt>
      <trkpt lat="55.46310290694237" lon="12.161697428673506">
        <ele>7.0</ele>
        <time>2018-11-25T14:53:41.477Z</time>
      </trkpt>
      <trkpt lat="55.462884893640876" lon="12.161708576604724">
        <ele>7.0</ele>
        <time>2018-11-25T14:53:41.838Z</time>
      </trkpt>
      <trkpt lat="55.46285916119814" lon="12.161715282127261">
        <ele>7.0</ele>
        <time>2018-11-25T14:53:42.200Z</time>
      </trkpt>
      <trkpt lat="55.46282253228128" lon="12.161755179986358">
        <ele>7.0</ele>
        <time>2018-11-25T14:53:42.563Z</time>
      </trkpt>
      <trkpt lat="55.46282940544188" lon="12.16194142587483">
        <ele>7.0</ele>
        <time>2018-11-25T14:53:42.930Z</time>
      </trkpt>
      <trkpt lat="55.4628627654165" lon="12.161996075883508">
        <ele>7.0</ele>
        <time>2018-11-25T14:53:43.298Z</time>
      </trkpt>
      <trkpt lat="55.46290408819914" lon="12.16220486909151">
        <ele>7.0</ele>
        <time>2018-11-25T14:53:43.671Z</time>
      </trkpt>
      <trkpt lat="55.46294515952468" lon="12.16231961734593">
        <ele>7.0</ele>
        <time>2018-11-25T14:53:44.046Z</time>
      </trkpt>
      <trkpt lat="55.46295387670398" lon="12.162415087223053">
        <ele>7.0</ele>
        <time>2018-11-25T14:53:44.423Z</time>
      </trkpt>
      <trkpt lat="55.46292864717543" lon="12.162451045587659">
        <ele>7.0</ele>
        <time>2018-11-25T14:53:44.801Z</time>
      </trkpt>
      <trkpt lat="55.462932754307985" lon="12.162478789687157">
        <ele>7.0</ele>
        <time>2018-11-25T14:53:45.179Z</time>
      </trkpt>
      <trkpt lat="55.46291498467326" lon="12.162491530179977">
        <ele>7.0</ele>
        <time>2018-11-25T14:53:45.558Z</time>
      </trkpt>
      <trkpt lat="55.46291632577777" lon="12.162612061947584">
        <ele>7.0</ele>
        <time>2018-11-25T14:53:45.939Z</time>
      </trkpt>
      <trkpt lat="55.46287131495774" lon="12.16264994814992">
        <ele>7.0</ele>
        <time>2018-11-25T14:53:46.322Z</time>
      </trkpt>
      <trkpt lat="55.462842397391796" lon="12.162806438282132">
        <ele>7.0</ele>
        <time>2018-11-25T14:53:46.708Z</time>
      </trkpt>
      <trkpt lat="55.46281733550131" lon="12.162850107997656">
        <ele>7.0</ele>
        <time>2018-11-25T14:53:47.095Z</time>
      </trkpt>
      <trkpt lat="55.46279956586659" lon="12.16298472136259">
        <ele>7.0</ele>
        <time>2018-11-25T14:53:47.485Z</time>
      </trkpt>
      <trkpt lat="55.462802750989795" lon="12.163235591724515">
        <ele>8.0</ele>
        <time>2018-11-25T14:53:47.880Z</time>
      </trkpt>
      <trkpt lat="55.462792022153735" lon="12.16343424282968">
        <ele>7.0</ele>
        <time>2018-11-25T14:53:48.278Z</time>
      </trkpt>
      <trkpt lat="55.46276059001684" lon="12.163584362715483">
        <ele>7.0</ele>
        <time>2018-11-25T14:53:48.679Z</time>
      </trkpt>
      <trkpt lat="55.46277567744255" lon="12.163848811760545">
        <ele>6.0</ele>
        <time>2018-11-25T14:53:49.085Z</time>
      </trkpt>
      <trkpt lat="55.46275983564556" lon="12.163892481476068">
        <ele>6.0</ele>
        <time>2018-11-25T14:53:49.492Z</time>
      </trkpt>
      <trkpt lat="55.46281909570098" lon="12.163933552801609">
        <ele>6.0</ele>
        <time>2018-11-25T14:53:49.901Z</time>
      </trkpt>
      <trkpt lat="55.46298002824187" lon="12.163688046857715">
        <ele>7.0</ele>
        <time>2018-11-25T14:53:50.318Z</time>
      </trkpt>
      <trkpt lat="55.46298673376441" lon="12.16361554339528">
        <ele>8.0</ele>
        <time>2018-11-25T14:53:50.736Z</time>
      </trkpt>
      <trkpt lat="55.462852539494634" lon="12.163583356887102">
        <ele>7.0</ele>
        <time>2018-11-25T14:53:51.158Z</time>
      </trkpt>
      <trkpt lat="55.46278456225991" lon="12.163524348288774">
        <ele>7.0</ele>
        <time>2018-11-25T14:53:51.583Z</time>
      </trkpt>
      <trkpt lat="55.462796380743384" lon="12.163454191759229">
        <ele>7.0</ele>
        <time>2018-11-25T14:53:52.009Z</time>
      </trkpt>
      <trkpt lat="55.462830662727356" lon="12.163410941138864">
        <ele>8.0</ele>
        <time>2018-11-25T14:53:52.437Z</time>
      </trkpt>
      <trkpt lat="55.46284734271467" lon="12.163338856771588">
        <ele>8.0</ele>
        <time>2018-11-25T14:53:52.866Z</time>
      </trkpt>
      <trkpt lat="55.462958654388785" lon="12.163192676380277">
        <ele>8.0</ele>
        <time>2018-11-25T14:53:53.300Z</time>
      </trkpt>
      <trkpt lat="55.46295991167426" lon="12.163139283657074">
        <ele>8.0</ele>
        <time>2018-11-25T14:53:53.735Z</time>
      </trkpt>
      <trkpt lat="55.46299788169563" lon="12.163121178746223">
        <ele>8.0</ele>
        <time>2018-11-25T14:53:54.171Z</time>
      </trkpt>
      <trkpt lat="55.46303652226925" lon="12.16307608410716">
        <ele>8.0</ele>
        <time>2018-11-25T14:53:54.609Z</time>
      </trkpt>
      <trkpt lat="55.46301372349262" lon="12.163105923682451">
        <ele>8.0</ele>
        <time>2018-11-25T14:53:55.048Z</time>
      </trkpt>
      <trkpt lat="55.46300643123686" lon="12.16323584318161">
        <ele>8.0</ele>
        <time>2018-11-25T14:53:55.489Z</time>
      </trkpt>
      <trkpt lat="55.462959157302976" lon="12.163309184834361">
        <ele>8.0</ele>
        <time>2018-11-25T14:53:55.932Z</time>
      </trkpt>
      <trkpt lat="55.462930239737034" lon="12.163400799036026">
        <ele>8.0</ele>
        <time>2018-11-25T14:53:56.377Z</time>
      </trkpt>
      <trkpt lat="55.462945494800806" lon="12.163484282791615">
        <ele>8.0</ele>
        <time>2018-11-25T14:53:56.824Z</time>
      </trkpt>
      <trkpt lat="55.46294096857309" lon="12.163602719083428">
        <ele>8.0</ele>
        <time>2018-11-25T14:53:57.273Z</time>
      </trkpt>
      <trkpt lat="55.4629560559988" lon="12.163616633042693">
        <ele>8.0</ele>
        <time>2018-11-25T14:53:57.723Z</time>
      </trkpt>
      <trkpt lat="55.46310441568494" lon="12.163672791793942">
        <ele>7.0</ele>
        <time>2018-11-25T14:53:58.178Z</time>
      </trkpt>
      <trkpt lat="55.463137440383434" lon="12.163656614720821">
        <ele>7.0</ele>
        <time>2018-11-25T14:53:58.634Z</time>
      </trkpt>
      <trkpt lat="55.46322436071932" lon="12.163551170378923">
        <ele>8.0</ele>
        <time>2018-11-25T14:53:59.093Z</time>
      </trkpt>
      <trkpt lat="55.463231317698956" lon="12.163420161232352">
        <ele>8.0</ele>
        <time>2018-11-25T14:53:59.555Z</time>
      </trkpt>
      <trkpt lat="55.46332469210029" lon="12.163309352472425">
        <ele>8.0</ele>
        <time>2018-11-25T14:54:00.020Z</time>
      </trkpt>
      <trkpt lat="55.46332527883351" lon="12.163267778232694">
        <ele>8.0</ele>
        <time>2018-11-25T14:54:00.486Z</time>
      </trkpt>
      <trkpt lat="55.463354866951704" lon="12.163258893415332">
        <ele>8.0</ele>
        <time>2018-11-25T14:54:00.953Z</time>
      </trkpt>
      <trkpt lat="55.463419407606125" lon="12.163296863436699">
        <ele>8.0</ele>
        <time>2018-11-25T14:54:01.422Z</time>
      </trkpt>
      <trkpt lat="55.46346450224519" lon="12.163303988054395">
        <ele>8.0</ele>
        <time>2018-11-25T14:54:01.893Z</time>
      </trkpt>
      <trkpt lat="55.4635847825557" lon="12.163385543972254">
        <ele>8.0</ele>
        <time>2018-11-25T14:54:02.368Z</time>
      </trkpt>
      <trkpt lat="55.46362065710127" lon="12.163430135697126">
        <ele>7.0</ele>
        <time>2018-11-25T14:54:02.845Z</time>
      </trkpt>
      <trkpt lat="55.46370338648558" lon="12.163469111546874">
        <ele>7.0</ele>
        <time>2018-11-25T14:54:03.324Z</time>
      </trkpt>
      <trkpt lat="55.46379215084016" lon="12.163569359108806">
        <ele>7.0</ele>
        <time>2018-11-25T14:54:03.807Z</time>
      </trkpt>
      <trkpt lat="55.463842106983066" lon="12.16367899440229">
        <ele>6.0</ele>
        <time>2018-11-25T14:54:04.293Z</time>
      </trkpt>
      <trkpt lat="55.46387270092964" lon="12.163693746551871">
        <ele>6.0</ele>
        <time>2018-11-25T14:54:04.780Z</time>
      </trkpt>
      <trkpt lat="55.46389700844884" lon="12.16389985755086">
        <ele>6.0</ele>
        <time>2018-11-25T14:54:05.271Z</time>
      </trkpt>
      <trkpt lat="55.463866079226136" lon="12.164082750678062">
        <ele>5.0</ele>
        <time>2018-11-25T14:54:05.765Z</time>
      </trkpt>
      <trkpt lat="55.46381687745452" lon="12.164153074845672">
        <ele>5.0</ele>
        <time>2018-11-25T14:54:06.261Z</time>
      </trkpt>
      <trkpt lat="55.463738003745675" lon="12.164205377921462">
        <ele>5.0</ele>
        <time>2018-11-25T14:54:06.760Z</time>
      </trkpt>
      <trkpt lat="55.4637245927006" lon="12.164268912747502">
        <ele>5.0</ele>
        <time>2018-11-25T14:54:07.260Z</time>
      </trkpt>
      <trkpt lat="55.46367723494768" lon="12.16429715976119">
        <ele>5.0</ele>
        <time>2018-11-25T14:54:07.762Z</time>
      </trkpt>
      <trkpt lat="55.463655861094594" lon="12.16429179534316">
        <ele>5.0</ele>
        <time>2018-11-25T14:54:08.265Z</time>
      </trkpt>
      <trkpt lat="55.463650580495596" lon="12.164269415661693">
        <ele>5.0</ele>
        <time>2018-11-25T14:54:08.768Z</time>
      </trkpt>
      <trkpt lat="55.463545471429825" lon="12.164224907755852">
        <ele>6.0</ele>
        <time>2018-11-25T14:54:09.275Z</time>
      </trkpt>
      <trkpt lat="55.46351546421647" lon="12.164180986583233">
        <ele>6.0</ele>
        <time>2018-11-25T14:54:09.783Z</time>
      </trkpt>
      <trkpt lat="55.463463831692934" lon="12.164156595245004">
        <ele>6.0</ele>
        <time>2018-11-25T14:54:10.293Z</time>
      </trkpt>
      <trkpt lat="55.463435500860214" lon="12.16406850144267">
        <ele>6.0</ele>
        <time>2018-11-25T14:54:10.805Z</time>
      </trkpt>
      <trkpt lat="55.463375402614474" lon="12.163968589156866">
        <ele>6.0</ele>
        <time>2018-11-25T14:54:11.319Z</time>
      </trkpt>
      <trkpt lat="55.46324338763952" lon="12.163944030180573">
        <ele>7.0</ele>
        <time>2018-11-25T14:54:11.838Z</time>
      </trkpt>
      <trkpt lat="55.46327498741448" lon="12.16375577263534">
        <ele>7.0</ele>
        <time>2018-11-25T14:54:12.361Z</time>
      </trkpt>
      <trkpt lat="55.46325294300914" lon="12.16347380541265">
        <ele>8.0</ele>
        <time>2018-11-25T14:54:12.889Z</time>
      </trkpt>
      <trkpt lat="55.46327440068126" lon="12.163322512060404">
        <ele>8.0</ele>
        <time>2018-11-25T14:54:13.420Z</time>
      </trkpt>
      <trkpt lat="55.46318613924086" lon="12.162864273414016">
        <ele>8.0</ele>
        <time>2018-11-25T14:54:13.960Z</time>
      </trkpt>
      <trkpt lat="55.463120341300964" lon="12.16276042163372">
        <ele>8.0</ele>
        <time>2018-11-25T14:54:14.503Z</time>
      </trkpt>
      <trkpt lat="55.46300400048494" lon="12.162706861272454">
        <ele>8.0</ele>
        <time>2018-11-25T14:54:15.050Z</time>
      </trkpt>
      <trkpt lat="55.46296393498778" lon="12.162574930116534">
        <ele>8.0</ele>
        <time>2018-11-25T14:54:15.600Z</time>
      </trkpt>
      <trkpt lat="55.46294323168695" lon="12.16243444941938">
        <ele>7.0</ele>
        <time>2018-11-25T14:54:16.152Z</time>
      </trkpt>
      <trkpt lat="55.46293937601149" lon="12.162022981792688">
        <ele>7.0</ele>
        <time>2018-11-25T14:54:16.712Z</time>
      </trkpt>
      <trkpt lat="55.46295194886625" lon="12.161968164145947">
        <ele>7.0</ele>
        <time>2018-11-25T14:54:17.273Z</time>
      </trkpt>
      <trkpt lat="55.46301296912134" lon="12.161903623491526">
        <ele>7.0</ele>
        <time>2018-11-25T14:54:17.837Z</time>
      </trkpt>
      <trkpt lat="55.46304574236274" lon="12.161886021494865">
        <ele>7.0</ele>
        <time>2018-11-25T14:54:18.402Z</time>
      </trkpt>
      <trkpt lat="55.46316954307258" lon="12.161875376477838">
        <ele>7.0</ele>
        <time>2018-11-25T14:54:18.971Z</time>
      </trkpt>
      <trkpt lat="55.463256631046534" lon="12.16185056604445">
        <ele>7.0</ele>
        <time>2018-11-25T14:54:19.543Z</time>
      </trkpt>
      <trkpt lat="55.46329636126757" lon="12.161814607679844">
        <ele>7.0</ele>
        <time>2018-11-25T14:54:20.116Z</time>
      </trkpt>
      <trkpt lat="55.46334573067725" lon="12.161704637110233">
        <ele>6.0</ele>
        <time>2018-11-25T14:54:20.692Z</time>
      </trkpt>
      <trkpt lat="55.46335184946656" lon="12.16151193715632">
        <ele>6.0</ele>
        <time>2018-11-25T14:54:21.272Z</time>
      </trkpt>
      <trkpt lat="55.46341965906322" lon="12.160939369350672">
        <ele>6.0</ele>
        <time>2018-11-25T14:54:21.863Z</time>
      </trkpt>
      <trkpt lat="55.46341370791197" lon="12.16079318895936">
        <ele>6.0</ele>
        <time>2018-11-25T14:54:22.456Z</time>
      </trkpt>
      <trkpt lat="55.463515715673566" lon="12.15998936444521">
        <ele>5.0</ele>
        <time>2018-11-25T14:54:23.065Z</time>
      </trkpt>
      <trkpt lat="55.46351479366422" lon="12.159763723611832">
        <ele>6.0</ele>
        <time>2018-11-25T14:54:23.678Z</time>
      </trkpt>
      <trkpt lat="55.46352627687156" lon="12.15969180688262">
        <ele>6.0</ele>
        <time>2018-11-25T14:54:24.292Z</time>
      </trkpt>
      <trkpt lat="55.463578160852194" lon="12.159607233479619">
        <ele>6.0</ele>
        <time>2018-11-25T14:54:24.909Z</time>
      </trkpt>
      <trkpt lat="55.463571371510625" lon="12.159369522705674">
        <ele>6.0</ele>
        <time>2018-11-25T14:54:25.530Z</time>
      </trkpt>
      <trkpt lat="55.46360079199076" lon="12.15918604284525">
        <ele>6.0</ele>
        <time>2018-11-25T14:54:26.155Z</time>
      </trkpt>
      <trkpt lat="55.463692070916295" lon="12.158855963498354">
        <ele>6.0</ele>
        <time>2018-11-25T14:54:26.787Z</time>
      </trkpt>
      <trkpt lat="55.46371713280678" lon="12.158706681802869">
        <ele>6.0</ele>
        <time>2018-11-25T14:54:27.422Z</time>
      </trkpt>
      <trkpt lat="55.46383515000343" lon="12.15850979089737">
        <ele>5.0</ele>
        <time>2018-11-25T14:54:28.062Z</time>
      </trkpt>
      <trkpt lat="55.46388912945986" lon="12.15836025774479">
        <ele>5.0</ele>
        <time>2018-11-25T14:54:28.705Z</time>
      </trkpt>
      <trkpt lat="55.46401544474065" lon="12.158193457871675">
        <ele>6.0</ele>
        <time>2018-11-25T14:54:29.354Z</time>
      </trkpt>
      <trkpt lat="55.464151147753" lon="12.157931942492723">
        <ele>7.0</ele>
        <time>2018-11-25T14:54:30.009Z</time>
      </trkpt>
      <trkpt lat="55.464305290952325" lon="12.157466160133481">
        <ele>9.0</ele>
        <time>2018-11-25T14:54:30.674Z</time>
      </trkpt>
      <trkpt lat="55.464507630094886" lon="12.157048070803285">
        <ele>10.0</ele>
        <time>2018-11-25T14:54:31.350Z</time>
      </trkpt>
      <trkpt lat="55.46450360678136" lon="12.156969783827662">
        <ele>10.0</ele>
        <time>2018-11-25T14:54:32.027Z</time>
      </trkpt>
      <trkpt lat="55.46451810747385" lon="12.156933825463057">
        <ele>10.0</ele>
        <time>2018-11-25T14:54:32.705Z</time>
      </trkpt>
      <trkpt lat="55.46460988931358" lon="12.156745651736856">
        <ele>10.0</ele>
        <time>2018-11-25T14:54:33.388Z</time>
      </trkpt>
      <trkpt lat="55.46466998755932" lon="12.15665839612484">
        <ele>10.0</ele>
        <time>2018-11-25T14:54:34.073Z</time>
      </trkpt>
      <trkpt lat="55.46470435336232" lon="12.156683709472418">
        <ele>10.0</ele>
        <time>2018-11-25T14:54:34.760Z</time>
      </trkpt>
      <trkpt lat="55.46481708995998" lon="12.156323958188295">
        <ele>9.0</ele>
        <time>2018-11-25T14:54:35.454Z</time>
      </trkpt>
      <trkpt lat="55.46488104388118" lon="12.156277606263757">
        <ele>9.0</ele>
        <time>2018-11-25T14:54:36.151Z</time>
      </trkpt>
      <trkpt lat="55.46490023843944" lon="12.156235026195645">
        <ele>9.0</ele>
        <time>2018-11-25T14:54:36.849Z</time>
      </trkpt>
      <trkpt lat="55.46488707885146" lon="12.156201917678118">
        <ele>9.0</ele>
        <time>2018-11-25T14:54:37.547Z</time>
      </trkpt>
      <trkpt lat="55.46494038775563" lon="12.156144166365266">
        <ele>8.0</ele>
        <time>2018-11-25T14:54:38.247Z</time>
      </trkpt>
      <trkpt lat="55.46496134251356" lon="12.15609161183238">
        <ele>8.0</ele>
        <time>2018-11-25T14:54:38.949Z</time>
      </trkpt>
      <trkpt lat="55.4649455845356" lon="12.156049199402332">
        <ele>9.0</ele>
        <time>2018-11-25T14:54:39.652Z</time>
      </trkpt>
      <trkpt lat="55.464985901489854" lon="12.156042577698827">
        <ele>9.0</ele>
        <time>2018-11-25T14:54:40.356Z</time>
      </trkpt>
      <trkpt lat="55.46510165557265" lon="12.155949790030718">
        <ele>8.0</ele>
        <time>2018-11-25T14:54:41.064Z</time>
      </trkpt>
      <trkpt lat="55.46534732915461" lon="12.155589116737247">
        <ele>8.0</ele>
        <time>2018-11-25T14:54:41.783Z</time>
      </trkpt>
      <trkpt lat="55.46545252203941" lon="12.155508566647768">
        <ele>9.0</ele>
        <time>2018-11-25T14:54:42.506Z</time>
      </trkpt>
      <trkpt lat="55.465583028271794" lon="12.155337240546942">
        <ele>10.0</ele>
        <time>2018-11-25T14:54:43.234Z</time>
      </trkpt>
      <trkpt lat="55.46566475182772" lon="12.155140517279506">
        <ele>11.0</ele>
        <time>2018-11-25T14:54:43.967Z</time>
      </trkpt>
      <trkpt lat="55.46574396081269" lon="12.154879085719585">
        <ele>12.0</ele>
        <time>2018-11-25T14:54:44.705Z</time>
      </trkpt>
      <trkpt lat="55.46571864746511" lon="12.15477280318737">
        <ele>12.0</ele>
        <time>2018-11-25T14:54:45.445Z</time>
      </trkpt>
      <trkpt lat="55.465739937499166" lon="12.154581779614091">
        <ele>11.0</ele>
        <time>2018-11-25T14:54:46.189Z</time>
      </trkpt>
      <trkpt lat="55.46572166495025" lon="12.15444347821176">
        <ele>11.0</ele>
        <time>2018-11-25T14:54:46.936Z</time>
      </trkpt>
      <trkpt lat="55.465732561424375" lon="12.15423728339374">
        <ele>11.0</ele>
        <time>2018-11-25T14:54:47.687Z</time>
      </trkpt>
      <trkpt lat="55.46577891334891" lon="12.154036620631814">
        <ele>12.0</ele>
        <time>2018-11-25T14:54:48.442Z</time>
      </trkpt>
      <trkpt lat="55.46584412455559" lon="12.153937127441168">
        <ele>12.0</ele>
        <time>2018-11-25T14:54:49.200Z</time>
      </trkpt>
      <trkpt lat="55.466015031561255" lon="12.153809135779738">
        <ele>13.0</ele>
        <time>2018-11-25T14:54:49.964Z</time>
      </trkpt>
      <trkpt lat="55.466126846149564" lon="12.153771165758371">
        <ele>14.0</ele>
        <time>2018-11-25T14:54:50.731Z</time>
      </trkpt>
      <trkpt lat="55.46622617170215" lon="12.153705870732665">
        <ele>15.0</ele>
        <time>2018-11-25T14:54:51.502Z</time>
      </trkpt>
      <trkpt lat="55.4663095716387" lon="12.153687346726656">
        <ele>16.0</ele>
        <time>2018-11-25T14:54:52.276Z</time>
      </trkpt>
      <trkpt lat="55.46637503430247" lon="12.153638480231166">
        <ele>16.0</ele>
        <time>2018-11-25T14:54:53.052Z</time>
      </trkpt>
      <trkpt lat="55.466534877195954" lon="12.153671504929662">
        <ele>17.0</ele>
        <time>2018-11-25T14:54:53.833Z</time>
      </trkpt>
      <trkpt lat="55.466666892170906" lon="12.153583327308297">
        <ele>18.0</ele>
        <time>2018-11-25T14:54:54.619Z</time>
      </trkpt>
      <trkpt lat="55.46674048528075" lon="12.1535555832088">
        <ele>18.0</ele>
        <time>2018-11-25T14:54:55.408Z</time>
      </trkpt>
      <trkpt lat="55.46680779196322" lon="12.153506968170404">
        <ele>19.0</ele>
        <time>2018-11-25T14:54:56.199Z</time>
      </trkpt>
      <trkpt lat="55.46681919135153" lon="12.153476625680923">
        <ele>19.0</ele>
        <time>2018-11-25T14:54:56.991Z</time>
      </trkpt>
      <trkpt lat="55.46693000011146" lon="12.153364978730679">
        <ele>19.0</ele>
        <time>2018-11-25T14:54:57.787Z</time>
      </trkpt>
      <trkpt lat="55.46706369146705" lon="12.153034396469593">
        <ele>19.0</ele>
        <time>2018-11-25T14:54:58.591Z</time>
      </trkpt>
      <trkpt lat="55.46712554991245" lon="12.15299466624856">
        <ele>20.0</ele>
        <time>2018-11-25T14:54:59.397Z</time>
      </trkpt>
      <trkpt lat="55.467314729467034" lon="12.153020817786455">
        <ele>19.0</ele>
        <time>2018-11-25T14:55:00.209Z</time>
      </trkpt>
      <trkpt lat="55.46739913523197" lon="12.15292333625257">
        <ele>18.0</ele>
        <time>2018-11-25T14:55:01.024Z</time>
      </trkpt>
      <trkpt lat="55.46745001338422" lon="12.152906823903322">
        <ele>18.0</ele>
        <time>2018-11-25T14:55:01.841Z</time>
      </trkpt>
      <trkpt lat="55.46739368699491" lon="12.152880923822522">
        <ele>18.0</ele>
        <time>2018-11-25T14:55:02.660Z</time>
      </trkpt>
      <trkpt lat="55.467498460784554" lon="12.152801295742393">
        <ele>17.0</ele>
        <time>2018-11-25T14:55:03.483Z</time>
      </trkpt>
      <trkpt lat="55.46756559982896" lon="12.152779586613178">
        <ele>17.0</ele>
        <time>2018-11-25T14:55:04.308Z</time>
      </trkpt>
      <trkpt lat="55.46762871555984" lon="12.152785621583462">
        <ele>17.0</ele>
        <time>2018-11-25T14:55:05.135Z</time>
      </trkpt>
      <trkpt lat="55.46774053014815" lon="12.152921743690968">
        <ele>16.0</ele>
        <time>2018-11-25T14:55:05.967Z</time>
      </trkpt>
      <trkpt lat="55.467815632000566" lon="12.152913697063923">
        <ele>16.0</ele>
        <time>2018-11-25T14:55:06.801Z</time>
      </trkpt>
      <trkpt lat="55.46800489537418" lon="12.153002209961414">
        <ele>15.0</ele>
        <time>2018-11-25T14:55:07.642Z</time>
      </trkpt>
      <trkpt lat="55.46803808771074" lon="12.153031714260578">
        <ele>14.0</ele>
        <time>2018-11-25T14:55:08.484Z</time>
      </trkpt>
      <trkpt lat="55.468105897307396" lon="12.153014615178108">
        <ele>13.0</ele>
        <time>2018-11-25T14:55:09.328Z</time>
      </trkpt>
      <trkpt lat="55.468150321394205" lon="12.153026014566422">
        <ele>13.0</ele>
        <time>2018-11-25T14:55:10.174Z</time>
      </trkpt>
      <trkpt lat="55.46821251511574" lon="12.152877487242222">
        <ele>12.0</ele>
        <time>2018-11-25T14:55:11.023Z</time>
      </trkpt>
      <trkpt lat="55.468234308063984" lon="12.152493931353092">
        <ele>11.0</ele>
        <time>2018-11-25T14:55:11.879Z</time>
      </trkpt>
      <trkpt lat="55.46821712516248" lon="12.151990933343768">
        <ele>11.0</ele>
        <time>2018-11-25T14:55:12.745Z</time>
      </trkpt>
      <trkpt lat="55.468199187889695" lon="12.151934187859297">
        <ele>11.0</ele>
        <time>2018-11-25T14:55:13.612Z</time>
      </trkpt>
      <trkpt lat="55.46821762807667" lon="12.151617938652635">
        <ele>10.0</ele>
        <time>2018-11-25T14:55:14.485Z</time>
      </trkpt>
      <trkpt lat="55.468125846236944" lon="12.151352316141129">
        <ele>12.0</ele>
        <time>2018-11-25T14:55:15.364Z</time>
      </trkpt>
      <trkpt lat="55.468070609495044" lon="12.15125609189272">
        <ele>13.0</ele>
        <time>2018-11-25T14:55:16.245Z</time>
      </trkpt>
      <trkpt lat="55.467965081334114" lon="12.151154670864344">
        <ele>14.0</ele>
        <time>2018-11-25T14:55:17.130Z</time>
      </trkpt>
      <trkpt lat="55.46794379130006" lon="12.151171769946814">
        <ele>13.0</ele>
        <time>2018-11-25T14:55:18.016Z</time>
      </trkpt>
      <trkpt lat="55.46782359480858" lon="12.151176799088717">
        <ele>13.0</ele>
        <time>2018-11-25T14:55:18.906Z</time>
      </trkpt>
      <trkpt lat="55.467779925093055" lon="12.151160202920437">
        <ele>13.0</ele>
        <time>2018-11-25T14:55:19.798Z</time>
      </trkpt>
      <trkpt lat="55.46771706081927" lon="12.151034222915769">
        <ele>13.0</ele>
        <time>2018-11-25T14:55:20.693Z</time>
      </trkpt>
      <trkpt lat="55.467689484357834" lon="12.150814617052674">
        <ele>14.0</ele>
        <time>2018-11-25T14:55:21.592Z</time>
      </trkpt>
      <trkpt lat="55.46769426204264" lon="12.150367191061378">
        <ele>13.0</ele>
        <time>2018-11-25T14:55:22.499Z</time>
      </trkpt>
      <trkpt lat="55.46769962646067" lon="12.150240372866392">
        <ele>13.0</ele>
        <time>2018-11-25T14:55:23.409Z</time>
      </trkpt>
      <trkpt lat="55.467756036669016" lon="12.150062257423997">
        <ele>14.0</ele>
        <time>2018-11-25T14:55:24.323Z</time>
      </trkpt>
      <trkpt lat="55.46776106581092" lon="12.149975840002298">
        <ele>14.0</ele>
        <time>2018-11-25T14:55:25.238Z</time>
      </trkpt>
      <trkpt lat="55.46779861673713" lon="12.14994851499796">
        <ele>14.0</ele>
        <time>2018-11-25T14:55:26.155Z</time>
      </trkpt>
      <trkpt lat="55.46785309910774" lon="12.149962680414319">
        <ele>14.0</ele>
        <time>2018-11-25T14:55:27.073Z</time>
      </trkpt>
      <trkpt lat="55.46793272718787" lon="12.150031244382262">
        <ele>15.0</ele>
        <time>2018-11-25T14:55:27.994Z</time>
      </trkpt>
      <trkpt lat="55.46818854287267" lon="12.150156972929835">
        <ele>14.0</ele>
        <time>2018-11-25T14:55:28.924Z</time>
      </trkpt>
      <trkpt lat="55.46829088591039" lon="12.150234002619982">
        <ele>13.0</ele>
        <time>2018-11-25T14:55:29.858Z</time>
      </trkpt>
      <trkpt lat="55.46842851676047" lon="12.150303404778242">
        <ele>12.0</ele>
        <time>2018-11-25T14:55:30.797Z</time>
      </trkpt>
      <trkpt lat="55.46844611875713" lon="12.150341542437673">
        <ele>12.0</ele>
        <time>2018-11-25T14:55:31.737Z</time>
      </trkpt>
      <trkpt lat="55.46844033524394" lon="12.150484789162874">
        <ele>12.0</ele>
        <time>2018-11-25T14:55:32.679Z</time>
      </trkpt>
      <trkpt lat="55.46847788617015" lon="12.15062728151679">
        <ele>11.0</ele>
        <time>2018-11-25T14:55:33.624Z</time>
      </trkpt>
      <trkpt lat="55.46846020035446" lon="12.15071227401495">
        <ele>11.0</ele>
        <time>2018-11-25T14:55:34.571Z</time>
      </trkpt>
      <trkpt lat="55.46843882650137" lon="12.150745131075382">
        <ele>11.0</ele>
        <time>2018-11-25T14:55:35.519Z</time>
      </trkpt>
      <trkpt lat="55.46838308684528" lon="12.150765247642994">
        <ele>12.0</ele>
        <time>2018-11-25T14:55:36.469Z</time>
      </trkpt>
      <trkpt lat="55.46836129389703" lon="12.150751082226634">
        <ele>12.0</ele>
        <time>2018-11-25T14:55:37.420Z</time>
      </trkpt>
      <trkpt lat="55.46834201551974" lon="12.150768600404263">
        <ele>12.0</ele>
        <time>2018-11-25T14:55:38.371Z</time>
      </trkpt>
      <trkpt lat="55.46828434802592" lon="12.150953589007258">
        <ele>12.0</ele>
        <time>2018-11-25T14:55:39.326Z</time>
      </trkpt>
      <trkpt lat="55.468207988888025" lon="12.150976220145822">
        <ele>12.0</ele>
        <time>2018-11-25T14:55:40.284Z</time>
      </trkpt>
      <trkpt lat="55.468057533726096" lon="12.150928946211934">
        <ele>14.0</ele>
        <time>2018-11-25T14:55:41.247Z</time>
      </trkpt>
      <trkpt lat="55.46803607605398" lon="12.150936992838979">
        <ele>14.0</ele>
        <time>2018-11-25T14:55:42.211Z</time>
      </trkpt>
      <trkpt lat="55.46795938163996" lon="12.150898519903421">
        <ele>14.0</ele>
        <time>2018-11-25T14:55:43.177Z</time>
      </trkpt>
      <trkpt lat="55.46781839802861" lon="12.150927102193236">
        <ele>14.0</ele>
        <time>2018-11-25T14:55:44.148Z</time>
      </trkpt>
      <trkpt lat="55.4677671007812" lon="12.150895670056343">
        <ele>14.0</ele>
        <time>2018-11-25T14:55:45.121Z</time>
      </trkpt>
      <trkpt lat="55.46770096756518" lon="12.150501804426312">
        <ele>13.0</ele>
        <time>2018-11-25T14:55:46.101Z</time>
      </trkpt>
      <trkpt lat="55.46769233420491" lon="12.150278007611632">
        <ele>13.0</ele>
        <time>2018-11-25T14:55:47.086Z</time>
      </trkpt>
      <trkpt lat="55.46767121180892" lon="12.150153536349535">
        <ele>13.0</ele>
        <time>2018-11-25T14:55:48.073Z</time>
      </trkpt>
      <trkpt lat="55.46768303029239" lon="12.14973796159029">
        <ele>14.0</ele>
        <time>2018-11-25T14:55:49.068Z</time>
      </trkpt>
      <trkpt lat="55.46778260730207" lon="12.148999348282814">
        <ele>13.0</ele>
        <time>2018-11-25T14:55:50.077Z</time>
      </trkpt>
      <trkpt lat="55.46785142272711" lon="12.14869131334126">
        <ele>13.0</ele>
        <time>2018-11-25T14:55:51.092Z</time>
      </trkpt>
      <trkpt lat="55.467928536236286" lon="12.14857991784811">
        <ele>13.0</ele>
        <time>2018-11-25T14:55:52.111Z</time>
      </trkpt>
      <trkpt lat="55.468105897307396" lon="12.148528872057796">
        <ele>13.0</ele>
        <time>2018-11-25T14:55:53.136Z</time>
      </trkpt>
      <trkpt lat="55.46820027753711" lon="12.148453937843442">
        <ele>13.0</ele>
        <time>2018-11-25T14:55:54.164Z</time>
      </trkpt>
      <trkpt lat="55.468546114861965" lon="12.14794909581542">
        <ele>13.0</ele>
        <time>2018-11-25T14:55:55.207Z</time>
      </trkpt>
      <trkpt lat="55.46867134049535" lon="12.147810207679868">
        <ele>12.0</ele>
        <time>2018-11-25T14:55:56.255Z</time>
      </trkpt>
      <trkpt lat="55.468756249174476" lon="12.147624799981713">
        <ele>11.0</ele>
        <time>2018-11-25T14:55:57.307Z</time>
      </trkpt>
      <trkpt lat="55.46878818422556" lon="12.14595453813672">
        <ele>5.0</ele>
        <time>2018-11-25T14:55:58.391Z</time>
      </trkpt>
      <trkpt lat="55.46881249174476" lon="12.145609622821212">
        <ele>4.0</ele>
        <time>2018-11-25T14:55:59.481Z</time>
      </trkpt>
      <trkpt lat="55.46882431022823" lon="12.145074354484677">
        <ele>4.0</ele>
        <time>2018-11-25T14:56:00.581Z</time>
      </trkpt>
      <trkpt lat="55.468852976337075" lon="12.144780904054642">
        <ele>4.0</ele>
        <time>2018-11-25T14:56:01.687Z</time>
      </trkpt>
      <trkpt lat="55.46884962357581" lon="12.144453171640635">
        <ele>4.0</ele>
        <time>2018-11-25T14:56:02.799Z</time>
      </trkpt>
      <trkpt lat="55.468818694353104" lon="12.144303135573864">
        <ele>4.0</ele>
        <time>2018-11-25T14:56:03.914Z</time>
      </trkpt>
      <trkpt lat="55.46879455447197" lon="12.14424672536552">
        <ele>4.0</ele>
        <time>2018-11-25T14:56:05.031Z</time>
      </trkpt>
      <trkpt lat="55.46876287087798" lon="12.14423163793981">
        <ele>5.0</ele>
        <time>2018-11-25T14:56:06.149Z</time>
      </trkpt>
      <trkpt lat="55.4686910379678" lon="12.144235325977206">
        <ele>5.0</ele>
        <time>2018-11-25T14:56:07.269Z</time>
      </trkpt>
      <trkpt lat="55.46851074323058" lon="12.144159385934472">
        <ele>6.0</ele>
        <time>2018-11-25T14:56:08.395Z</time>
      </trkpt>
      <trkpt lat="55.46822768636048" lon="12.144096018746495">
        <ele>7.0</ele>
        <time>2018-11-25T14:56:09.531Z</time>
      </trkpt>
      <trkpt lat="55.46804076991975" lon="12.144087217748165">
        <ele>7.0</ele>
        <time>2018-11-25T14:56:10.673Z</time>
      </trkpt>
      <trkpt lat="55.46785058453679" lon="12.144008344039321">
        <ele>7.0</ele>
        <time>2018-11-25T14:56:11.821Z</time>
      </trkpt>
      <trkpt lat="55.46759988181293" lon="12.143657393753529">
        <ele>7.0</ele>
        <time>2018-11-25T14:56:12.980Z</time>
      </trkpt>
      <trkpt lat="55.467292768880725" lon="12.143323794007301">
        <ele>6.0</ele>
        <time>2018-11-25T14:56:14.151Z</time>
      </trkpt>
      <trkpt lat="55.467166285961866" lon="12.143240058794618">
        <ele>7.0</ele>
        <time>2018-11-25T14:56:15.326Z</time>
      </trkpt>
      <trkpt lat="55.46690275892615" lon="12.143149618059397">
        <ele>9.0</ele>
        <time>2018-11-25T14:56:16.510Z</time>
      </trkpt>
      <trkpt lat="55.46680930070579" lon="12.143072001636028">
        <ele>10.0</ele>
        <time>2018-11-25T14:56:17.698Z</time>
      </trkpt>
      <trkpt lat="55.46676428988576" lon="12.14299145154655">
        <ele>10.0</ele>
        <time>2018-11-25T14:56:18.888Z</time>
      </trkpt>
      <trkpt lat="55.466763116419315" lon="12.142890617251396">
        <ele>11.0</ele>
        <time>2018-11-25T14:56:20.080Z</time>
      </trkpt>
      <trkpt lat="55.46685816720128" lon="12.142178658396006">
        <ele>11.0</ele>
        <time>2018-11-25T14:56:21.285Z</time>
      </trkpt>
      <trkpt lat="55.46687979251146" lon="12.141836090013385">
        <ele>12.0</ele>
        <time>2018-11-25T14:56:22.497Z</time>
      </trkpt>
      <trkpt lat="55.46682732179761" lon="12.141211722046137">
        <ele>12.0</ele>
        <time>2018-11-25T14:56:23.721Z</time>
      </trkpt>
      <trkpt lat="55.46675029210746" lon="12.140913745388389">
        <ele>13.0</ele>
        <time>2018-11-25T14:56:24.951Z</time>
      </trkpt>
      <trkpt lat="55.46678574755788" lon="12.140824059024453">
        <ele>13.0</ele>
        <time>2018-11-25T14:56:26.183Z</time>
      </trkpt>
      <trkpt lat="55.46680150553584" lon="12.140726493671536">
        <ele>12.0</ele>
        <time>2018-11-25T14:56:27.417Z</time>
      </trkpt>
      <trkpt lat="55.46681843698025" lon="12.140146046876907">
        <ele>12.0</ele>
        <time>2018-11-25T14:56:28.662Z</time>
      </trkpt>
      <trkpt lat="55.46679614111781" lon="12.139881933107972">
        <ele>12.0</ele>
        <time>2018-11-25T14:56:29.912Z</time>
      </trkpt>
      <trkpt lat="55.4668365418911" lon="12.139367200434208">
        <ele>12.0</ele>
        <time>2018-11-25T14:56:31.172Z</time>
      </trkpt>
      <trkpt lat="55.46683025546372" lon="12.138968221843243">
        <ele>13.0</ele>
        <time>2018-11-25T14:56:32.439Z</time>
      </trkpt>
      <trkpt lat="55.46687149442732" lon="12.13853420689702">
        <ele>14.0</ele>
        <time>2018-11-25T14:56:33.714Z</time>
      </trkpt>
      <trkpt lat="55.466873589903116" lon="12.138361874967813">
        <ele>14.0</ele>
        <time>2018-11-25T14:56:34.993Z</time>
      </trkpt>
      <trkpt lat="55.46684727072716" lon="12.138019725680351">
        <ele>14.0</ele>
        <time>2018-11-25T14:56:36.278Z</time>
      </trkpt>
      <trkpt lat="55.4668780323118" lon="12.137886872515082">
        <ele>14.0</ele>
        <time>2018-11-25T14:56:37.566Z</time>
      </trkpt>
      <trkpt lat="55.46687442809343" lon="12.137840017676353">
        <ele>15.0</ele>
        <time>2018-11-25T14:56:38.855Z</time>
      </trkpt>
      <trkpt lat="55.46682287938893" lon="12.137676905840635">
        <ele>15.0</ele>
        <time>2018-11-25T14:56:40.147Z</time>
      </trkpt>
      <trkpt lat="55.46679454855621" lon="12.137654107064009">
        <ele>15.0</ele>
        <time>2018-11-25T14:56:41.440Z</time>
      </trkpt>
      <trkpt lat="55.46678197570145" lon="12.137585124000907">
        <ele>16.0</ele>
        <time>2018-11-25T14:56:42.735Z</time>
      </trkpt>
      <trkpt lat="55.46682380139828" lon="12.137506082654">
        <ele>16.0</ele>
        <time>2018-11-25T14:56:44.032Z</time>
      </trkpt>
      <trkpt lat="55.46682774089277" lon="12.13716359809041">
        <ele>16.0</ele>
        <time>2018-11-25T14:56:45.335Z</time>
      </trkpt>
      <trkpt lat="55.46689127571881" lon="12.136688092723489">
        <ele>16.0</ele>
        <time>2018-11-25T14:56:46.647Z</time>
      </trkpt>
      <trkpt lat="55.46689982526004" lon="12.136403610929847">
        <ele>17.0</ele>
        <time>2018-11-25T14:56:47.965Z</time>
      </trkpt>
      <trkpt lat="55.466968389227986" lon="12.135816793888807">
        <ele>20.0</ele>
        <time>2018-11-25T14:56:49.294Z</time>
      </trkpt>
      <trkpt lat="55.46700996346772" lon="12.135773375630379">
        <ele>20.0</ele>
        <time>2018-11-25T14:56:50.625Z</time>
      </trkpt>
      <trkpt lat="55.467021279037" lon="12.13565762154758">
        <ele>20.0</ele>
        <time>2018-11-25T14:56:51.958Z</time>
      </trkpt>
      <trkpt lat="55.46697987243533" lon="12.135447654873133">
        <ele>21.0</ele>
        <time>2018-11-25T14:56:53.295Z</time>
      </trkpt>
      <trkpt lat="55.46691390685737" lon="12.135411947965622">
        <ele>22.0</ele>
        <time>2018-11-25T14:56:54.634Z</time>
      </trkpt>
      <trkpt lat="55.466836458072066" lon="12.13532343506813">
        <ele>22.0</ele>
        <time>2018-11-25T14:56:55.976Z</time>
      </trkpt>
      <trkpt lat="55.46676345169544" lon="12.135290745645761">
        <ele>23.0</ele>
        <time>2018-11-25T14:56:57.321Z</time>
      </trkpt>
      <trkpt lat="55.46675456687808" lon="12.135122520849109">
        <ele>24.0</ele>
        <time>2018-11-25T14:56:58.669Z</time>
      </trkpt>
      <trkpt lat="55.46671726740897" lon="12.135013304650784">
        <ele>24.0</ele>
        <time>2018-11-25T14:57:00.019Z</time>
      </trkpt>
      <trkpt lat="55.46668038703501" lon="12.13505077175796">
        <ele>24.0</ele>
        <time>2018-11-25T14:57:01.371Z</time>
      </trkpt>
      <trkpt lat="55.46662892214954" lon="12.13521002791822">
        <ele>23.0</ele>
        <time>2018-11-25T14:57:02.726Z</time>
      </trkpt>
      <trkpt lat="55.46654946170747" lon="12.135308682918549">
        <ele>23.0</ele>
        <time>2018-11-25T14:57:04.085Z</time>
      </trkpt>
      <trkpt lat="55.4664789699018" lon="12.135326033458114">
        <ele>23.0</ele>
        <time>2018-11-25T14:57:05.446Z</time>
      </trkpt>
      <trkpt lat="55.466406885534525" lon="12.135312035679817">
        <ele>24.0</ele>
        <time>2018-11-25T14:57:06.809Z</time>
      </trkpt>
      <trkpt lat="55.46617705374956" lon="12.135420329868793">
        <ele>23.0</ele>
        <time>2018-11-25T14:57:08.180Z</time>
      </trkpt>
      <trkpt lat="55.46607747673988" lon="12.135427370667458">
        <ele>23.0</ele>
        <time>2018-11-25T14:57:09.554Z</time>
      </trkpt>
      <trkpt lat="55.465910509228706" lon="12.135407840833068">
        <ele>23.0</ele>
        <time>2018-11-25T14:57:10.934Z</time>
      </trkpt>
      <trkpt lat="55.46580523252487" lon="12.13552376255393">
        <ele>23.0</ele>
        <time>2018-11-25T14:57:12.318Z</time>
      </trkpt>
      <trkpt lat="55.465717893093824" lon="12.13575141504407">
        <ele>22.0</ele>
        <time>2018-11-25T14:57:13.707Z</time>
      </trkpt>
      <trkpt lat="55.465525947511196" lon="12.136512575671077">
        <ele>20.0</ele>
        <time>2018-11-25T14:57:15.112Z</time>
      </trkpt>
      <trkpt lat="55.465498035773635" lon="12.136839050799608">
        <ele>19.0</ele>
        <time>2018-11-25T14:57:16.523Z</time>
      </trkpt>
      <trkpt lat="55.46543517149985" lon="12.137068882584572">
        <ele>19.0</ele>
        <time>2018-11-25T14:57:17.939Z</time>
      </trkpt>
      <trkpt lat="55.46527097001672" lon="12.13753248564899">
        <ele>18.0</ele>
        <time>2018-11-25T14:57:19.365Z</time>
      </trkpt>
      <trkpt lat="55.46523752622306" lon="12.137850159779191">
        <ele>18.0</ele>
        <time>2018-11-25T14:57:20.797Z</time>
      </trkpt>
      <trkpt lat="55.465185306966305" lon="12.137949150055647">
        <ele>18.0</ele>
        <time>2018-11-25T14:57:22.232Z</time>
      </trkpt>
      <trkpt lat="55.46511674299836" lon="12.138212928548455">
        <ele>18.0</ele>
        <time>2018-11-25T14:57:23.672Z</time>
      </trkpt>
      <trkpt lat="55.465107858181" lon="12.138386769220233">
        <ele>18.0</ele>
        <time>2018-11-25T14:57:25.116Z</time>
      </trkpt>
      <trkpt lat="55.46498774550855" lon="12.138970736414194">
        <ele>19.0</ele>
        <time>2018-11-25T14:57:26.571Z</time>
      </trkpt>
      <trkpt lat="55.46495731920004" lon="12.139268796890974">
        <ele>20.0</ele>
        <time>2018-11-25T14:57:28.032Z</time>
      </trkpt>
      <trkpt lat="55.46488020569086" lon="12.139429310336709">
        <ele>20.0</ele>
        <time>2018-11-25T14:57:29.497Z</time>
      </trkpt>
      <trkpt lat="55.46486168168485" lon="12.139526456594467">
        <ele>20.0</ele>
        <time>2018-11-25T14:57:30.964Z</time>
      </trkpt>
      <trkpt lat="55.4648417327553" lon="12.140119979158044">
        <ele>21.0</ele>
        <time>2018-11-25T14:57:32.442Z</time>
      </trkpt>
      <trkpt lat="55.464863860979676" lon="12.140299519523978">
        <ele>21.0</ele>
        <time>2018-11-25T14:57:33.924Z</time>
      </trkpt>
      <trkpt lat="55.46491079963744" lon="12.140378225594759">
        <ele>22.0</ele>
        <time>2018-11-25T14:57:35.408Z</time>
      </trkpt>
      <trkpt lat="55.464971819892526" lon="12.140548378229141">
        <ele>22.0</ele>
        <time>2018-11-25T14:57:36.895Z</time>
      </trkpt>
      <trkpt lat="55.465041724964976" lon="12.14064602740109">
        <ele>23.0</ele>
        <time>2018-11-25T14:57:38.385Z</time>
      </trkpt>
      <trkpt lat="55.46512705273926" lon="12.140674861148">
        <ele>23.0</ele>
        <time>2018-11-25T14:57:39.878Z</time>
      </trkpt>
      <trkpt lat="55.46517667360604" lon="12.14074619114399">
        <ele>24.0</ele>
        <time>2018-11-25T14:57:41.373Z</time>
      </trkpt>
      <trkpt lat="55.46520559117198" lon="12.140763541683555">
        <ele>24.0</ele>
        <time>2018-11-25T14:57:42.869Z</time>
      </trkpt>
      <trkpt lat="55.465299217030406" lon="12.140483502298594">
        <ele>23.0</ele>
        <time>2018-11-25T14:57:44.372Z</time>
      </trkpt>
      <trkpt lat="55.465381275862455" lon="12.140346877276897">
        <ele>23.0</ele>
        <time>2018-11-25T14:57:45.878Z</time>
      </trkpt>
      <trkpt lat="55.46547909267247" lon="12.140293903648853">
        <ele>24.0</ele>
        <time>2018-11-25T14:57:47.388Z</time>
      </trkpt>
      <trkpt lat="55.46557020395994" lon="12.140192985534668">
        <ele>23.0</ele>
        <time>2018-11-25T14:57:48.901Z</time>
      </trkpt>
      <trkpt lat="55.46558395028114" lon="12.140147471800447">
        <ele>23.0</ele>
        <time>2018-11-25T14:57:50.415Z</time>
      </trkpt>
      <trkpt lat="55.4655878059566" lon="12.139956280589104">
        <ele>23.0</ele>
        <time>2018-11-25T14:57:51.933Z</time>
      </trkpt>
      <trkpt lat="55.46560322865844" lon="12.139916298910975">
        <ele>23.0</ele>
        <time>2018-11-25T14:57:53.452Z</time>
      </trkpt>
      <trkpt lat="55.465765921399" lon="12.139791492372751">
        <ele>21.0</ele>
        <time>2018-11-25T14:57:54.977Z</time>
      </trkpt>
      <trkpt lat="55.465826941654086" lon="12.13979635387659">
        <ele>21.0</ele>
        <time>2018-11-25T14:57:56.504Z</time>
      </trkpt>
      <trkpt lat="55.46593992970884" lon="12.13976550847292">
        <ele>20.0</ele>
        <time>2018-11-25T14:57:58.034Z</time>
      </trkpt>
      <trkpt lat="55.46602986752987" lon="12.139780595898628">
        <ele>20.0</ele>
        <time>2018-11-25T14:57:59.567Z</time>
      </trkpt>
      <trkpt lat="55.466146962717175" lon="12.13986475020647">
        <ele>19.0</ele>
        <time>2018-11-25T14:58:01.105Z</time>
      </trkpt>
      <trkpt lat="55.4662078153342" lon="12.139870366081595">
        <ele>19.0</ele>
        <time>2018-11-25T14:58:02.645Z</time>
      </trkpt>
      <trkpt lat="55.46626598574221" lon="12.139844885095954">
        <ele>19.0</ele>
        <time>2018-11-25T14:58:04.187Z</time>
      </trkpt>
      <trkpt lat="55.46637637540698" lon="12.139677163213491">
        <ele>18.0</ele>
        <time>2018-11-25T14:58:05.733Z</time>
      </trkpt>
      <trkpt lat="55.46647343784571" lon="12.13960968889296">
        <ele>16.0</ele>
        <time>2018-11-25T14:58:07.283Z</time>
      </trkpt>
      <trkpt lat="55.46663722023368" lon="12.139696693047881">
        <ele>14.0</ele>
        <time>2018-11-25T14:58:08.839Z</time>
      </trkpt>
      <trkpt lat="55.466687427833676" lon="12.139746313914657">
        <ele>14.0</ele>
        <time>2018-11-25T14:58:10.396Z</time>
      </trkpt>
      <trkpt lat="55.46673344448209" lon="12.139817476272583">
        <ele>13.0</ele>
        <time>2018-11-25T14:58:11.955Z</time>
      </trkpt>
      <trkpt lat="55.466761188581586" lon="12.139971619471908">
        <ele>13.0</ele>
        <time>2018-11-25T14:58:13.518Z</time>
      </trkpt>
      <trkpt lat="55.46675414778292" lon="12.140119727700949">
        <ele>13.0</ele>
        <time>2018-11-25T14:58:15.083Z</time>
      </trkpt>
      <trkpt lat="55.46671508811414" lon="12.140209833160043">
        <ele>13.0</ele>
        <time>2018-11-25T14:58:16.650Z</time>
      </trkpt>
      <trkpt lat="55.46667879447341" lon="12.14043497107923">
        <ele>14.0</ele>
        <time>2018-11-25T14:58:18.222Z</time>
      </trkpt>
      <trkpt lat="55.46674970537424" lon="12.14076823554933">
        <ele>13.0</ele>
        <time>2018-11-25T14:58:19.801Z</time>
      </trkpt>
      <trkpt lat="55.46678247861564" lon="12.141234520822763">
        <ele>13.0</ele>
        <time>2018-11-25T14:58:21.388Z</time>
      </trkpt>
      <trkpt lat="55.46676470898092" lon="12.14133501984179">
        <ele>13.0</ele>
        <time>2018-11-25T14:58:22.977Z</time>
      </trkpt>
      <trkpt lat="55.46679203398526" lon="12.141412300989032">
        <ele>13.0</ele>
        <time>2018-11-25T14:58:24.568Z</time>
      </trkpt>
      <trkpt lat="55.46689085662365" lon="12.141576670110226">
        <ele>12.0</ele>
        <time>2018-11-25T14:58:26.164Z</time>
      </trkpt>
      <trkpt lat="55.466954642906785" lon="12.141651855781674">
        <ele>11.0</ele>
        <time>2018-11-25T14:58:27.762Z</time>
      </trkpt>
      <trkpt lat="55.4670144058764" lon="12.141776075586677">
        <ele>10.0</ele>
        <time>2018-11-25T14:58:29.363Z</time>
      </trkpt>
      <trkpt lat="55.467183385044336" lon="12.142048738896847">
        <ele>8.0</ele>
        <time>2018-11-25T14:58:30.972Z</time>
      </trkpt>
      <trkpt lat="55.467222863808274" lon="12.142178742215037">
        <ele>8.0</ele>
        <time>2018-11-25T14:58:32.584Z</time>
      </trkpt>
      <trkpt lat="55.467283548787236" lon="12.142553245648742">
        <ele>7.0</ele>
        <time>2018-11-25T14:58:34.203Z</time>
      </trkpt>
      <trkpt lat="55.46729578636587" lon="12.142730774357915">
        <ele>7.0</ele>
        <time>2018-11-25T14:58:35.825Z</time>
      </trkpt>
      <trkpt lat="55.467266868799925" lon="12.142836889252067">
        <ele>7.0</ele>
        <time>2018-11-25T14:58:37.449Z</time>
      </trkpt>
      <trkpt lat="55.46725865453482" lon="12.142941327765584">
        <ele>7.0</ele>
        <time>2018-11-25T14:58:39.075Z</time>
      </trkpt>
      <trkpt lat="55.46721523627639" lon="12.143063452094793">
        <ele>7.0</ele>
        <time>2018-11-25T14:58:40.704Z</time>
      </trkpt>
      <trkpt lat="55.46717366203666" lon="12.143105948343873">
        <ele>7.0</ele>
        <time>2018-11-25T14:58:42.335Z</time>
      </trkpt>
      <trkpt lat="55.46703904867172" lon="12.143102679401636">
        <ele>8.0</ele>
        <time>2018-11-25T14:58:43.970Z</time>
      </trkpt>
      <trkpt lat="55.466987835243344" lon="12.143128579482436">
        <ele>8.0</ele>
        <time>2018-11-25T14:58:45.607Z</time>
      </trkpt>
      <trkpt lat="55.46663587912917" lon="12.142937555909157">
        <ele>11.0</ele>
        <time>2018-11-25T14:58:47.256Z</time>
      </trkpt>
      <trkpt lat="55.46646807342768" lon="12.142819538712502">
        <ele>13.0</ele>
        <time>2018-11-25T14:58:48.911Z</time>
      </trkpt>
      <trkpt lat="55.46639556996524" lon="12.142718201503158">
        <ele>14.0</ele>
        <time>2018-11-25T14:58:50.569Z</time>
      </trkpt>
      <trkpt lat="55.466250060126185" lon="12.142410418018699">
        <ele>16.0</ele>
        <time>2018-11-25T14:58:52.235Z</time>
      </trkpt>
      <trkpt lat="55.465847896412015" lon="12.14196584187448">
        <ele>22.0</ele>
        <time>2018-11-25T14:58:53.916Z</time>
      </trkpt>
      <trkpt lat="55.46570783481002" lon="12.141760652884841">
        <ele>24.0</ele>
        <time>2018-11-25T14:58:55.604Z</time>
      </trkpt>
      <trkpt lat="55.465575233101845" lon="12.141496622934937">
        <ele>25.0</ele>
        <time>2018-11-25T14:58:57.298Z</time>
      </trkpt>
      <trkpt lat="55.46549183316529" lon="12.14141950942576">
        <ele>26.0</ele>
        <time>2018-11-25T14:58:58.995Z</time>
      </trkpt>
      <trkpt lat="55.465447660535574" lon="12.141216835007071">
        <ele>25.0</ele>
        <time>2018-11-25T14:59:00.696Z</time>
      </trkpt>
      <trkpt lat="55.4653927590698" lon="12.141102757304907">
        <ele>25.0</ele>
        <time>2018-11-25T14:59:02.400Z</time>
      </trkpt>
      <trkpt lat="55.465388149023056" lon="12.140977531671524">
        <ele>25.0</ele>
        <time>2018-11-25T14:59:04.107Z</time>
      </trkpt>
      <trkpt lat="55.465404242277145" lon="12.14088348671794">
        <ele>25.0</ele>
        <time>2018-11-25T14:59:05.815Z</time>
      </trkpt>
      <trkpt lat="55.465464340522885" lon="12.140791285783052">
        <ele>24.0</ele>
        <time>2018-11-25T14:59:07.526Z</time>
      </trkpt>
      <trkpt lat="55.46550700441003" lon="12.140641752630472">
        <ele>24.0</ele>
        <time>2018-11-25T14:59:09.240Z</time>
      </trkpt>
      <trkpt lat="55.465550757944584" lon="12.140649715438485">
        <ele>24.0</ele>
        <time>2018-11-25T14:59:10.956Z</time>
      </trkpt>
      <trkpt lat="55.465577244758606" lon="12.140616104006767">
        <ele>24.0</ele>
        <time>2018-11-25T14:59:12.673Z</time>
      </trkpt>
      <trkpt lat="55.46559803187847" lon="12.140459781512618">
        <ele>23.0</ele>
        <time>2018-11-25T14:59:14.393Z</time>
      </trkpt>
      <trkpt lat="55.465648071840405" lon="12.140321061015129">
        <ele>23.0</ele>
        <time>2018-11-25T14:59:16.116Z</time>
      </trkpt>
      <trkpt lat="55.46606171876192" lon="12.139442972838879">
        <ele>19.0</ele>
        <time>2018-11-25T14:59:17.860Z</time>
      </trkpt>
      <trkpt lat="55.46620630659163" lon="12.139275334775448">
        <ele>18.0</ele>
        <time>2018-11-25T14:59:19.610Z</time>
      </trkpt>
      <trkpt lat="55.46626296825707" lon="12.139237113296986">
        <ele>18.0</ele>
        <time>2018-11-25T14:59:21.362Z</time>
      </trkpt>
      <trkpt lat="55.46645927242935" lon="12.139225043356419">
        <ele>16.0</ele>
        <time>2018-11-25T14:59:23.121Z</time>
      </trkpt>
      <trkpt lat="55.46666353940964" lon="12.139160418882966">
        <ele>14.0</ele>
        <time>2018-11-25T14:59:24.886Z</time>
      </trkpt>
      <trkpt lat="55.466740066185594" lon="12.139019099995494">
        <ele>14.0</ele>
        <time>2018-11-25T14:59:26.655Z</time>
      </trkpt>
      <trkpt lat="55.46677124686539" lon="12.138923797756433">
        <ele>14.0</ele>
        <time>2018-11-25T14:59:28.426Z</time>
      </trkpt>
      <trkpt lat="55.466806618496776" lon="12.138360617682338">
        <ele>14.0</ele>
        <time>2018-11-25T14:59:30.208Z</time>
      </trkpt>
      <trkpt lat="55.46680091880262" lon="12.138031795620918">
        <ele>15.0</ele>
        <time>2018-11-25T14:59:31.996Z</time>
      </trkpt>
      <trkpt lat="55.46681986190379" lon="12.137863989919424">
        <ele>15.0</ele>
        <time>2018-11-25T14:59:33.787Z</time>
      </trkpt>
      <trkpt lat="55.46675096265972" lon="12.137695346027613">
        <ele>15.0</ele>
        <time>2018-11-25T14:59:35.582Z</time>
      </trkpt>
      <trkpt lat="55.46670025214553" lon="12.13750566355884">
        <ele>16.0</ele>
        <time>2018-11-25T14:59:37.381Z</time>
      </trkpt>
      <trkpt lat="55.46674517914653" lon="12.137125292792916">
        <ele>16.0</ele>
        <time>2018-11-25T14:59:39.187Z</time>
      </trkpt>
      <trkpt lat="55.46679748222232" lon="12.136960504576564">
        <ele>16.0</ele>
        <time>2018-11-25T14:59:40.997Z</time>
      </trkpt>
      <trkpt lat="55.46685464680195" lon="12.136621791869402">
        <ele>16.0</ele>
        <time>2018-11-25T14:59:42.814Z</time>
      </trkpt>
      <trkpt lat="55.46685473062098" lon="12.136512324213982">
        <ele>17.0</ele>
        <time>2018-11-25T14:59:44.633Z</time>
      </trkpt>
      <trkpt lat="55.466898400336504" lon="12.136269668117166">
        <ele>18.0</ele>
        <time>2018-11-25T14:59:46.456Z</time>
      </trkpt>
      <trkpt lat="55.46691415831447" lon="12.135989544913173">
        <ele>19.0</ele>
        <time>2018-11-25T14:59:48.285Z</time>
      </trkpt>
      <trkpt lat="55.466935029253364" lon="12.135917376726866">
        <ele>19.0</ele>
        <time>2018-11-25T14:59:50.115Z</time>
      </trkpt>
      <trkpt lat="55.466959001496434" lon="12.135627195239067">
        <ele>21.0</ele>
        <time>2018-11-25T14:59:51.951Z</time>
      </trkpt>
      <trkpt lat="55.46691147610545" lon="12.13542116805911">
        <ele>22.0</ele>
        <time>2018-11-25T14:59:53.791Z</time>
      </trkpt>
      <trkpt lat="55.46687736175954" lon="12.135371379554272">
        <ele>22.0</ele>
        <time>2018-11-25T14:59:55.632Z</time>
      </trkpt>
      <trkpt lat="55.46684777364135" lon="12.135282615199685">
        <ele>23.0</ele>
        <time>2018-11-25T14:59:57.475Z</time>
      </trkpt>
      <trkpt lat="55.46674266457558" lon="12.13511036708951">
        <ele>24.0</ele>
        <time>2018-11-25T14:59:59.323Z</time>
      </trkpt>
      <trkpt lat="55.46673537231982" lon="12.134987656027079">
        <ele>24.0</ele>
        <time>2018-11-25T15:00:01.173Z</time>
      </trkpt>
      <trkpt lat="55.466651134192944" lon="12.13466428220272">
        <ele>25.0</ele>
        <time>2018-11-25T15:00:03.030Z</time>
      </trkpt>
      <trkpt lat="55.466661443933845" lon="12.134393379092216">
        <ele>26.0</ele>
        <time>2018-11-25T15:00:04.892Z</time>
      </trkpt>
      <trkpt lat="55.46660587191582" lon="12.133988114073873">
        <ele>27.0</ele>
        <time>2018-11-25T15:00:06.762Z</time>
      </trkpt>
      <trkpt lat="55.46660696156323" lon="12.133874790742993">
        <ele>27.0</ele>
        <time>2018-11-25T15:00:08.634Z</time>
      </trkpt>
      <trkpt lat="55.46666462905705" lon="12.133662309497595">
        <ele>28.0</ele>
        <time>2018-11-25T15:00:10.511Z</time>
      </trkpt>
      <trkpt lat="55.466749956831336" lon="12.133501963689923">
        <ele>28.0</ele>
        <time>2018-11-25T15:00:12.392Z</time>
      </trkpt>
      <trkpt lat="55.46685456298292" lon="12.13317439891398">
        <ele>28.0</ele>
        <time>2018-11-25T15:00:14.280Z</time>
      </trkpt>
      <trkpt lat="55.46686453744769" lon="12.133093010634184">
        <ele>28.0</ele>
        <time>2018-11-25T15:00:16.169Z</time>
      </trkpt>
      <trkpt lat="55.46683226712048" lon="12.13286267593503">
        <ele>27.0</ele>
        <time>2018-11-25T15:00:18.063Z</time>
      </trkpt>
      <trkpt lat="55.46682002954185" lon="12.132831243798137">
        <ele>26.0</ele>
        <time>2018-11-25T15:00:19.958Z</time>
      </trkpt>
      <trkpt lat="55.46672757714987" lon="12.132763434201479">
        <ele>26.0</ele>
        <time>2018-11-25T15:00:21.856Z</time>
      </trkpt>
      <trkpt lat="55.466706454753876" lon="12.132643824443221">
        <ele>25.0</ele>
        <time>2018-11-25T15:00:23.756Z</time>
      </trkpt>
      <trkpt lat="55.46668021939695" lon="12.132600909098983">
        <ele>25.0</ele>
        <time>2018-11-25T15:00:25.657Z</time>
      </trkpt>
      <trkpt lat="55.466650212183595" lon="12.132468055933714">
        <ele>25.0</ele>
        <time>2018-11-25T15:00:27.561Z</time>
      </trkpt>
      <trkpt lat="55.46666303649545" lon="12.132270997390151">
        <ele>24.0</ele>
        <time>2018-11-25T15:00:29.469Z</time>
      </trkpt>
      <trkpt lat="55.46665239147842" lon="12.132229506969452">
        <ele>24.0</ele>
        <time>2018-11-25T15:00:31.378Z</time>
      </trkpt>
      <trkpt lat="55.46661056578159" lon="12.132175024598837">
        <ele>24.0</ele>
        <time>2018-11-25T15:00:33.288Z</time>
      </trkpt>
      <trkpt lat="55.46658533625305" lon="12.132091037929058">
        <ele>23.0</ele>
        <time>2018-11-25T15:00:35.200Z</time>
      </trkpt>
      <trkpt lat="55.466660019010305" lon="12.131816279143095">
        <ele>22.0</ele>
        <time>2018-11-25T15:00:37.118Z</time>
      </trkpt>
      <trkpt lat="55.466726403683424" lon="12.131674038246274">
        <ele>22.0</ele>
        <time>2018-11-25T15:00:39.039Z</time>
      </trkpt>
      <trkpt lat="55.4667673073709" lon="12.131527019664645">
        <ele>21.0</ele>
        <time>2018-11-25T15:00:40.964Z</time>
      </trkpt>
      <trkpt lat="55.46685313805938" lon="12.131438590586185">
        <ele>19.0</ele>
        <time>2018-11-25T15:00:42.892Z</time>
      </trkpt>
      <trkpt lat="55.46688607893884" lon="12.13142316788435">
        <ele>19.0</ele>
        <time>2018-11-25T15:00:44.821Z</time>
      </trkpt>
      <trkpt lat="55.46693586744368" lon="12.131340857595205">
        <ele>19.0</ele>
        <time>2018-11-25T15:00:46.752Z</time>
      </trkpt>
      <trkpt lat="55.46701013110578" lon="12.131129130721092">
        <ele>17.0</ele>
        <time>2018-11-25T15:00:48.688Z</time>
      </trkpt>
      <trkpt lat="55.467011388391256" lon="12.130988733842969">
        <ele>16.0</ele>
        <time>2018-11-25T15:00:50.627Z</time>
      </trkpt>
      <trkpt lat="55.46710392460227" lon="12.130670975893736">
        <ele>14.0</ele>
        <time>2018-11-25T15:00:52.572Z</time>
      </trkpt>
      <trkpt lat="55.46712211333215" lon="12.130619762465358">
        <ele>14.0</ele>
        <time>2018-11-25T15:00:54.518Z</time>
      </trkpt>
      <trkpt lat="55.467141726985574" lon="12.130614062771201">
        <ele>14.0</ele>
        <time>2018-11-25T15:00:56.465Z</time>
      </trkpt>
      <trkpt lat="55.46720216050744" lon="12.130533177405596">
        <ele>14.0</ele>
        <time>2018-11-25T15:00:58.415Z</time>
      </trkpt>
      <trkpt lat="55.467230742797256" lon="12.130440138280392">
        <ele>14.0</ele>
        <time>2018-11-25T15:01:00.367Z</time>
      </trkpt>
      <trkpt lat="55.46733031980693" lon="12.13024509139359">
        <ele>13.0</ele>
        <time>2018-11-25T15:01:02.324Z</time>
      </trkpt>
      <trkpt lat="55.46741900034249" lon="12.129863379523158">
        <ele>11.0</ele>
        <time>2018-11-25T15:01:04.288Z</time>
      </trkpt>
      <trkpt lat="55.46748412773013" lon="12.129817279055715">
        <ele>11.0</ele>
        <time>2018-11-25T15:01:06.255Z</time>
      </trkpt>
      <trkpt lat="55.46751983463764" lon="12.129751732572913">
        <ele>11.0</ele>
        <time>2018-11-25T15:01:08.223Z</time>
      </trkpt>
      <trkpt lat="55.46767280437052" lon="12.129617789760232">
        <ele>10.0</ele>
        <time>2018-11-25T15:01:10.197Z</time>
      </trkpt>
      <trkpt lat="55.46769753098488" lon="12.129572192206979">
        <ele>10.0</ele>
        <time>2018-11-25T15:01:12.172Z</time>
      </trkpt>
      <trkpt lat="55.467803813517094" lon="12.129552997648716">
        <ele>10.0</ele>
        <time>2018-11-25T15:01:14.151Z</time>
      </trkpt>
      <trkpt lat="55.46802249737084" lon="12.12961720302701">
        <ele>11.0</ele>
        <time>2018-11-25T15:01:16.137Z</time>
      </trkpt>
      <trkpt lat="55.46810514293611" lon="12.12970714084804">
        <ele>11.0</ele>
        <time>2018-11-25T15:01:18.126Z</time>
      </trkpt>
      <trkpt lat="55.46825308352709" lon="12.129946863278747">
        <ele>12.0</ele>
        <time>2018-11-25T15:01:20.122Z</time>
      </trkpt>
      <trkpt lat="55.468302788212895" lon="12.130295131355524">
        <ele>12.0</ele>
        <time>2018-11-25T15:01:22.125Z</time>
      </trkpt>
      <trkpt lat="55.46831485815346" lon="12.130440222099423">
        <ele>12.0</ele>
        <time>2018-11-25T15:01:24.130Z</time>
      </trkpt>
      <trkpt lat="55.46830580569804" lon="12.130546504631639">
        <ele>13.0</ele>
        <time>2018-11-25T15:01:26.137Z</time>
      </trkpt>
      <trkpt lat="55.468345284461975" lon="12.130734259262681">
        <ele>13.0</ele>
        <time>2018-11-25T15:01:28.148Z</time>
      </trkpt>
      <trkpt lat="55.468302788212895" lon="12.130851354449987">
        <ele>14.0</ele>
        <time>2018-11-25T15:01:30.162Z</time>
      </trkpt>
      <trkpt lat="55.468056024983525" lon="12.131253853440285">
        <ele>17.0</ele>
        <time>2018-11-25T15:01:32.187Z</time>
      </trkpt>
      <trkpt lat="55.46793356537819" lon="12.131377905607224">
        <ele>19.0</ele>
        <time>2018-11-25T15:01:34.217Z</time>
      </trkpt>
      <trkpt lat="55.46783826313913" lon="12.131447894498706">
        <ele>19.0</ele>
        <time>2018-11-25T15:01:36.250Z</time>
      </trkpt>
      <trkpt lat="55.46768202446401" lon="12.13161176070571">
        <ele>20.0</ele>
        <time>2018-11-25T15:01:38.289Z</time>
      </trkpt>
      <trkpt lat="55.46764330007136" lon="12.13167722336948">
        <ele>20.0</ele>
        <time>2018-11-25T15:01:40.330Z</time>
      </trkpt>
      <trkpt lat="55.46762804500759" lon="12.13174075819552">
        <ele>21.0</ele>
        <time>2018-11-25T15:01:42.372Z</time>
      </trkpt>
      <trkpt lat="55.4675651807338" lon="12.13181896135211">
        <ele>21.0</ele>
        <time>2018-11-25T15:01:44.417Z</time>
      </trkpt>
      <trkpt lat="55.46748102642596" lon="12.13200462050736">
        <ele>21.0</ele>
        <time>2018-11-25T15:01:46.466Z</time>
      </trkpt>
      <trkpt lat="55.467453533783555" lon="12.132012164220214">
        <ele>22.0</ele>
        <time>2018-11-25T15:01:48.516Z</time>
      </trkpt>
      <trkpt lat="55.46742780134082" lon="12.131938571110368">
        <ele>21.0</ele>
        <time>2018-11-25T15:01:50.568Z</time>
      </trkpt>
      <trkpt lat="55.46741187572479" lon="12.1318004373461">
        <ele>21.0</ele>
        <time>2018-11-25T15:01:52.622Z</time>
      </trkpt>
      <trkpt lat="55.46740843914449" lon="12.131524253636599">
        <ele>20.0</ele>
        <time>2018-11-25T15:01:54.682Z</time>
      </trkpt>
      <trkpt lat="55.467416821047664" lon="12.131486367434263">
        <ele>20.0</ele>
        <time>2018-11-25T15:01:56.742Z</time>
      </trkpt>
      <trkpt lat="55.467518493533134" lon="12.131332056596875">
        <ele>19.0</ele>
        <time>2018-11-25T15:01:58.807Z</time>
      </trkpt>
      <trkpt lat="55.467547327280045" lon="12.131185457110405">
        <ele>18.0</ele>
        <time>2018-11-25T15:02:00.875Z</time>
      </trkpt>
      <trkpt lat="55.46761941164732" lon="12.131037348881364">
        <ele>17.0</ele>
        <time>2018-11-25T15:02:02.946Z</time>
      </trkpt>
      <trkpt lat="55.46763407997787" lon="12.130854791030288">
        <ele>16.0</ele>
        <time>2018-11-25T15:02:05.021Z</time>
      </trkpt>
      <trkpt lat="55.46763407997787" lon="12.13033108972013">
        <ele>14.0</ele>
        <time>2018-11-25T15:02:07.106Z</time>
      </trkpt>
      <trkpt lat="55.467663584277034" lon="12.130259172990918">
        <ele>13.0</ele>
        <time>2018-11-25T15:02:09.192Z</time>
      </trkpt>
      <trkpt lat="55.467726197093725" lon="12.130218939855695">
        <ele>14.0</ele>
        <time>2018-11-25T15:02:11.281Z</time>
      </trkpt>
      <trkpt lat="55.46775461174548" lon="12.130166636779904">
        <ele>13.0</ele>
        <time>2018-11-25T15:02:13.371Z</time>
      </trkpt>
      <trkpt lat="55.467901546508074" lon="12.130104610696435">
        <ele>14.0</ele>
        <time>2018-11-25T15:02:15.466Z</time>
      </trkpt>
      <trkpt lat="55.46796348877251" lon="12.130142077803612">
        <ele>14.0</ele>
        <time>2018-11-25T15:02:17.563Z</time>
      </trkpt>
      <trkpt lat="55.467967428267" lon="12.130162864923477">
        <ele>14.0</ele>
        <time>2018-11-25T15:02:19.661Z</time>
      </trkpt>
      <trkpt lat="55.468120984733105" lon="12.130190525203943">
        <ele>13.0</ele>
        <time>2018-11-25T15:02:21.764Z</time>
      </trkpt>
      <trkpt lat="55.468203043565154" lon="12.1302739251405">
        <ele>13.0</ele>
        <time>2018-11-25T15:02:23.870Z</time>
      </trkpt>
      <trkpt lat="55.46823950484395" lon="12.130347853526473">
        <ele>13.0</ele>
        <time>2018-11-25T15:02:25.978Z</time>
      </trkpt>
      <trkpt lat="55.4682750441134" lon="12.130481461063027">
        <ele>13.0</ele>
        <time>2018-11-25T15:02:28.088Z</time>
      </trkpt>
      <trkpt lat="55.468275463208556" lon="12.130559328943491">
        <ele>13.0</ele>
        <time>2018-11-25T15:02:30.200Z</time>
      </trkpt>
      <trkpt lat="55.46833815984428" lon="12.130755297839642">
        <ele>13.0</ele>
        <time>2018-11-25T15:02:32.316Z</time>
      </trkpt>
      <trkpt lat="55.46832047402859" lon="12.130889659747481">
        <ele>13.0</ele>
        <time>2018-11-25T15:02:34.435Z</time>
      </trkpt>
      <trkpt lat="55.46816096641123" lon="12.131186965852976">
        <ele>16.0</ele>
        <time>2018-11-25T15:02:36.561Z</time>
      </trkpt>
      <trkpt lat="55.46808083541691" lon="12.131246980279684">
        <ele>17.0</ele>
        <time>2018-11-25T15:02:38.690Z</time>
      </trkpt>
      <trkpt lat="55.46801176853478" lon="12.131341025233269">
        <ele>18.0</ele>
        <time>2018-11-25T15:02:40.822Z</time>
      </trkpt>
      <trkpt lat="55.46791705302894" lon="12.131394417956471">
        <ele>19.0</ele>
        <time>2018-11-25T15:02:42.957Z</time>
      </trkpt>
      <trkpt lat="55.467841951176524" lon="12.131465496495366">
        <ele>19.0</ele>
        <time>2018-11-25T15:02:45.095Z</time>
      </trkpt>
      <trkpt lat="55.46774270944297" lon="12.131528863683343">
        <ele>20.0</ele>
        <time>2018-11-25T15:02:47.237Z</time>
      </trkpt>
      <trkpt lat="55.46772116795182" lon="12.131561720743775">
        <ele>20.0</ele>
        <time>2018-11-25T15:02:49.380Z</time>
      </trkpt>
      <trkpt lat="55.46756534837186" lon="12.13189423084259">
        <ele>21.0</ele>
        <time>2018-11-25T15:02:51.531Z</time>
      </trkpt>
      <trkpt lat="55.46749477274716" lon="12.1319679915905">
        <ele>21.0</ele>
        <time>2018-11-25T15:02:53.685Z</time>
      </trkpt>
      <trkpt lat="55.46742939390242" lon="12.132125068455935">
        <ele>22.0</ele>
        <time>2018-11-25T15:02:55.842Z</time>
      </trkpt>
      <trkpt lat="55.467431489378214" lon="12.132237972691655">
        <ele>22.0</ele>
        <time>2018-11-25T15:02:58.001Z</time>
      </trkpt>
      <trkpt lat="55.46738404780626" lon="12.132428493350744">
        <ele>23.0</ele>
        <time>2018-11-25T15:03:00.164Z</time>
      </trkpt>
      <trkpt lat="55.46729343943298" lon="12.132645500823855">
        <ele>24.0</ele>
        <time>2018-11-25T15:03:02.332Z</time>
      </trkpt>
      <trkpt lat="55.46726695261896" lon="12.132672155275941">
        <ele>25.0</ele>
        <time>2018-11-25T15:03:04.501Z</time>
      </trkpt>
      <trkpt lat="55.46722571365535" lon="12.132654385641217">
        <ele>25.0</ele>
        <time>2018-11-25T15:03:06.672Z</time>
      </trkpt>
      <trkpt lat="55.46714876778424" lon="12.132550282403827">
        <ele>25.0</ele>
        <time>2018-11-25T15:03:08.846Z</time>
      </trkpt>
      <trkpt lat="55.46706872060895" lon="12.13252647779882">
        <ele>25.0</ele>
        <time>2018-11-25T15:03:11.023Z</time>
      </trkpt>
      <trkpt lat="55.46702044084668" lon="12.132461685687304">
        <ele>25.0</ele>
        <time>2018-11-25T15:03:13.202Z</time>
      </trkpt>
      <trkpt lat="55.466698072850704" lon="12.132255658507347">
        <ele>24.0</ele>
        <time>2018-11-25T15:03:15.392Z</time>
      </trkpt>
      <trkpt lat="55.46660637483001" lon="12.132143676280975">
        <ele>23.0</ele>
        <time>2018-11-25T15:03:17.586Z</time>
      </trkpt>
      <trkpt lat="55.46652163378894" lon="12.131979558616877">
        <ele>23.0</ele>
        <time>2018-11-25T15:03:19.784Z</time>
      </trkpt>
      <trkpt lat="55.466466564685106" lon="12.131939744576812">
        <ele>23.0</ele>
        <time>2018-11-25T15:03:21.984Z</time>
      </trkpt>
      <trkpt lat="55.46638953499496" lon="12.131702369078994">
        <ele>22.0</ele>
        <time>2018-11-25T15:03:24.189Z</time>
      </trkpt>
      <trkpt lat="55.46630999073386" lon="12.13163523003459">
        <ele>21.0</ele>
        <time>2018-11-25T15:03:26.397Z</time>
      </trkpt>
      <trkpt lat="55.46628115698695" lon="12.131636906415224">
        <ele>21.0</ele>
        <time>2018-11-25T15:03:28.606Z</time>
      </trkpt>
      <trkpt lat="55.46625810675323" lon="12.13152333162725">
        <ele>20.0</ele>
        <time>2018-11-25T15:03:30.817Z</time>
      </trkpt>
      <trkpt lat="55.46621032990515" lon="12.131504137068987">
        <ele>19.0</ele>
        <time>2018-11-25T15:03:33.030Z</time>
      </trkpt>
      <trkpt lat="55.46622592024505" lon="12.131439847871661">
        <ele>19.0</ele>
        <time>2018-11-25T15:03:35.244Z</time>
      </trkpt>
      <trkpt lat="55.466199265792966" lon="12.131382934749126">
        <ele>18.0</ele>
        <time>2018-11-25T15:03:37.460Z</time>
      </trkpt>
      <trkpt lat="55.466205636039376" lon="12.131294757127762">
        <ele>17.0</ele>
        <time>2018-11-25T15:03:39.677Z</time>
      </trkpt>
      <trkpt lat="55.46600069850683" lon="12.131160981953144">
        <ele>14.0</ele>
        <time>2018-11-25T15:03:41.901Z</time>
      </trkpt>
      <trkpt lat="55.465976474806666" lon="12.13116223923862">
        <ele>14.0</ele>
        <time>2018-11-25T15:03:44.126Z</time>
      </trkpt>
      <trkpt lat="55.465834736824036" lon="12.131199706345797">
        <ele>13.0</ele>
        <time>2018-11-25T15:03:46.356Z</time>
      </trkpt>
      <trkpt lat="55.46580648981035" lon="12.131240777671337">
        <ele>13.0</ele>
        <time>2018-11-25T15:03:48.587Z</time>
      </trkpt>
      <trkpt lat="55.46578737907112" lon="12.13132987730205">
        <ele>14.0</ele>
        <time>2018-11-25T15:03:50.820Z</time>
      </trkpt>
      <trkpt lat="55.465809758752584" lon="12.13174763135612">
        <ele>16.0</ele>
        <time>2018-11-25T15:03:53.061Z</time>
      </trkpt>
      <trkpt lat="55.46590724028647" lon="12.132000932469964">
        <ele>18.0</ele>
        <time>2018-11-25T15:03:55.308Z</time>
      </trkpt>
      <trkpt lat="55.465909419581294" lon="12.132086008787155">
        <ele>19.0</ele>
        <time>2018-11-25T15:03:57.556Z</time>
      </trkpt>
      <trkpt lat="55.46597924083471" lon="12.132366467267275">
        <ele>21.0</ele>
        <time>2018-11-25T15:03:59.810Z</time>
      </trkpt>
      <trkpt lat="55.46611066907644" lon="12.132587246596813">
        <ele>23.0</ele>
        <time>2018-11-25T15:04:02.070Z</time>
      </trkpt>
      <trkpt lat="55.46618518419564" lon="12.132654637098312">
        <ele>24.0</ele>
        <time>2018-11-25T15:04:04.333Z</time>
      </trkpt>
      <trkpt lat="55.466184010729194" lon="12.132740886881948">
        <ele>25.0</ele>
        <time>2018-11-25T15:04:06.597Z</time>
      </trkpt>
      <trkpt lat="55.46620546840131" lon="12.132811043411493">
        <ele>25.0</ele>
        <time>2018-11-25T15:04:08.863Z</time>
      </trkpt>
      <trkpt lat="55.46628794632852" lon="12.132873237133026">
        <ele>26.0</ele>
        <time>2018-11-25T15:04:11.132Z</time>
      </trkpt>
      <trkpt lat="55.46628593467176" lon="12.132857395336032">
        <ele>26.0</ele>
        <time>2018-11-25T15:04:13.401Z</time>
      </trkpt>
      <trkpt lat="55.46634670346975" lon="12.13292428292334">
        <ele>27.0</ele>
        <time>2018-11-25T15:04:15.673Z</time>
      </trkpt>
      <trkpt lat="55.466374112293124" lon="12.132924953475595">
        <ele>27.0</ele>
        <time>2018-11-25T15:04:17.945Z</time>
      </trkpt>
      <trkpt lat="55.46641736291349" lon="12.132956217974424">
        <ele>27.0</ele>
        <time>2018-11-25T15:04:20.219Z</time>
      </trkpt>
      <trkpt lat="55.4664580989629" lon="12.133035259321332">
        <ele>27.0</ele>
        <time>2018-11-25T15:04:22.495Z</time>
      </trkpt>
      <trkpt lat="55.466526579111814" lon="12.133119413629174">
        <ele>28.0</ele>
        <time>2018-11-25T15:04:24.774Z</time>
      </trkpt>
      <trkpt lat="55.46655926853418" lon="12.133178757503629">
        <ele>28.0</ele>
        <time>2018-11-25T15:04:27.054Z</time>
      </trkpt>
      <trkpt lat="55.46655356884003" lon="12.133226031437516">
        <ele>28.0</ele>
        <time>2018-11-25T15:04:29.335Z</time>
      </trkpt>
      <trkpt lat="55.46657469123602" lon="12.133235922083259">
        <ele>28.0</ele>
        <time>2018-11-25T15:04:31.617Z</time>
      </trkpt>
      <trkpt lat="55.466519789770246" lon="12.13338696397841">
        <ele>28.0</ele>
        <time>2018-11-25T15:04:33.902Z</time>
      </trkpt>
      <trkpt lat="55.46649472787976" lon="12.133555188775063">
        <ele>28.0</ele>
        <time>2018-11-25T15:04:36.191Z</time>
      </trkpt>
      <trkpt lat="55.466401521116495" lon="12.133755935356021">
        <ele>28.0</ele>
        <time>2018-11-25T15:04:38.485Z</time>
      </trkpt>
      <trkpt lat="55.466081919148564" lon="12.134293802082539">
        <ele>26.0</ele>
        <time>2018-11-25T15:04:40.793Z</time>
      </trkpt>
      <trkpt lat="55.46591151505709" lon="12.13451961055398">
        <ele>25.0</ele>
        <time>2018-11-25T15:04:43.108Z</time>
      </trkpt>
      <trkpt lat="55.46583364717662" lon="12.13474776595831">
        <ele>25.0</ele>
        <time>2018-11-25T15:04:45.428Z</time>
      </trkpt>
      <trkpt lat="55.46580112539232" lon="12.135013053193688">
        <ele>25.0</ele>
        <time>2018-11-25T15:04:47.753Z</time>
      </trkpt>
      <trkpt lat="55.46583347953856" lon="12.135034678503871">
        <ele>25.0</ele>
        <time>2018-11-25T15:04:50.079Z</time>
      </trkpt>
      <trkpt lat="55.46582551673055" lon="12.135077677667141">
        <ele>25.0</ele>
        <time>2018-11-25T15:04:52.406Z</time>
      </trkpt>
      <trkpt lat="55.465851249173284" lon="12.13508790358901">
        <ele>25.0</ele>
        <time>2018-11-25T15:04:54.734Z</time>
      </trkpt>
      <trkpt lat="55.46590145677328" lon="12.135232239961624">
        <ele>24.0</ele>
        <time>2018-11-25T15:04:57.065Z</time>
      </trkpt>
      <trkpt lat="55.465941689908504" lon="12.135289907455444">
        <ele>24.0</ele>
        <time>2018-11-25T15:04:59.398Z</time>
      </trkpt>
      <trkpt lat="55.46602584421635" lon="12.135330894961953">
        <ele>24.0</ele>
        <time>2018-11-25T15:05:01.734Z</time>
      </trkpt>
      <trkpt lat="55.46612575650215" lon="12.135321088135242">
        <ele>24.0</ele>
        <time>2018-11-25T15:05:04.073Z</time>
      </trkpt>
      <trkpt lat="55.46621410176158" lon="12.135339612141252">
        <ele>24.0</ele>
        <time>2018-11-25T15:05:06.415Z</time>
      </trkpt>
      <trkpt lat="55.46636329963803" lon="12.135294266045094">
        <ele>24.0</ele>
        <time>2018-11-25T15:05:08.762Z</time>
      </trkpt>
      <trkpt lat="55.46641602180898" lon="12.135111289098859">
        <ele>24.0</ele>
        <time>2018-11-25T15:05:11.113Z</time>
      </trkpt>
      <trkpt lat="55.466460613533854" lon="12.135078767314553">
        <ele>25.0</ele>
        <time>2018-11-25T15:05:13.466Z</time>
      </trkpt>
      <trkpt lat="55.46650495380163" lon="12.135072145611048">
        <ele>24.0</ele>
        <time>2018-11-25T15:05:15.820Z</time>
      </trkpt>
      <trkpt lat="55.46651761047542" lon="12.13509326800704">
        <ele>24.0</ele>
        <time>2018-11-25T15:05:18.175Z</time>
      </trkpt>
      <trkpt lat="55.46668357215822" lon="12.135088657960296">
        <ele>24.0</ele>
        <time>2018-11-25T15:05:20.535Z</time>
      </trkpt>
      <trkpt lat="55.46690594404936" lon="12.135167783126235">
        <ele>23.0</ele>
        <time>2018-11-25T15:05:22.903Z</time>
      </trkpt>
      <trkpt lat="55.466997222974896" lon="12.13526677340269">
        <ele>22.0</ele>
        <time>2018-11-25T15:05:25.274Z</time>
      </trkpt>
      <trkpt lat="55.46703787520528" lon="12.13535176590085">
        <ele>22.0</ele>
        <time>2018-11-25T15:05:27.647Z</time>
      </trkpt>
      <trkpt lat="55.46703401952982" lon="12.135390406474471">
        <ele>22.0</ele>
        <time>2018-11-25T15:05:30.021Z</time>
      </trkpt>
      <trkpt lat="55.46707861125469" lon="12.135392501950264">
        <ele>22.0</ele>
        <time>2018-11-25T15:05:32.397Z</time>
      </trkpt>
      <trkpt lat="55.467001497745514" lon="12.135439021512866">
        <ele>21.0</ele>
        <time>2018-11-25T15:05:34.775Z</time>
      </trkpt>
      <trkpt lat="55.466835452243686" lon="12.135494342073798">
        <ele>22.0</ele>
        <time>2018-11-25T15:05:37.159Z</time>
      </trkpt>
      <trkpt lat="55.466746939346194" lon="12.135550752282143">
        <ele>22.0</ele>
        <time>2018-11-25T15:05:39.546Z</time>
      </trkpt>
      <trkpt lat="55.46648374758661" lon="12.13562878780067">
        <ele>22.0</ele>
        <time>2018-11-25T15:05:41.942Z</time>
      </trkpt>
      <trkpt lat="55.46626975759864" lon="12.135802460834384">
        <ele>21.0</ele>
        <time>2018-11-25T15:05:44.346Z</time>
      </trkpt>
      <trkpt lat="55.46620932407677" lon="12.135909916833043">
        <ele>21.0</ele>
        <time>2018-11-25T15:05:46.753Z</time>
      </trkpt>
      <trkpt lat="55.46612877398729" lon="12.136112339794636">
        <ele>20.0</ele>
        <time>2018-11-25T15:05:49.164Z</time>
      </trkpt>
      <trkpt lat="55.466065825894475" lon="12.136419871822">
        <ele>19.0</ele>
        <time>2018-11-25T15:05:51.581Z</time>
      </trkpt>
      <trkpt lat="55.46591352671385" lon="12.136863274499774">
        <ele>18.0</ele>
        <time>2018-11-25T15:05:54.008Z</time>
      </trkpt>
      <trkpt lat="55.465782852843404" lon="12.137136776000261">
        <ele>19.0</ele>
        <time>2018-11-25T15:05:56.442Z</time>
      </trkpt>
      <trkpt lat="55.46562736853957" lon="12.13767715729773">
        <ele>18.0</ele>
        <time>2018-11-25T15:05:58.887Z</time>
      </trkpt>
      <trkpt lat="55.46563466079533" lon="12.137764412909746">
        <ele>18.0</ele>
        <time>2018-11-25T15:06:01.334Z</time>
      </trkpt>
      <trkpt lat="55.46555972658098" lon="12.138318791985512">
        <ele>18.0</ele>
        <time>2018-11-25T15:06:03.792Z</time>
      </trkpt>
      <trkpt lat="55.46548269689083" lon="12.138683907687664">
        <ele>19.0</ele>
        <time>2018-11-25T15:06:06.257Z</time>
      </trkpt>
      <trkpt lat="55.46547532081604" lon="12.139015747234225">
        <ele>20.0</ele>
        <time>2018-11-25T15:06:08.728Z</time>
      </trkpt>
      <trkpt lat="55.46550625003874" lon="12.13924759067595">
        <ele>21.0</ele>
        <time>2018-11-25T15:06:11.204Z</time>
      </trkpt>
      <trkpt lat="55.465428633615375" lon="12.139481445774436">
        <ele>22.0</ele>
        <time>2018-11-25T15:06:13.685Z</time>
      </trkpt>
      <trkpt lat="55.465344144031405" lon="12.13991655036807">
        <ele>23.0</ele>
        <time>2018-11-25T15:06:16.174Z</time>
      </trkpt>
      <trkpt lat="55.46516896225512" lon="12.140233218669891">
        <ele>22.0</ele>
        <time>2018-11-25T15:06:18.672Z</time>
      </trkpt>
      <trkpt lat="55.46513828448951" lon="12.14033673517406">
        <ele>22.0</ele>
        <time>2018-11-25T15:06:21.172Z</time>
      </trkpt>
      <trkpt lat="55.46518757008016" lon="12.140493476763368">
        <ele>23.0</ele>
        <time>2018-11-25T15:06:23.675Z</time>
      </trkpt>
      <trkpt lat="55.46522595919669" lon="12.140531111508608">
        <ele>23.0</ele>
        <time>2018-11-25T15:06:26.180Z</time>
      </trkpt>
      <trkpt lat="55.465245489031076" lon="12.140581822022796">
        <ele>23.0</ele>
        <time>2018-11-25T15:06:28.686Z</time>
      </trkpt>
      <trkpt lat="55.46525755897164" lon="12.140681482851505">
        <ele>24.0</ele>
        <time>2018-11-25T15:06:31.194Z</time>
      </trkpt>
      <trkpt lat="55.465244399383664" lon="12.14079455472529">
        <ele>24.0</ele>
        <time>2018-11-25T15:06:33.704Z</time>
      </trkpt>
      <trkpt lat="55.46528220176697" lon="12.140820203348994">
        <ele>24.0</ele>
        <time>2018-11-25T15:06:36.215Z</time>
      </trkpt>
      <trkpt lat="55.465339701622725" lon="12.14075842872262">
        <ele>24.0</ele>
        <time>2018-11-25T15:06:38.729Z</time>
      </trkpt>
      <trkpt lat="55.465365098789334" lon="12.140678968280554">
        <ele>24.0</ele>
        <time>2018-11-25T15:06:41.244Z</time>
      </trkpt>
      <trkpt lat="55.46538697555661" lon="12.140668155625463">
        <ele>24.0</ele>
        <time>2018-11-25T15:06:43.760Z</time>
      </trkpt>
      <trkpt lat="55.46542947180569" lon="12.140699252486229">
        <ele>24.0</ele>
        <time>2018-11-25T15:06:46.278Z</time>
      </trkpt>
      <trkpt lat="55.46543760225177" lon="12.14069053530693">
        <ele>24.0</ele>
        <time>2018-11-25T15:06:48.796Z</time>
      </trkpt>
      <trkpt lat="55.46547909267247" lon="12.140528596937656">
        <ele>24.0</ele>
        <time>2018-11-25T15:06:51.317Z</time>
      </trkpt>
      <trkpt lat="55.46547666192055" lon="12.140484089031816">
        <ele>24.0</ele>
        <time>2018-11-25T15:06:53.839Z</time>
      </trkpt>
      <trkpt lat="55.46551547013223" lon="12.140444442629814">
        <ele>24.0</ele>
        <time>2018-11-25T15:06:56.363Z</time>
      </trkpt>
      <trkpt lat="55.46563910320401" lon="12.140142526477575">
        <ele>23.0</ele>
        <time>2018-11-25T15:06:58.894Z</time>
      </trkpt>
      <trkpt lat="55.465758964419365" lon="12.139961393550038">
        <ele>22.0</ele>
        <time>2018-11-25T15:07:01.430Z</time>
      </trkpt>
      <trkpt lat="55.46578025445342" lon="12.139892494305968">
        <ele>22.0</ele>
        <time>2018-11-25T15:07:03.967Z</time>
      </trkpt>
      <trkpt lat="55.46591687947512" lon="12.139652017503977">
        <ele>20.0</ele>
        <time>2018-11-25T15:07:06.511Z</time>
      </trkpt>
      <trkpt lat="55.46592534519732" lon="12.13958621956408">
        <ele>20.0</ele>
        <time>2018-11-25T15:07:09.056Z</time>
      </trkpt>
      <trkpt lat="55.46590078622103" lon="12.139440793544054">
        <ele>19.0</ele>
        <time>2018-11-25T15:07:11.604Z</time>
      </trkpt>
      <trkpt lat="55.46589558944106" lon="12.139283968135715">
        <ele>19.0</ele>
        <time>2018-11-25T15:07:14.155Z</time>
      </trkpt>
      <trkpt lat="55.46591755002737" lon="12.139179613441229">
        <ele>19.0</ele>
        <time>2018-11-25T15:07:16.708Z</time>
      </trkpt>
      <trkpt lat="55.46595996245742" lon="12.139109456911683">
        <ele>19.0</ele>
        <time>2018-11-25T15:07:19.263Z</time>
      </trkpt>
      <trkpt lat="55.466064903885126" lon="12.139068217948079">
        <ele>18.0</ele>
        <time>2018-11-25T15:07:21.821Z</time>
      </trkpt>
      <trkpt lat="55.46609700657427" lon="12.13898221962154">
        <ele>18.0</ele>
        <time>2018-11-25T15:07:24.381Z</time>
      </trkpt>
      <trkpt lat="55.46613656915724" lon="12.138752387836576">
        <ele>18.0</ele>
        <time>2018-11-25T15:07:26.946Z</time>
      </trkpt>
      <trkpt lat="55.46615341678262" lon="12.138148471713066">
        <ele>18.0</ele>
        <time>2018-11-25T15:07:29.522Z</time>
      </trkpt>
      <trkpt lat="55.466195326298475" lon="12.137698028236628">
        <ele>18.0</ele>
        <time>2018-11-25T15:07:32.107Z</time>
      </trkpt>
      <trkpt lat="55.466199181973934" lon="12.137311454862356">
        <ele>18.0</ele>
        <time>2018-11-25T15:07:34.699Z</time>
      </trkpt>
      <trkpt lat="55.46629020944238" lon="12.136620869860053">
        <ele>18.0</ele>
        <time>2018-11-25T15:07:37.304Z</time>
      </trkpt>
      <trkpt lat="55.46630261465907" lon="12.136546690016985">
        <ele>18.0</ele>
        <time>2018-11-25T15:07:39.911Z</time>
      </trkpt>
      <trkpt lat="55.466321893036366" lon="12.136529926210642">
        <ele>18.0</ele>
        <time>2018-11-25T15:07:42.519Z</time>
      </trkpt>
      <trkpt lat="55.466337986290455" lon="12.136466139927506">
        <ele>18.0</ele>
        <time>2018-11-25T15:07:45.128Z</time>
      </trkpt>
      <trkpt lat="55.46637143008411" lon="12.13623664341867">
        <ele>19.0</ele>
        <time>2018-11-25T15:07:47.741Z</time>
      </trkpt>
      <trkpt lat="55.46638760715723" lon="12.136194566264749">
        <ele>19.0</ele>
        <time>2018-11-25T15:07:50.355Z</time>
      </trkpt>
      <trkpt lat="55.466615092009306" lon="12.135886196047068">
        <ele>20.0</ele>
        <time>2018-11-25T15:07:52.979Z</time>
      </trkpt>
      <trkpt lat="55.46671835705638" lon="12.135788463056087">
        <ele>20.0</ele>
        <time>2018-11-25T15:07:55.607Z</time>
      </trkpt>
      <trkpt lat="55.46675783582032" lon="12.135780835524201">
        <ele>20.0</ele>
        <time>2018-11-25T15:07:58.236Z</time>
      </trkpt>
      <trkpt lat="55.46691323630512" lon="12.135632308200002">
        <ele>21.0</ele>
        <time>2018-11-25T15:08:00.871Z</time>
      </trkpt>
      <trkpt lat="55.46699454076588" lon="12.135519487783313">
        <ele>21.0</ele>
        <time>2018-11-25T15:08:03.509Z</time>
      </trkpt>
      <trkpt lat="55.46703225933015" lon="12.135411193594337">
        <ele>22.0</ele>
        <time>2018-11-25T15:08:06.150Z</time>
      </trkpt>
      <trkpt lat="55.46703645028174" lon="12.135322596877813">
        <ele>22.0</ele>
        <time>2018-11-25T15:08:08.792Z</time>
      </trkpt>
      <trkpt lat="55.466998564079404" lon="12.135007353499532">
        <ele>24.0</ele>
        <time>2018-11-25T15:08:11.440Z</time>
      </trkpt>
      <trkpt lat="55.4670040961355" lon="12.13484013453126">
        <ele>24.0</ele>
        <time>2018-11-25T15:08:14.092Z</time>
      </trkpt>
      <trkpt lat="55.466979620978236" lon="12.134680291637778">
        <ele>25.0</ele>
        <time>2018-11-25T15:08:16.747Z</time>
      </trkpt>
      <trkpt lat="55.46691474504769" lon="12.134469486773014">
        <ele>25.0</ele>
        <time>2018-11-25T15:08:19.406Z</time>
      </trkpt>
      <trkpt lat="55.46687333844602" lon="12.133728610351682">
        <ele>27.0</ele>
        <time>2018-11-25T15:08:22.079Z</time>
      </trkpt>
      <trkpt lat="55.466783065348864" lon="12.133535323664546">
        <ele>28.0</ele>
        <time>2018-11-25T15:08:24.757Z</time>
      </trkpt>
      <trkpt lat="55.466745011508465" lon="12.133504478260875">
        <ele>28.0</ele>
        <time>2018-11-25T15:08:27.436Z</time>
      </trkpt>
      <trkpt lat="55.466686422005296" lon="12.133489223197103">
        <ele>28.0</ele>
        <time>2018-11-25T15:08:30.117Z</time>
      </trkpt>
      <trkpt lat="55.466588689014316" lon="12.13336450047791">
        <ele>28.0</ele>
        <time>2018-11-25T15:08:32.802Z</time>
      </trkpt>
      <trkpt lat="55.466533871367574" lon="12.1333546936512">
        <ele>28.0</ele>
        <time>2018-11-25T15:08:35.489Z</time>
      </trkpt>
      <trkpt lat="55.466451393440366" lon="12.13329266756773">
        <ele>28.0</ele>
        <time>2018-11-25T15:08:38.179Z</time>
      </trkpt>
      <trkpt lat="55.46643094159663" lon="12.133300881832838">
        <ele>28.0</ele>
        <time>2018-11-25T15:08:40.870Z</time>
      </trkpt>
      <trkpt lat="55.46632256358862" lon="12.133214715868235">
        <ele>28.0</ele>
        <time>2018-11-25T15:08:43.565Z</time>
      </trkpt>
      <trkpt lat="55.4662699252367" lon="12.133221589028835">
        <ele>28.0</ele>
        <time>2018-11-25T15:08:46.261Z</time>
      </trkpt>
      <trkpt lat="55.46623354777694" lon="12.133287219330668">
        <ele>28.0</ele>
        <time>2018-11-25T15:08:48.959Z</time>
      </trkpt>
      <trkpt lat="55.46614830382168" lon="12.133243130519986">
        <ele>27.0</ele>
        <time>2018-11-25T15:08:51.660Z</time>
      </trkpt>
      <trkpt lat="55.46610086224973" lon="12.133245561271906">
        <ele>26.0</ele>
        <time>2018-11-25T15:08:54.363Z</time>
      </trkpt>
      <trkpt lat="55.46606331132352" lon="12.133431974798441">
        <ele>26.0</ele>
        <time>2018-11-25T15:08:57.069Z</time>
      </trkpt>
      <trkpt lat="55.46601855196059" lon="12.133559379726648">
        <ele>26.0</ele>
        <time>2018-11-25T15:08:59.778Z</time>
      </trkpt>
      <trkpt lat="55.46599474735558" lon="12.133568013086915">
        <ele>25.0</ele>
        <time>2018-11-25T15:09:02.488Z</time>
      </trkpt>
      <trkpt lat="55.465972451493144" lon="12.133549489080906">
        <ele>25.0</ele>
        <time>2018-11-25T15:09:05.199Z</time>
      </trkpt>
      <trkpt lat="55.46591562218964" lon="12.133572790771723">
        <ele>25.0</ele>
        <time>2018-11-25T15:09:07.912Z</time>
      </trkpt>
      <trkpt lat="55.46576030552387" lon="12.133774794638157">
        <ele>24.0</ele>
        <time>2018-11-25T15:09:10.631Z</time>
      </trkpt>
      <trkpt lat="55.46571638435125" lon="12.133936481550336">
        <ele>24.0</ele>
        <time>2018-11-25T15:09:13.354Z</time>
      </trkpt>
      <trkpt lat="55.46571177430451" lon="12.134049469605088">
        <ele>24.0</ele>
        <time>2018-11-25T15:09:16.079Z</time>
      </trkpt>
      <trkpt lat="55.465758461505175" lon="12.134275026619434">
        <ele>24.0</ele>
        <time>2018-11-25T15:09:18.808Z</time>
      </trkpt>
      <trkpt lat="55.46580255031586" lon="12.134391870349646">
        <ele>24.0</ele>
        <time>2018-11-25T15:09:21.540Z</time>
      </trkpt>
      <trkpt lat="55.465766340494156" lon="12.134629497304559">
        <ele>25.0</ele>
        <time>2018-11-25T15:09:24.276Z</time>
      </trkpt>
      <trkpt lat="55.46575251035392" lon="12.134665958583355">
        <ele>25.0</ele>
        <time>2018-11-25T15:09:27.013Z</time>
      </trkpt>
      <trkpt lat="55.46572149731219" lon="12.134622959420085">
        <ele>25.0</ele>
        <time>2018-11-25T15:09:29.752Z</time>
      </trkpt>
      <trkpt lat="55.465712109580636" lon="12.134634107351303">
        <ele>25.0</ele>
        <time>2018-11-25T15:09:32.491Z</time>
      </trkpt>
      <trkpt lat="55.46569970436394" lon="12.134622791782022">
        <ele>25.0</ele>
        <time>2018-11-25T15:09:35.230Z</time>
      </trkpt>
      <trkpt lat="55.465638265013695" lon="12.134811552241445">
        <ele>25.0</ele>
        <time>2018-11-25T15:09:37.974Z</time>
      </trkpt>
      <trkpt lat="55.465522510930896" lon="12.134951613843441">
        <ele>25.0</ele>
        <time>2018-11-25T15:09:40.722Z</time>
      </trkpt>
      <trkpt lat="55.465456042438745" lon="12.13499846868217">
        <ele>25.0</ele>
        <time>2018-11-25T15:09:43.473Z</time>
      </trkpt>
      <trkpt lat="55.465435925871134" lon="12.135135428979993">
        <ele>24.0</ele>
        <time>2018-11-25T15:09:46.226Z</time>
      </trkpt>
      <trkpt lat="55.465349005535245" lon="12.135356795042753">
        <ele>22.0</ele>
        <time>2018-11-25T15:09:48.984Z</time>
      </trkpt>
      <trkpt lat="55.46533802524209" lon="12.13547439314425">
        <ele>21.0</ele>
        <time>2018-11-25T15:09:51.745Z</time>
      </trkpt>
      <trkpt lat="55.46529955230653" lon="12.135588303208351">
        <ele>20.0</ele>
        <time>2018-11-25T15:09:54.508Z</time>
      </trkpt>
      <trkpt lat="55.46529167331755" lon="12.135775471106172">
        <ele>21.0</ele>
        <time>2018-11-25T15:09:57.275Z</time>
      </trkpt>
      <trkpt lat="55.46531489118934" lon="12.135878736153245">
        <ele>21.0</ele>
        <time>2018-11-25T15:10:00.044Z</time>
      </trkpt>
      <trkpt lat="55.465342216193676" lon="12.135914359241724">
        <ele>21.0</ele>
        <time>2018-11-25T15:10:02.814Z</time>
      </trkpt>
      <trkpt lat="55.46534288674593" lon="12.13601041585207">
        <ele>20.0</ele>
        <time>2018-11-25T15:10:05.586Z</time>
      </trkpt>
      <trkpt lat="55.465329475700855" lon="12.136055761948228">
        <ele>20.0</ele>
        <time>2018-11-25T15:10:08.359Z</time>
      </trkpt>
      <trkpt lat="55.4652719758451" lon="12.136087780818343">
        <ele>19.0</ele>
        <time>2018-11-25T15:10:11.134Z</time>
      </trkpt>
      <trkpt lat="55.46524892561138" lon="12.136123571544886">
        <ele>19.0</ele>
        <time>2018-11-25T15:10:13.910Z</time>
      </trkpt>
      <trkpt lat="55.465218499302864" lon="12.136122230440378">
        <ele>19.0</ele>
        <time>2018-11-25T15:10:16.687Z</time>
      </trkpt>
      <trkpt lat="55.465193688869476" lon="12.136167325079441">
        <ele>19.0</ele>
        <time>2018-11-25T15:10:19.465Z</time>
      </trkpt>
      <trkpt lat="55.465166699141264" lon="12.136355582624674">
        <ele>18.0</ele>
        <time>2018-11-25T15:10:22.246Z</time>
      </trkpt>
      <trkpt lat="55.46514289453626" lon="12.136422554031014">
        <ele>18.0</ele>
        <time>2018-11-25T15:10:25.029Z</time>
      </trkpt>
      <trkpt lat="55.46514842659235" lon="12.13647946715355">
        <ele>19.0</ele>
        <time>2018-11-25T15:10:27.813Z</time>
      </trkpt>
      <trkpt lat="55.46519486233592" lon="12.136599328368902">
        <ele>19.0</ele>
        <time>2018-11-25T15:10:30.600Z</time>
      </trkpt>
      <trkpt lat="55.465209782123566" lon="12.13678632862866">
        <ele>19.0</ele>
        <time>2018-11-25T15:10:33.390Z</time>
      </trkpt>
      <trkpt lat="55.46515136025846" lon="12.137138955295086">
        <ele>19.0</ele>
        <time>2018-11-25T15:10:36.187Z</time>
      </trkpt>
      <trkpt lat="55.46516250818968" lon="12.137302737683058">
        <ele>19.0</ele>
        <time>2018-11-25T15:10:38.987Z</time>
      </trkpt>
      <trkpt lat="55.46515295282006" lon="12.137375827878714">
        <ele>19.0</ele>
        <time>2018-11-25T15:10:41.789Z</time>
      </trkpt>
      <trkpt lat="55.46510794200003" lon="12.137456210330129">
        <ele>18.0</ele>
        <time>2018-11-25T15:10:44.593Z</time>
      </trkpt>
      <trkpt lat="55.46509721316397" lon="12.137725101783872">
        <ele>18.0</ele>
        <time>2018-11-25T15:10:47.402Z</time>
      </trkpt>
      <trkpt lat="55.46508095227182" lon="12.137787798419595">
        <ele>18.0</ele>
        <time>2018-11-25T15:10:50.212Z</time>
      </trkpt>
      <trkpt lat="55.465027475729585" lon="12.137857787311077">
        <ele>18.0</ele>
        <time>2018-11-25T15:10:53.024Z</time>
      </trkpt>
      <trkpt lat="55.465005515143275" lon="12.137949485331774">
        <ele>18.0</ele>
        <time>2018-11-25T15:10:55.838Z</time>
      </trkpt>
      <trkpt lat="55.464980034157634" lon="12.138093654066324">
        <ele>18.0</ele>
        <time>2018-11-25T15:10:58.655Z</time>
      </trkpt>
      <trkpt lat="55.46499788761139" lon="12.138167330995202">
        <ele>18.0</ele>
        <time>2018-11-25T15:11:01.474Z</time>
      </trkpt>
      <trkpt lat="55.4649921040982" lon="12.13824494741857">
        <ele>18.0</ele>
        <time>2018-11-25T15:11:04.294Z</time>
      </trkpt>
      <trkpt lat="55.464886827394366" lon="12.13859774172306">
        <ele>19.0</ele>
        <time>2018-11-25T15:11:07.122Z</time>
      </trkpt>
      <trkpt lat="55.464899484068155" lon="12.138893203809857">
        <ele>19.0</ele>
        <time>2018-11-25T15:11:09.955Z</time>
      </trkpt>
      <trkpt lat="55.46487048268318" lon="12.139130411669612">
        <ele>19.0</ele>
        <time>2018-11-25T15:11:12.793Z</time>
      </trkpt>
      <trkpt lat="55.46487484127283" lon="12.139329062774777">
        <ele>20.0</ele>
        <time>2018-11-25T15:11:15.634Z</time>
      </trkpt>
      <trkpt lat="55.46484416350722" lon="12.13947532698512">
        <ele>20.0</ele>
        <time>2018-11-25T15:11:18.478Z</time>
      </trkpt>
      <trkpt lat="55.46482723206282" lon="12.139728711917996">
        <ele>20.0</ele>
        <time>2018-11-25T15:11:21.327Z</time>
      </trkpt>
      <trkpt lat="55.46484760008752" lon="12.140130875632167">
        <ele>21.0</ele>
        <time>2018-11-25T15:11:24.184Z</time>
      </trkpt>
      <trkpt lat="55.46482438221574" lon="12.140160044655204">
        <ele>21.0</ele>
        <time>2018-11-25T15:11:27.042Z</time>
      </trkpt>
      <trkpt lat="55.46474919654429" lon="12.140186447650194">
        <ele>21.0</ele>
        <time>2018-11-25T15:11:29.902Z</time>
      </trkpt>
      <trkpt lat="55.46469404362142" lon="12.140235314145684">
        <ele>21.0</ele>
        <time>2018-11-25T15:11:32.764Z</time>
      </trkpt>
      <trkpt lat="55.464669149369" lon="12.140347128733993">
        <ele>21.0</ele>
        <time>2018-11-25T15:11:35.629Z</time>
      </trkpt>
      <trkpt lat="55.46467795036733" lon="12.140486687421799">
        <ele>22.0</ele>
        <time>2018-11-25T15:11:38.496Z</time>
      </trkpt>
      <trkpt lat="55.46465867199004" lon="12.140635633841157">
        <ele>22.0</ele>
        <time>2018-11-25T15:11:41.366Z</time>
      </trkpt>
      <trkpt lat="55.46466135419905" lon="12.14082833379507">
        <ele>23.0</ele>
        <time>2018-11-25T15:11:44.240Z</time>
      </trkpt>
      <trkpt lat="55.464716255664825" lon="12.141072079539299">
        <ele>24.0</ele>
        <time>2018-11-25T15:11:47.119Z</time>
      </trkpt>
      <trkpt lat="55.46470636501908" lon="12.141174087300897">
        <ele>24.0</ele>
        <time>2018-11-25T15:11:50.000Z</time>
      </trkpt>
      <trkpt lat="55.46472220681608" lon="12.141263270750642">
        <ele>25.0</ele>
        <time>2018-11-25T15:11:52.882Z</time>
      </trkpt>
      <trkpt lat="55.464657079428434" lon="12.141365194693208">
        <ele>25.0</ele>
        <time>2018-11-25T15:11:55.767Z</time>
      </trkpt>
      <trkpt lat="55.464621372520924" lon="12.141502993181348">
        <ele>25.0</ele>
        <time>2018-11-25T15:11:58.655Z</time>
      </trkpt>
      <trkpt lat="55.464575439691544" lon="12.141880011186004">
        <ele>24.0</ele>
        <time>2018-11-25T15:12:01.550Z</time>
      </trkpt>
      <trkpt lat="55.464597065001726" lon="12.142011942341924">
        <ele>24.0</ele>
        <time>2018-11-25T15:12:04.448Z</time>
      </trkpt>
      <trkpt lat="55.46461927704513" lon="12.14206013828516">
        <ele>25.0</ele>
        <time>2018-11-25T15:12:07.347Z</time>
      </trkpt>
      <trkpt lat="55.464619528502226" lon="12.142042955383658">
        <ele>25.0</ele>
        <time>2018-11-25T15:12:10.246Z</time>
      </trkpt>
      <trkpt lat="55.464644422754645" lon="12.142067765817046">
        <ele>25.0</ele>
        <time>2018-11-25T15:12:13.146Z</time>
      </trkpt>
      <trkpt lat="55.46464308165014" lon="12.142103724181652">
        <ele>25.0</ele>
        <time>2018-11-25T15:12:16.047Z</time>
      </trkpt>
      <trkpt lat="55.4646728374064" lon="12.142166253179312">
        <ele>25.0</ele>
        <time>2018-11-25T15:12:18.950Z</time>
      </trkpt>
      <trkpt lat="55.46471172943711" lon="12.142199696972966">
        <ele>25.0</ele>
        <time>2018-11-25T15:12:21.854Z</time>
      </trkpt>
      <trkpt lat="55.46476009301841" lon="12.142388792708516">
        <ele>25.0</ele>
        <time>2018-11-25T15:12:24.762Z</time>
      </trkpt>
      <trkpt lat="55.464786160737276" lon="12.142771258950233">
        <ele>23.0</ele>
        <time>2018-11-25T15:12:27.677Z</time>
      </trkpt>
      <trkpt lat="55.46477006748319" lon="12.142841247841716">
        <ele>23.0</ele>
        <time>2018-11-25T15:12:30.594Z</time>
      </trkpt>
      <trkpt lat="55.4647280741483" lon="12.14283563196659">
        <ele>23.0</ele>
        <time>2018-11-25T15:12:33.512Z</time>
      </trkpt>
      <trkpt lat="55.464676106348634" lon="12.142864800989628">
        <ele>23.0</ele>
        <time>2018-11-25T15:12:36.432Z</time>
      </trkpt>
      <trkpt lat="55.464642494916916" lon="12.142963288351893">
        <ele>22.0</ele>
        <time>2018-11-25T15:12:39.354Z</time>
      </trkpt>
      <trkpt lat="55.46465649269521" lon="12.143010813742876">
        <ele>22.0</ele>
        <time>2018-11-25T15:12:42.277Z</time>
      </trkpt>
      <trkpt lat="55.46467233449221" lon="12.142999665811658">
        <ele>22.0</ele>
        <time>2018-11-25T15:12:45.201Z</time>
      </trkpt>
      <trkpt lat="55.464683985337615" lon="12.143083903938532">
        <ele>22.0</ele>
        <time>2018-11-25T15:12:48.126Z</time>
      </trkpt>
      <trkpt lat="55.46466336585581" lon="12.143175099045038">
        <ele>22.0</ele>
        <time>2018-11-25T15:12:51.053Z</time>
      </trkpt>
      <trkpt lat="55.464633693918586" lon="12.143609700724483">
        <ele>21.0</ele>
        <time>2018-11-25T15:12:53.988Z</time>
      </trkpt>
      <trkpt lat="55.4645602684468" lon="12.143946988508105">
        <ele>19.0</ele>
        <time>2018-11-25T15:12:56.930Z</time>
      </trkpt>
      <trkpt lat="55.464559430256486" lon="12.144282096996903">
        <ele>19.0</ele>
        <time>2018-11-25T15:12:59.878Z</time>
      </trkpt>
      <trkpt lat="55.46454853378236" lon="12.14435183443129">
        <ele>19.0</ele>
        <time>2018-11-25T15:13:02.828Z</time>
      </trkpt>
      <trkpt lat="55.464415680617094" lon="12.14473094791174">
        <ele>17.0</ele>
        <time>2018-11-25T15:13:05.786Z</time>
      </trkpt>
      <trkpt lat="55.46438902616501" lon="12.145113330334425">
        <ele>18.0</ele>
        <time>2018-11-25T15:13:08.751Z</time>
      </trkpt>
      <trkpt lat="55.464349798858166" lon="12.145264288410544">
        <ele>18.0</ele>
        <time>2018-11-25T15:13:11.719Z</time>
      </trkpt>
      <trkpt lat="55.46429925598204" lon="12.145590092986822">
        <ele>18.0</ele>
        <time>2018-11-25T15:13:14.694Z</time>
      </trkpt>
      <trkpt lat="55.46429581940174" lon="12.145747756585479">
        <ele>18.0</ele>
        <time>2018-11-25T15:13:17.672Z</time>
      </trkpt>
      <trkpt lat="55.46427117660642" lon="12.145793102681637">
        <ele>18.0</ele>
        <time>2018-11-25T15:13:20.651Z</time>
      </trkpt>
      <trkpt lat="55.46423270367086" lon="12.145988652482629">
        <ele>18.0</ele>
        <time>2018-11-25T15:13:23.634Z</time>
      </trkpt>
      <trkpt lat="55.46423815190792" lon="12.146218903362751">
        <ele>19.0</ele>
        <time>2018-11-25T15:13:26.621Z</time>
      </trkpt>
      <trkpt lat="55.46422046609223" lon="12.146334405988455">
        <ele>19.0</ele>
        <time>2018-11-25T15:13:29.610Z</time>
      </trkpt>
      <trkpt lat="55.4641633015126" lon="12.146452171728015">
        <ele>19.0</ele>
        <time>2018-11-25T15:13:32.602Z</time>
      </trkpt>
      <trkpt lat="55.46415592543781" lon="12.146535236388445">
        <ele>19.0</ele>
        <time>2018-11-25T15:13:35.596Z</time>
      </trkpt>
      <trkpt lat="55.46417713165283" lon="12.146613774821162">
        <ele>19.0</ele>
        <time>2018-11-25T15:13:38.592Z</time>
      </trkpt>
      <trkpt lat="55.46416883356869" lon="12.146866153925657">
        <ele>19.0</ele>
        <time>2018-11-25T15:13:41.592Z</time>
      </trkpt>
      <trkpt lat="55.46418878249824" lon="12.146963132545352">
        <ele>19.0</ele>
        <time>2018-11-25T15:13:44.594Z</time>
      </trkpt>
      <trkpt lat="55.46412080526352" lon="12.14720000512898">
        <ele>19.0</ele>
        <time>2018-11-25T15:13:47.601Z</time>
      </trkpt>
      <trkpt lat="55.46410672366619" lon="12.14730896987021">
        <ele>19.0</ele>
        <time>2018-11-25T15:13:50.610Z</time>
      </trkpt>
      <trkpt lat="55.46413882635534" lon="12.147500244900584">
        <ele>19.0</ele>
        <time>2018-11-25T15:13:53.623Z</time>
      </trkpt>
      <trkpt lat="55.4641165304929" lon="12.147543579339981">
        <ele>19.0</ele>
        <time>2018-11-25T15:13:56.637Z</time>
      </trkpt>
      <trkpt lat="55.4641339648515" lon="12.14761926792562">
        <ele>19.0</ele>
        <time>2018-11-25T15:13:59.653Z</time>
      </trkpt>
      <trkpt lat="55.46410957351327" lon="12.147937528789043">
        <ele>19.0</ele>
        <time>2018-11-25T15:14:02.675Z</time>
      </trkpt>
      <trkpt lat="55.46414041891694" lon="12.148031070828438">
        <ele>20.0</ele>
        <time>2018-11-25T15:14:05.699Z</time>
      </trkpt>
      <trkpt lat="55.46416866593063" lon="12.148299543187022">
        <ele>20.0</ele>
        <time>2018-11-25T15:14:08.728Z</time>
      </trkpt>
      <trkpt lat="55.4641321208328" lon="12.148454105481505">
        <ele>20.0</ele>
        <time>2018-11-25T15:14:11.760Z</time>
      </trkpt>
      <trkpt lat="55.46404545195401" lon="12.148612942546606">
        <ele>20.0</ele>
        <time>2018-11-25T15:14:14.796Z</time>
      </trkpt>
      <trkpt lat="55.464028185233474" lon="12.148702377453446">
        <ele>20.0</ele>
        <time>2018-11-25T15:14:17.834Z</time>
      </trkpt>
      <trkpt lat="55.46403044834733" lon="12.148866578936577">
        <ele>20.0</ele>
        <time>2018-11-25T15:14:20.875Z</time>
      </trkpt>
      <trkpt lat="55.463975463062525" lon="12.149149803444743">
        <ele>20.0</ele>
        <time>2018-11-25T15:14:23.922Z</time>
      </trkpt>
      <trkpt lat="55.46400178223848" lon="12.149333534762263">
        <ele>20.0</ele>
        <time>2018-11-25T15:14:26.972Z</time>
      </trkpt>
      <trkpt lat="55.46394931152463" lon="12.149713318794966">
        <ele>21.0</ele>
        <time>2018-11-25T15:14:30.030Z</time>
      </trkpt>
      <trkpt lat="55.46397336758673" lon="12.149798814207315">
        <ele>21.0</ele>
        <time>2018-11-25T15:14:33.090Z</time>
      </trkpt>
      <trkpt lat="55.463943276554346" lon="12.149962093681097">
        <ele>21.0</ele>
        <time>2018-11-25T15:14:36.153Z</time>
      </trkpt>
      <trkpt lat="55.463947551324964" lon="12.150315139442682">
        <ele>20.0</ele>
        <time>2018-11-25T15:14:39.222Z</time>
      </trkpt>
      <trkpt lat="55.464048301801085" lon="12.15058478526771">
        <ele>19.0</ele>
        <time>2018-11-25T15:14:42.297Z</time>
      </trkpt>
      <trkpt lat="55.46409842558205" lon="12.150635244324803">
        <ele>19.0</ele>
        <time>2018-11-25T15:14:45.374Z</time>
      </trkpt>
      <trkpt lat="55.464106975123286" lon="12.15082417242229">
        <ele>19.0</ele>
        <time>2018-11-25T15:14:48.455Z</time>
      </trkpt>
      <trkpt lat="55.464166486635804" lon="12.15103330090642">
        <ele>18.0</ele>
        <time>2018-11-25T15:14:51.540Z</time>
      </trkpt>
      <trkpt lat="55.4642082285136" lon="12.151137487962842">
        <ele>18.0</ele>
        <time>2018-11-25T15:14:54.628Z</time>
      </trkpt>
      <trkpt lat="55.46428073197603" lon="12.151218205690384">
        <ele>17.0</ele>
        <time>2018-11-25T15:14:57.719Z</time>
      </trkpt>
      <trkpt lat="55.46431275084615" lon="12.15123362839222">
        <ele>17.0</ele>
        <time>2018-11-25T15:15:00.811Z</time>
      </trkpt>
      <trkpt lat="55.46431585215032" lon="12.151334043592215">
        <ele>17.0</ele>
        <time>2018-11-25T15:15:03.905Z</time>
      </trkpt>
      <trkpt lat="55.46427335590124" lon="12.151483576744795">
        <ele>17.0</ele>
        <time>2018-11-25T15:15:07.002Z</time>
      </trkpt>
      <trkpt lat="55.46415793709457" lon="12.151601761579514">
        <ele>17.0</ele>
        <time>2018-11-25T15:15:10.103Z</time>
      </trkpt>
      <trkpt lat="55.46407110057771" lon="12.151633445173502">
        <ele>16.0</ele>
        <time>2018-11-25T15:15:13.207Z</time>
      </trkpt>
      <trkpt lat="55.46401435509324" lon="12.151736039668322">
        <ele>16.0</ele>
        <time>2018-11-25T15:15:16.314Z</time>
      </trkpt>
      <trkpt lat="55.464012678712606" lon="12.15202135965228">
        <ele>15.0</ele>
        <time>2018-11-25T15:15:19.426Z</time>
      </trkpt>
      <trkpt lat="55.46397998929024" lon="12.152314223349094">
        <ele>14.0</ele>
        <time>2018-11-25T15:15:22.544Z</time>
      </trkpt>
      <trkpt lat="55.463939839974046" lon="12.15247230604291">
        <ele>14.0</ele>
        <time>2018-11-25T15:15:25.665Z</time>
      </trkpt>
      <trkpt lat="55.463939253240824" lon="12.15266634710133">
        <ele>13.0</ele>
        <time>2018-11-25T15:15:28.790Z</time>
      </trkpt>
      <trkpt lat="55.46402600593865" lon="12.153266910463572">
        <ele>11.0</ele>
        <time>2018-11-25T15:15:31.926Z</time>
      </trkpt>
      <trkpt lat="55.464011086151004" lon="12.153739146888256">
        <ele>12.0</ele>
        <time>2018-11-25T15:15:35.071Z</time>
      </trkpt>
      <trkpt lat="55.463937828317285" lon="12.154206102713943">
        <ele>13.0</ele>
        <time>2018-11-25T15:15:38.225Z</time>
      </trkpt>
      <trkpt lat="55.46391838230193" lon="12.154500810429454">
        <ele>13.0</ele>
        <time>2018-11-25T15:15:41.385Z</time>
      </trkpt>
      <trkpt lat="55.46382995322347" lon="12.154905153438449">
        <ele>13.0</ele>
        <time>2018-11-25T15:15:44.553Z</time>
      </trkpt>
      <trkpt lat="55.46376700513065" lon="12.15538409538567">
        <ele>13.0</ele>
        <time>2018-11-25T15:15:47.730Z</time>
      </trkpt>
      <trkpt lat="55.46375149860978" lon="12.155759101733565">
        <ele>14.0</ele>
        <time>2018-11-25T15:15:50.914Z</time>
      </trkpt>
      <trkpt lat="55.46364052221179" lon="12.156726624816656">
        <ele>14.0</ele>
        <time>2018-11-25T15:15:54.117Z</time>
      </trkpt>
      <trkpt lat="55.46356542035937" lon="12.156886719167233">
        <ele>13.0</ele>
        <time>2018-11-25T15:15:57.324Z</time>
      </trkpt>
      <trkpt lat="55.46347388997674" lon="12.157169608399272">
        <ele>11.0</ele>
        <time>2018-11-25T15:16:00.537Z</time>
      </trkpt>
      <trkpt lat="55.463445307686925" lon="12.15721394866705">
        <ele>11.0</ele>
        <time>2018-11-25T15:16:03.751Z</time>
      </trkpt>
      <trkpt lat="55.46336802653968" lon="12.157503627240658">
        <ele>11.0</ele>
        <time>2018-11-25T15:16:06.971Z</time>
      </trkpt>
      <trkpt lat="55.46332913450897" lon="12.157765058800578">
        <ele>10.0</ele>
        <time>2018-11-25T15:16:10.196Z</time>
      </trkpt>
      <trkpt lat="55.46320801600814" lon="12.15816730633378">
        <ele>12.0</ele>
        <time>2018-11-25T15:16:13.430Z</time>
      </trkpt>
      <trkpt lat="55.46316015534103" lon="12.158541977405548">
        <ele>12.0</ele>
        <time>2018-11-25T15:16:16.671Z</time>
      </trkpt>
      <trkpt lat="55.463115479797125" lon="12.158682374283671">
        <ele>12.0</ele>
        <time>2018-11-25T15:16:19.915Z</time>
      </trkpt>
      <trkpt lat="55.46314456500113" lon="12.158791841939092">
        <ele>12.0</ele>
        <time>2018-11-25T15:16:23.161Z</time>
      </trkpt>
      <trkpt lat="55.463138446211815" lon="12.158899633213878">
        <ele>12.0</ele>
        <time>2018-11-25T15:16:26.410Z</time>
      </trkpt>
      <trkpt lat="55.46315814368427" lon="12.158999796956778">
        <ele>11.0</ele>
        <time>2018-11-25T15:16:29.661Z</time>
      </trkpt>
      <trkpt lat="55.46318035572767" lon="12.15900239534676">
        <ele>11.0</ele>
        <time>2018-11-25T15:16:32.912Z</time>
      </trkpt>
      <trkpt lat="55.46320994384587" lon="12.158958641812205">
        <ele>11.0</ele>
        <time>2018-11-25T15:16:36.165Z</time>
      </trkpt>
      <trkpt lat="55.46320566907525" lon="12.158876918256283">
        <ele>11.0</ele>
        <time>2018-11-25T15:16:39.419Z</time>
      </trkpt>
      <trkpt lat="55.463223522529006" lon="12.158819334581494">
        <ele>11.0</ele>
        <time>2018-11-25T15:16:42.674Z</time>
      </trkpt>
      <trkpt lat="55.4633220937103" lon="12.158642141148448">
        <ele>10.0</ele>
        <time>2018-11-25T15:16:45.934Z</time>
      </trkpt>
      <trkpt lat="55.46334329992533" lon="12.158540468662977">
        <ele>10.0</ele>
        <time>2018-11-25T15:16:49.196Z</time>
      </trkpt>
      <trkpt lat="55.46339225023985" lon="12.158443070948124">
        <ele>10.0</ele>
        <time>2018-11-25T15:16:52.460Z</time>
      </trkpt>
      <trkpt lat="55.463394513353705" lon="12.15836025774479">
        <ele>10.0</ele>
        <time>2018-11-25T15:16:55.726Z</time>
      </trkpt>
      <trkpt lat="55.46341186389327" lon="12.158313654363155">
        <ele>10.0</ele>
        <time>2018-11-25T15:16:58.993Z</time>
      </trkpt>
      <trkpt lat="55.4637037217617" lon="12.157688364386559">
        <ele>9.0</ele>
        <time>2018-11-25T15:17:02.275Z</time>
      </trkpt>
      <trkpt lat="55.463859206065536" lon="12.157263904809952">
        <ele>11.0</ele>
        <time>2018-11-25T15:17:05.567Z</time>
      </trkpt>
      <trkpt lat="55.4639576934278" lon="12.156891077756882">
        <ele>13.0</ele>
        <time>2018-11-25T15:17:08.867Z</time>
      </trkpt>
      <trkpt lat="55.4640166182071" lon="12.15650056488812">
        <ele>14.0</ele>
        <time>2018-11-25T15:17:12.174Z</time>
      </trkpt>
      <trkpt lat="55.46411451883614" lon="12.156166797503829">
        <ele>13.0</ele>
        <time>2018-11-25T15:17:15.488Z</time>
      </trkpt>
      <trkpt lat="55.46412633731961" lon="12.155950460582972">
        <ele>14.0</ele>
        <time>2018-11-25T15:17:18.806Z</time>
      </trkpt>
      <trkpt lat="55.464171348139644" lon="12.155735800042748">
        <ele>14.0</ele>
        <time>2018-11-25T15:17:22.129Z</time>
      </trkpt>
      <trkpt lat="55.46416321769357" lon="12.154979417100549">
        <ele>14.0</ele>
        <time>2018-11-25T15:17:25.466Z</time>
      </trkpt>
      <trkpt lat="55.4641873575747" lon="12.1548524312675">
        <ele>14.0</ele>
        <time>2018-11-25T15:17:28.805Z</time>
      </trkpt>
      <trkpt lat="55.464180149137974" lon="12.154432833194733">
        <ele>14.0</ele>
        <time>2018-11-25T15:17:32.152Z</time>
      </trkpt>
      <trkpt lat="55.46415600925684" lon="12.15434960089624">
        <ele>13.0</ele>
        <time>2018-11-25T15:17:35.501Z</time>
      </trkpt>
      <trkpt lat="55.464152907952666" lon="12.15425580739975">
        <ele>13.0</ele>
        <time>2018-11-25T15:17:38.852Z</time>
      </trkpt>
      <trkpt lat="55.46416665427387" lon="12.154047517105937">
        <ele>12.0</ele>
        <time>2018-11-25T15:17:42.207Z</time>
      </trkpt>
      <trkpt lat="55.4641942307353" lon="12.153983898460865">
        <ele>12.0</ele>
        <time>2018-11-25T15:17:45.563Z</time>
      </trkpt>
      <trkpt lat="55.464155254885554" lon="12.15356295928359">
        <ele>11.0</ele>
        <time>2018-11-25T15:17:48.927Z</time>
      </trkpt>
      <trkpt lat="55.46417025849223" lon="12.152969436720014">
        <ele>11.0</ele>
        <time>2018-11-25T15:17:52.302Z</time>
      </trkpt>
      <trkpt lat="55.46415399760008" lon="12.152573140338063">
        <ele>13.0</ele>
        <time>2018-11-25T15:17:55.685Z</time>
      </trkpt>
      <trkpt lat="55.46417252160609" lon="12.1523795183748">
        <ele>14.0</ele>
        <time>2018-11-25T15:17:59.072Z</time>
      </trkpt>
      <trkpt lat="55.46425533480942" lon="12.152052875608206">
        <ele>14.0</ele>
        <time>2018-11-25T15:18:02.465Z</time>
      </trkpt>
      <trkpt lat="55.46429657377303" lon="12.152051283046603">
        <ele>14.0</ele>
        <time>2018-11-25T15:18:05.860Z</time>
      </trkpt>
      <trkpt lat="55.46429137699306" lon="12.152030747383833">
        <ele>14.0</ele>
        <time>2018-11-25T15:18:09.255Z</time>
      </trkpt>
      <trkpt lat="55.46430847607553" lon="12.152008200064301">
        <ele>15.0</ele>
        <time>2018-11-25T15:18:12.651Z</time>
      </trkpt>
      <trkpt lat="55.46436354517937" lon="12.151985401287675">
        <ele>15.0</ele>
        <time>2018-11-25T15:18:16.049Z</time>
      </trkpt>
      <trkpt lat="55.46447175554931" lon="12.151984982192516">
        <ele>15.0</ele>
        <time>2018-11-25T15:18:19.450Z</time>
      </trkpt>
      <trkpt lat="55.46468323096633" lon="12.152205761522055">
        <ele>14.0</ele>
        <time>2018-11-25T15:18:22.859Z</time>
      </trkpt>
      <trkpt lat="55.46491675078869" lon="12.152357138693333">
        <ele>12.0</ele>
        <time>2018-11-25T15:18:26.277Z</time>
      </trkpt>
      <trkpt lat="55.46501146629453" lon="12.152397288009524">
        <ele>11.0</ele>
        <time>2018-11-25T15:18:29.698Z</time>
      </trkpt>
      <trkpt lat="55.46504256315529" lon="12.152392342686653">
        <ele>11.0</ele>
        <time>2018-11-25T15:18:33.120Z</time>
      </trkpt>
      <trkpt lat="55.46522646211088" lon="12.152509856969118">
        <ele>10.0</ele>
        <time>2018-11-25T15:18:36.548Z</time>
      </trkpt>
      <trkpt lat="55.465646646916866" lon="12.1526765730232">
        <ele>10.0</ele>
        <time>2018-11-25T15:18:39.991Z</time>
      </trkpt>
      <trkpt lat="55.46578855253756" lon="12.152750417590141">
        <ele>12.0</ele>
        <time>2018-11-25T15:18:43.439Z</time>
      </trkpt>
      <trkpt lat="55.46592140570283" lon="12.152860974892974">
        <ele>13.0</ele>
        <time>2018-11-25T15:18:46.891Z</time>
      </trkpt>
      <trkpt lat="55.46605191193521" lon="12.153019644320011">
        <ele>15.0</ele>
        <time>2018-11-25T15:18:50.349Z</time>
      </trkpt>
      <trkpt lat="55.46611871570349" lon="12.153058620169759">
        <ele>15.0</ele>
        <time>2018-11-25T15:18:53.809Z</time>
      </trkpt>
      <trkpt lat="55.4663544986397" lon="12.1533293556422">
        <ele>17.0</ele>
        <time>2018-11-25T15:18:57.278Z</time>
      </trkpt>
      <trkpt lat="55.466408394277096" lon="12.153364308178425">
        <ele>18.0</ele>
        <time>2018-11-25T15:19:00.749Z</time>
      </trkpt>
      <trkpt lat="55.46652976423502" lon="12.153559857979417">
        <ele>17.0</ele>
        <time>2018-11-25T15:19:04.226Z</time>
      </trkpt>
      <trkpt lat="55.46663294546306" lon="12.153649125248194">
        <ele>18.0</ele>
        <time>2018-11-25T15:19:07.707Z</time>
      </trkpt>
      <trkpt lat="55.466692289337516" lon="12.153661111369729">
        <ele>18.0</ele>
        <time>2018-11-25T15:19:11.190Z</time>
      </trkpt>
      <trkpt lat="55.46672229655087" lon="12.153625823557377">
        <ele>18.0</ele>
        <time>2018-11-25T15:19:14.674Z</time>
      </trkpt>
      <trkpt lat="55.466833524405956" lon="12.153578046709299">
        <ele>19.0</ele>
        <time>2018-11-25T15:19:18.162Z</time>
      </trkpt>
      <trkpt lat="55.4669607616961" lon="12.153464891016483">
        <ele>19.0</ele>
        <time>2018-11-25T15:19:21.654Z</time>
      </trkpt>
      <trkpt lat="55.4671076964587" lon="12.153292894363403">
        <ele>20.0</ele>
        <time>2018-11-25T15:19:25.152Z</time>
      </trkpt>
      <trkpt lat="55.467297127470374" lon="12.152974214404821">
        <ele>19.0</ele>
        <time>2018-11-25T15:19:28.659Z</time>
      </trkpt>
      <trkpt lat="55.46735697425902" lon="12.152963569387794">
        <ele>19.0</ele>
        <time>2018-11-25T15:19:32.168Z</time>
      </trkpt>
      <trkpt lat="55.46740097925067" lon="12.152974465861917">
        <ele>18.0</ele>
        <time>2018-11-25T15:19:35.678Z</time>
      </trkpt>
      <trkpt lat="55.467504411935806" lon="12.153037833049893">
        <ele>18.0</ele>
        <time>2018-11-25T15:19:39.192Z</time>
      </trkpt>
      <trkpt lat="55.467645060271025" lon="12.152988212183118">
        <ele>17.0</ele>
        <time>2018-11-25T15:19:42.711Z</time>
      </trkpt>
      <trkpt lat="55.467779003083706" lon="12.152902130037546">
        <ele>16.0</ele>
        <time>2018-11-25T15:19:46.234Z</time>
      </trkpt>
      <trkpt lat="55.467834658920765" lon="12.152886874973774">
        <ele>16.0</ele>
        <time>2018-11-25T15:19:49.759Z</time>
      </trkpt>
      <trkpt lat="55.4681680072099" lon="12.153075467795134">
        <ele>13.0</ele>
        <time>2018-11-25T15:19:53.296Z</time>
      </trkpt>
      <trkpt lat="55.468253921717405" lon="12.153108827769756">
        <ele>12.0</ele>
        <time>2018-11-25T15:19:56.836Z</time>
      </trkpt>
      <trkpt lat="55.46832743100822" lon="12.153190802782774">
        <ele>11.0</ele>
        <time>2018-11-25T15:20:00.379Z</time>
      </trkpt>
      <trkpt lat="55.46835534274578" lon="12.153258696198463">
        <ele>11.0</ele>
        <time>2018-11-25T15:20:03.923Z</time>
      </trkpt>
      <trkpt lat="55.468372609466314" lon="12.153367577120662">
        <ele>11.0</ele>
        <time>2018-11-25T15:20:07.469Z</time>
      </trkpt>
      <trkpt lat="55.468427846208215" lon="12.153428010642529">
        <ele>10.0</ele>
        <time>2018-11-25T15:20:11.017Z</time>
      </trkpt>
      <trkpt lat="55.46834654174745" lon="12.153539657592773">
        <ele>11.0</ele>
        <time>2018-11-25T15:20:14.569Z</time>
      </trkpt>
      <trkpt lat="55.4681521654129" lon="12.153602270409465">
        <ele>13.0</ele>
        <time>2018-11-25T15:20:18.127Z</time>
      </trkpt>
      <trkpt lat="55.467901630327106" lon="12.153656920418143">
        <ele>15.0</ele>
        <time>2018-11-25T15:20:21.694Z</time>
      </trkpt>
      <trkpt lat="55.46770557761192" lon="12.153647197410464">
        <ele>16.0</ele>
        <time>2018-11-25T15:20:25.267Z</time>
      </trkpt>
      <trkpt lat="55.46751329675317" lon="12.153616268187761">
        <ele>17.0</ele>
        <time>2018-11-25T15:20:28.847Z</time>
      </trkpt>
      <trkpt lat="55.46738035976887" lon="12.153551559895277">
        <ele>18.0</ele>
        <time>2018-11-25T15:20:32.431Z</time>
      </trkpt>
      <trkpt lat="55.467311376705766" lon="12.15349456295371">
        <ele>19.0</ele>
        <time>2018-11-25T15:20:36.018Z</time>
      </trkpt>
      <trkpt lat="55.467135440558195" lon="12.153474111109972">
        <ele>20.0</ele>
        <time>2018-11-25T15:20:39.611Z</time>
      </trkpt>
      <trkpt lat="55.46698867343366" lon="12.153405044227839">
        <ele>20.0</ele>
        <time>2018-11-25T15:20:43.209Z</time>
      </trkpt>
      <trkpt lat="55.466878954321146" lon="12.153381910175085">
        <ele>19.0</ele>
        <time>2018-11-25T15:20:46.810Z</time>
      </trkpt>
      <trkpt lat="55.46676487661898" lon="12.153389370068908">
        <ele>19.0</ele>
        <time>2018-11-25T15:20:50.415Z</time>
      </trkpt>
      <trkpt lat="55.46658315695822" lon="12.153441589325666">
        <ele>18.0</ele>
        <time>2018-11-25T15:20:54.026Z</time>
      </trkpt>
      <trkpt lat="55.46635793522" lon="12.153475536033511">
        <ele>17.0</ele>
        <time>2018-11-25T15:20:57.645Z</time>
      </trkpt>
      <trkpt lat="55.466265231370926" lon="12.153544016182423">
        <ele>16.0</ele>
        <time>2018-11-25T15:21:01.267Z</time>
      </trkpt>
      <trkpt lat="55.46619641594589" lon="12.1536850836128">
        <ele>15.0</ele>
        <time>2018-11-25T15:21:04.892Z</time>
      </trkpt>
      <trkpt lat="55.46612617559731" lon="12.154332753270864">
        <ele>13.0</ele>
        <time>2018-11-25T15:21:08.530Z</time>
      </trkpt>
      <trkpt lat="55.4660093318671" lon="12.154836924746633">
        <ele>12.0</ele>
        <time>2018-11-25T15:21:12.178Z</time>
      </trkpt>
      <trkpt lat="55.46595082618296" lon="12.154966425150633">
        <ele>12.0</ele>
        <time>2018-11-25T15:21:15.829Z</time>
      </trkpt>
      <trkpt lat="55.46589751727879" lon="12.154898783192039">
        <ele>12.0</ele>
        <time>2018-11-25T15:21:19.482Z</time>
      </trkpt>
      <trkpt lat="55.46579877845943" lon="12.154895765706897">
        <ele>12.0</ele>
        <time>2018-11-25T15:21:23.139Z</time>
      </trkpt>
      <trkpt lat="55.465739434584975" lon="12.154873050749302">
        <ele>12.0</ele>
        <time>2018-11-25T15:21:26.798Z</time>
      </trkpt>
      <trkpt lat="55.46563499607146" lon="12.154773557558656">
        <ele>12.0</ele>
        <time>2018-11-25T15:21:30.461Z</time>
      </trkpt>
      <trkpt lat="55.46561890281737" lon="12.154737850651145">
        <ele>12.0</ele>
        <time>2018-11-25T15:21:34.125Z</time>
      </trkpt>
      <trkpt lat="55.46556341461837" lon="12.154689151793718">
        <ele>12.0</ele>
        <time>2018-11-25T15:21:37.791Z</time>
      </trkpt>
      <trkpt lat="55.465554278343916" lon="12.154696276411414">
        <ele>12.0</ele>
        <time>2018-11-25T15:21:41.457Z</time>
      </trkpt>
      <trkpt lat="55.4655690304935" lon="12.15472787618637">
        <ele>12.0</ele>
        <time>2018-11-25T15:21:45.124Z</time>
      </trkpt>
      <trkpt lat="55.465553188696504" lon="12.15476106852293">
        <ele>12.0</ele>
        <time>2018-11-25T15:21:48.791Z</time>
      </trkpt>
      <trkpt lat="55.46562485396862" lon="12.15504890307784">
        <ele>12.0</ele>
        <time>2018-11-25T15:21:52.464Z</time>
      </trkpt>
      <trkpt lat="55.46556341461837" lon="12.155237160623074">
        <ele>10.0</ele>
        <time>2018-11-25T15:21:56.141Z</time>
      </trkpt>
      <trkpt lat="55.46548378653824" lon="12.155399769544601">
        <ele>9.0</ele>
        <time>2018-11-25T15:21:59.823Z</time>
      </trkpt>
      <trkpt lat="55.46556090004742" lon="12.155387867242098">
        <ele>9.0</ele>
        <time>2018-11-25T15:22:03.507Z</time>
      </trkpt>
      <trkpt lat="55.46556802466512" lon="12.155446792021394">
        <ele>9.0</ele>
        <time>2018-11-25T15:22:07.192Z</time>
      </trkpt>
      <trkpt lat="55.46551337465644" lon="12.1555414237082">
        <ele>8.0</ele>
        <time>2018-11-25T15:22:10.880Z</time>
      </trkpt>
      <trkpt lat="55.465494096279144" lon="12.155614430084825">
        <ele>8.0</ele>
        <time>2018-11-25T15:22:14.569Z</time>
      </trkpt>
      <trkpt lat="55.4654136300087" lon="12.155782151967287">
        <ele>7.0</ele>
        <time>2018-11-25T15:22:18.262Z</time>
      </trkpt>
      <trkpt lat="55.46495002694428" lon="12.156643141061068">
        <ele>7.0</ele>
        <time>2018-11-25T15:22:21.978Z</time>
      </trkpt>
      <trkpt lat="55.464875511825085" lon="12.156700976192951">
        <ele>8.0</ele>
        <time>2018-11-25T15:22:25.696Z</time>
      </trkpt>
      <trkpt lat="55.46468515880406" lon="12.15668580494821">
        <ele>10.0</ele>
        <time>2018-11-25T15:22:29.421Z</time>
      </trkpt>
      <trkpt lat="55.464575020596385" lon="12.156708184629679">
        <ele>11.0</ele>
        <time>2018-11-25T15:22:33.149Z</time>
      </trkpt>
      <trkpt lat="55.46454157680273" lon="12.156734000891447">
        <ele>11.0</ele>
        <time>2018-11-25T15:22:36.879Z</time>
      </trkpt>
      <trkpt lat="55.46445717103779" lon="12.156755207106471">
        <ele>11.0</ele>
        <time>2018-11-25T15:22:40.611Z</time>
      </trkpt>
      <trkpt lat="55.46436329372227" lon="12.15682209469378">
        <ele>12.0</ele>
        <time>2018-11-25T15:22:44.347Z</time>
      </trkpt>
      <trkpt lat="55.464293137192726" lon="12.156854197382927">
        <ele>12.0</ele>
        <time>2018-11-25T15:22:48.085Z</time>
      </trkpt>
      <trkpt lat="55.46419381164014" lon="12.156874230131507">
        <ele>12.0</ele>
        <time>2018-11-25T15:22:51.827Z</time>
      </trkpt>
      <trkpt lat="55.46404151245952" lon="12.156958635896444">
        <ele>13.0</ele>
        <time>2018-11-25T15:22:55.574Z</time>
      </trkpt>
      <trkpt lat="55.46378552913666" lon="12.157559785991907">
        <ele>10.0</ele>
        <time>2018-11-25T15:22:59.335Z</time>
      </trkpt>
      <trkpt lat="55.463612359017134" lon="12.1581369638443">
        <ele>7.0</ele>
        <time>2018-11-25T15:23:03.108Z</time>
      </trkpt>
      <trkpt lat="55.463324189186096" lon="12.15875311754644">
        <ele>10.0</ele>
        <time>2018-11-25T15:23:06.896Z</time>
      </trkpt>
      <trkpt lat="55.46314070932567" lon="12.159256367012858">
        <ele>11.0</ele>
        <time>2018-11-25T15:23:10.695Z</time>
      </trkpt>
      <trkpt lat="55.463094525039196" lon="12.159356027841568">
        <ele>11.0</ele>
        <time>2018-11-25T15:23:14.497Z</time>
      </trkpt>
      <trkpt lat="55.46305219642818" lon="12.159390477463603">
        <ele>11.0</ele>
        <time>2018-11-25T15:23:18.300Z</time>
      </trkpt>
      <trkpt lat="55.46300928108394" lon="12.159503381699324">
        <ele>11.0</ele>
        <time>2018-11-25T15:23:22.106Z</time>
      </trkpt>
      <trkpt lat="55.46289880760014" lon="12.160397144034505">
        <ele>9.0</ele>
        <time>2018-11-25T15:23:25.929Z</time>
      </trkpt>
      <trkpt lat="55.46282940544188" lon="12.161423843353987">
        <ele>7.0</ele>
        <time>2018-11-25T15:23:29.772Z</time>
      </trkpt>
      <trkpt lat="55.46280694194138" lon="12.161561222746968">
        <ele>7.0</ele>
        <time>2018-11-25T15:23:33.617Z</time>
      </trkpt>
      <trkpt lat="55.46277710236609" lon="12.161607993766665">
        <ele>6.0</ele>
        <time>2018-11-25T15:23:37.464Z</time>
      </trkpt>
      <trkpt lat="55.46269303187728" lon="12.161650657653809">
        <ele>6.0</ele>
        <time>2018-11-25T15:23:41.314Z</time>
      </trkpt>
      <trkpt lat="55.46261189505458" lon="12.161731207743287">
        <ele>6.0</ele>
        <time>2018-11-25T15:23:45.167Z</time>
      </trkpt>
      <trkpt lat="55.4623896908015" lon="12.162090372294188">
        <ele>5.0</ele>
        <time>2018-11-25T15:23:49.030Z</time>
      </trkpt>
      <trkpt lat="55.46234384179115" lon="12.162125827744603">
        <ele>5.0</ele>
        <time>2018-11-25T15:23:52.894Z</time>
      </trkpt>
      <trkpt lat="55.46229438856244" lon="12.162140076979995">
        <ele>5.0</ele>
        <time>2018-11-25T15:23:56.760Z</time>
      </trkpt>
      <trkpt lat="55.46224736608565" lon="12.16213203035295">
        <ele>4.0</ele>
        <time>2018-11-25T15:24:00.628Z</time>
      </trkpt>
      <trkpt lat="55.46220042742789" lon="12.162100849673152">
        <ele>4.0</ele>
        <time>2018-11-25T15:24:04.497Z</time>
      </trkpt>
      <trkpt lat="55.46208802610636" lon="12.161947879940271">
        <ele>4.0</ele>
        <time>2018-11-25T15:24:08.371Z</time>
      </trkpt>
      <trkpt lat="55.462071346119046" lon="12.161780828610063">
        <ele>3.0</ele>
        <time>2018-11-25T15:24:12.248Z</time>
      </trkpt>
      <trkpt lat="55.46221065334976" lon="12.161073479801416">
        <ele>4.0</ele>
        <time>2018-11-25T15:24:16.139Z</time>
      </trkpt>
      <trkpt lat="55.4624708276242" lon="12.159929685294628">
        <ele>7.0</ele>
        <time>2018-11-25T15:24:20.053Z</time>
      </trkpt>
      <trkpt lat="55.462574511766434" lon="12.159124435856938">
        <ele>9.0</ele>
        <time>2018-11-25T15:24:23.983Z</time>
      </trkpt>
      <trkpt lat="55.462594628334045" lon="12.159065678715706">
        <ele>10.0</ele>
        <time>2018-11-25T15:24:27.914Z</time>
      </trkpt>
      <trkpt lat="55.46264827251434" lon="12.159095099195838">
        <ele>10.0</ele>
        <time>2018-11-25T15:24:31.847Z</time>
      </trkpt>
      <trkpt lat="55.46275623142719" lon="12.159120831638575">
        <ele>11.0</ele>
        <time>2018-11-25T15:24:35.784Z</time>
      </trkpt>
      <trkpt lat="55.462791016325355" lon="12.159166345372796">
        <ele>11.0</ele>
        <time>2018-11-25T15:24:39.722Z</time>
      </trkpt>
      <trkpt lat="55.46283233910799" lon="12.159079341217875">
        <ele>11.0</ele>
        <time>2018-11-25T15:24:43.662Z</time>
      </trkpt>
      <trkpt lat="55.46291339211166" lon="12.158976411446929">
        <ele>12.0</ele>
        <time>2018-11-25T15:24:47.606Z</time>
      </trkpt>
      <trkpt lat="55.46280627138913" lon="12.158636692911386">
        <ele>12.0</ele>
        <time>2018-11-25T15:24:51.557Z</time>
      </trkpt>
      <trkpt lat="55.462807612493634" lon="12.15860459022224">
        <ele>12.0</ele>
        <time>2018-11-25T15:24:55.508Z</time>
      </trkpt>
      <trkpt lat="55.46296854503453" lon="12.158027160912752">
        <ele>14.0</ele>
        <time>2018-11-25T15:24:59.472Z</time>
      </trkpt>
      <trkpt lat="55.46299830079079" lon="12.157744523137808">
        <ele>13.0</ele>
        <time>2018-11-25T15:25:03.441Z</time>
      </trkpt>
      <trkpt lat="55.46308538876474" lon="12.157338168472052">
        <ele>12.0</ele>
        <time>2018-11-25T15:25:07.418Z</time>
      </trkpt>
      <trkpt lat="55.46314129605889" lon="12.157198525965214">
        <ele>12.0</ele>
        <time>2018-11-25T15:25:11.398Z</time>
      </trkpt>
      <trkpt lat="55.463289907202125" lon="12.156992414966226">
        <ele>11.0</ele>
        <time>2018-11-25T15:25:15.385Z</time>
      </trkpt>
      <trkpt lat="55.463350089266896" lon="12.15680742636323">
        <ele>12.0</ele>
        <time>2018-11-25T15:25:19.376Z</time>
      </trkpt>
      <trkpt lat="55.46342460438609" lon="12.156279785558581">
        <ele>12.0</ele>
        <time>2018-11-25T15:25:23.377Z</time>
      </trkpt>
      <trkpt lat="55.46348067931831" lon="12.155707301571965">
        <ele>11.0</ele>
        <time>2018-11-25T15:25:27.389Z</time>
      </trkpt>
      <trkpt lat="55.463572377339005" lon="12.155196340754628">
        <ele>11.0</ele>
        <time>2018-11-25T15:25:31.411Z</time>
      </trkpt>
      <trkpt lat="55.463618310168386" lon="12.154742879793048">
        <ele>11.0</ele>
        <time>2018-11-25T15:25:35.442Z</time>
      </trkpt>
      <trkpt lat="55.46362836845219" lon="12.154424702748656">
        <ele>10.0</ele>
        <time>2018-11-25T15:25:39.479Z</time>
      </trkpt>
      <trkpt lat="55.46366734430194" lon="12.154137790203094">
        <ele>11.0</ele>
        <time>2018-11-25T15:25:43.521Z</time>
      </trkpt>
      <trkpt lat="55.46367413364351" lon="12.153713246807456">
        <ele>10.0</ele>
        <time>2018-11-25T15:25:47.571Z</time>
      </trkpt>
      <trkpt lat="55.46363599598408" lon="12.152724014595151">
        <ele>11.0</ele>
        <time>2018-11-25T15:25:51.640Z</time>
      </trkpt>
      <trkpt lat="55.463645718991756" lon="12.152198804542422">
        <ele>12.0</ele>
        <time>2018-11-25T15:25:55.719Z</time>
      </trkpt>
      <trkpt lat="55.46362870372832" lon="12.151500172913074">
        <ele>14.0</ele>
        <time>2018-11-25T15:25:59.811Z</time>
      </trkpt>
      <trkpt lat="55.463693579658866" lon="12.151192557066679">
        <ele>15.0</ele>
        <time>2018-11-25T15:26:03.909Z</time>
      </trkpt>
      <trkpt lat="55.463711181655526" lon="12.150906482711434">
        <ele>16.0</ele>
        <time>2018-11-25T15:26:08.012Z</time>
      </trkpt>
      <trkpt lat="55.4637314658612" lon="12.150051528587937">
        <ele>19.0</ele>
        <time>2018-11-25T15:26:12.132Z</time>
      </trkpt>
      <trkpt lat="55.46370808035135" lon="12.14970082975924">
        <ele>18.0</ele>
        <time>2018-11-25T15:26:16.258Z</time>
      </trkpt>
      <trkpt lat="55.46382651664317" lon="12.148788627237082">
        <ele>19.0</ele>
        <time>2018-11-25T15:26:20.402Z</time>
      </trkpt>
      <trkpt lat="55.46384822577238" lon="12.148212622851133">
        <ele>19.0</ele>
        <time>2018-11-25T15:26:24.557Z</time>
      </trkpt>
      <trkpt lat="55.463828863576055" lon="12.14771800674498">
        <ele>18.0</ele>
        <time>2018-11-25T15:26:28.721Z</time>
      </trkpt>
      <trkpt lat="55.46385602094233" lon="12.147590685635805">
        <ele>18.0</ele>
        <time>2018-11-25T15:26:32.888Z</time>
      </trkpt>
      <trkpt lat="55.463953921571374" lon="12.147321542724967">
        <ele>18.0</ele>
        <time>2018-11-25T15:26:37.061Z</time>
      </trkpt>
      <trkpt lat="55.463948640972376" lon="12.146852659061551">
        <ele>18.0</ele>
        <time>2018-11-25T15:26:41.242Z</time>
      </trkpt>
      <trkpt lat="55.46388443559408" lon="12.14584699831903">
        <ele>15.0</ele>
        <time>2018-11-25T15:26:45.442Z</time>
      </trkpt>
      <trkpt lat="55.46392626129091" lon="12.145570563152432">
        <ele>15.0</ele>
        <time>2018-11-25T15:26:49.648Z</time>
      </trkpt>
      <trkpt lat="55.46407587826252" lon="12.145210476592183">
        <ele>16.0</ele>
        <time>2018-11-25T15:26:53.862Z</time>
      </trkpt>
      <trkpt lat="55.464158691465855" lon="12.144961031153798">
        <ele>16.0</ele>
        <time>2018-11-25T15:26:58.082Z</time>
      </trkpt>
      <trkpt lat="55.46422138810158" lon="12.144551826640964">
        <ele>16.0</ele>
        <time>2018-11-25T15:27:02.310Z</time>
      </trkpt>
      <trkpt lat="55.46415927819908" lon="12.143831988796592">
        <ele>15.0</ele>
        <time>2018-11-25T15:27:06.551Z</time>
      </trkpt>
      <trkpt lat="55.46416807919741" lon="12.14354407042265">
        <ele>15.0</ele>
        <time>2018-11-25T15:27:10.798Z</time>
      </trkpt>
      <trkpt lat="55.46421459876001" lon="12.143149366602302">
        <ele>16.0</ele>
        <time>2018-11-25T15:27:15.052Z</time>
      </trkpt>
      <trkpt lat="55.46422004699707" lon="12.14297485537827">
        <ele>17.0</ele>
        <time>2018-11-25T15:27:19.310Z</time>
      </trkpt>
      <trkpt lat="55.46419557183981" lon="12.142525082454085">
        <ele>17.0</ele>
        <time>2018-11-25T15:27:23.576Z</time>
      </trkpt>
      <trkpt lat="55.46408283524215" lon="12.141875317320228">
        <ele>16.0</ele>
        <time>2018-11-25T15:27:27.855Z</time>
      </trkpt>
      <trkpt lat="55.464120134711266" lon="12.14097241871059">
        <ele>16.0</ele>
        <time>2018-11-25T15:27:32.151Z</time>
      </trkpt>
      <trkpt lat="55.464090295135975" lon="12.140673017129302">
        <ele>15.0</ele>
        <time>2018-11-25T15:27:36.453Z</time>
      </trkpt>
      <trkpt lat="55.46401829458773" lon="12.140448382124305">
        <ele>14.0</ele>
        <time>2018-11-25T15:27:40.760Z</time>
      </trkpt>
      <trkpt lat="55.464000357314944" lon="12.140330113470554">
        <ele>14.0</ele>
        <time>2018-11-25T15:27:45.069Z</time>
      </trkpt>
      <trkpt lat="55.46401033177972" lon="12.140035573393106">
        <ele>14.0</ele>
        <time>2018-11-25T15:27:49.383Z</time>
      </trkpt>
      <trkpt lat="55.464095743373036" lon="12.139763748273253">
        <ele>14.0</ele>
        <time>2018-11-25T15:27:53.703Z</time>
      </trkpt>
      <trkpt lat="55.46423681080341" lon="12.139435932040215">
        <ele>14.0</ele>
        <time>2018-11-25T15:27:58.031Z</time>
      </trkpt>
      <trkpt lat="55.464284336194396" lon="12.139279106631875">
        <ele>15.0</ele>
        <time>2018-11-25T15:28:02.362Z</time>
      </trkpt>
      <trkpt lat="55.46435139141977" lon="12.138734618201852">
        <ele>15.0</ele>
        <time>2018-11-25T15:28:06.704Z</time>
      </trkpt>
      <trkpt lat="55.46443202532828" lon="12.138378052040935">
        <ele>16.0</ele>
        <time>2018-11-25T15:28:11.053Z</time>
      </trkpt>
      <trkpt lat="55.46451458707452" lon="12.138187028467655">
        <ele>17.0</ele>
        <time>2018-11-25T15:28:15.407Z</time>
      </trkpt>
      <trkpt lat="55.46455674804747" lon="12.138022491708398">
        <ele>17.0</ele>
        <time>2018-11-25T15:28:19.764Z</time>
      </trkpt>
      <trkpt lat="55.464593125507236" lon="12.137443302199244">
        <ele>18.0</ele>
        <time>2018-11-25T15:28:24.132Z</time>
      </trkpt>
      <trkpt lat="55.46456890180707" lon="12.136729247868061">
        <ele>17.0</ele>
        <time>2018-11-25T15:28:28.513Z</time>
      </trkpt>
      <trkpt lat="55.464595472440124" lon="12.136538894847035">
        <ele>17.0</ele>
        <time>2018-11-25T15:28:32.898Z</time>
      </trkpt>
      <trkpt lat="55.46459203585982" lon="12.136205965653062">
        <ele>16.0</ele>
        <time>2018-11-25T15:28:37.289Z</time>
      </trkpt>
      <trkpt lat="55.46471809968352" lon="12.135683605447412">
        <ele>16.0</ele>
        <time>2018-11-25T15:28:41.691Z</time>
      </trkpt>
      <trkpt lat="55.464799823239446" lon="12.135498952120543">
        <ele>16.0</ele>
        <time>2018-11-25T15:28:46.097Z</time>
      </trkpt>
      <trkpt lat="55.46493083238602" lon="12.135331314057112">
        <ele>16.0</ele>
        <time>2018-11-25T15:28:50.509Z</time>
      </trkpt>
      <trkpt lat="55.4649524576962" lon="12.135249841958284">
        <ele>16.0</ele>
        <time>2018-11-25T15:28:54.922Z</time>
      </trkpt>
      <trkpt lat="55.465023117139935" lon="12.13479034602642">
        <ele>17.0</ele>
        <time>2018-11-25T15:28:59.344Z</time>
      </trkpt>
      <trkpt lat="55.46506527811289" lon="12.13463343679905">
        <ele>17.0</ele>
        <time>2018-11-25T15:29:03.770Z</time>
      </trkpt>
      <trkpt lat="55.46509235166013" lon="12.13413161225617">
        <ele>16.0</ele>
        <time>2018-11-25T15:29:08.205Z</time>
      </trkpt>
      <trkpt lat="55.46514499001205" lon="12.134001776576042">
        <ele>16.0</ele>
        <time>2018-11-25T15:29:12.643Z</time>
      </trkpt>
      <trkpt lat="55.465396363288164" lon="12.133570360019803">
        <ele>20.0</ele>
        <time>2018-11-25T15:29:17.093Z</time>
      </trkpt>
      <trkpt lat="55.465460401028395" lon="12.133486960083246">
        <ele>21.0</ele>
        <time>2018-11-25T15:29:21.545Z</time>
      </trkpt>
      <trkpt lat="55.46568537130952" lon="12.133085550740361">
        <ele>22.0</ele>
        <time>2018-11-25T15:29:26.008Z</time>
      </trkpt>
      <trkpt lat="55.46571973711252" lon="12.132917828857899">
        <ele>21.0</ele>
        <time>2018-11-25T15:29:30.474Z</time>
      </trkpt>
      <trkpt lat="55.465783858671784" lon="12.132719345390797">
        <ele>21.0</ele>
        <time>2018-11-25T15:29:34.945Z</time>
      </trkpt>
      <trkpt lat="55.46583624556661" lon="12.132630413398147">
        <ele>21.0</ele>
        <time>2018-11-25T15:29:39.418Z</time>
      </trkpt>
      <trkpt lat="55.46586273238063" lon="12.132623037323356">
        <ele>21.0</ele>
        <time>2018-11-25T15:29:43.892Z</time>
      </trkpt>
      <trkpt lat="55.46593364328146" lon="12.132717836648226">
        <ele>22.0</ele>
        <time>2018-11-25T15:29:48.369Z</time>
      </trkpt>
      <trkpt lat="55.46598284505308" lon="12.13272294960916">
        <ele>23.0</ele>
        <time>2018-11-25T15:29:52.848Z</time>
      </trkpt>
      <trkpt lat="55.46609826385975" lon="12.132821353152394">
        <ele>24.0</ele>
        <time>2018-11-25T15:29:57.331Z</time>
      </trkpt>
      <trkpt lat="55.46621108427644" lon="12.132878517732024">
        <ele>25.0</ele>
        <time>2018-11-25T15:30:01.818Z</time>
      </trkpt>
      <trkpt lat="55.46622969210148" lon="12.132911961525679">
        <ele>26.0</ele>
        <time>2018-11-25T15:30:06.306Z</time>
      </trkpt>
      <trkpt lat="55.46642524190247" lon="12.133033415302634">
        <ele>27.0</ele>
        <time>2018-11-25T15:30:10.800Z</time>
      </trkpt>
      <trkpt lat="55.46652188524604" lon="12.133172890171409">
        <ele>28.0</ele>
        <time>2018-11-25T15:30:15.299Z</time>
      </trkpt>
      <trkpt lat="55.46653898432851" lon="12.133258134126663">
        <ele>28.0</ele>
        <time>2018-11-25T15:30:19.799Z</time>
      </trkpt>
      <trkpt lat="55.46657024882734" lon="12.133302977308631">
        <ele>28.0</ele>
        <time>2018-11-25T15:30:24.301Z</time>
      </trkpt>
      <trkpt lat="55.466368496418" lon="12.133691227063537">
        <ele>28.0</ele>
        <time>2018-11-25T15:30:28.813Z</time>
      </trkpt>
      <trkpt lat="55.465953005477786" lon="12.134315427392721">
        <ele>25.0</ele>
        <time>2018-11-25T15:30:33.343Z</time>
      </trkpt>
      <trkpt lat="55.46576659195125" lon="12.13456654921174">
        <ele>25.0</ele>
        <time>2018-11-25T15:30:37.880Z</time>
      </trkpt>
      <trkpt lat="55.465690568089485" lon="12.134745419025421">
        <ele>25.0</ele>
        <time>2018-11-25T15:30:42.422Z</time>
      </trkpt>
      <trkpt lat="55.465609012171626" lon="12.135213380679488">
        <ele>24.0</ele>
        <time>2018-11-25T15:30:46.973Z</time>
      </trkpt>
      <trkpt lat="55.46553064137697" lon="12.135484954342246">
        <ele>23.0</ele>
        <time>2018-11-25T15:30:51.530Z</time>
      </trkpt>
      <trkpt lat="55.465459479019046" lon="12.1359000261873">
        <ele>22.0</ele>
        <time>2018-11-25T15:30:56.095Z</time>
      </trkpt>
      <trkpt lat="55.465280106291175" lon="12.136605195701122">
        <ele>19.0</ele>
        <time>2018-11-25T15:31:00.674Z</time>
      </trkpt>
      <trkpt lat="55.4652011487633" lon="12.137149013578892">
        <ele>19.0</ele>
        <time>2018-11-25T15:31:05.264Z</time>
      </trkpt>
      <trkpt lat="55.465100733563304" lon="12.137457132339478">
        <ele>18.0</ele>
        <time>2018-11-25T15:31:09.861Z</time>
      </trkpt>
      <trkpt lat="55.46471307054162" lon="12.138848444446921">
        <ele>19.0</ele>
        <time>2018-11-25T15:31:14.487Z</time>
      </trkpt>
      <trkpt lat="55.46466428786516" lon="12.139113564044237">
        <ele>19.0</ele>
        <time>2018-11-25T15:31:19.118Z</time>
      </trkpt>
      <trkpt lat="55.464654732495546" lon="12.13936091400683">
        <ele>19.0</ele>
        <time>2018-11-25T15:31:23.754Z</time>
      </trkpt>
      <trkpt lat="55.46460687182844" lon="12.139627123251557">
        <ele>19.0</ele>
        <time>2018-11-25T15:31:28.395Z</time>
      </trkpt>
      <trkpt lat="55.46461139805615" lon="12.140138586983085">
        <ele>20.0</ele>
        <time>2018-11-25T15:31:33.045Z</time>
      </trkpt>
      <trkpt lat="55.46446865424514" lon="12.140363557264209">
        <ele>19.0</ele>
        <time>2018-11-25T15:31:37.702Z</time>
      </trkpt>
      <trkpt lat="55.46440662816167" lon="12.14058299548924">
        <ele>19.0</ele>
        <time>2018-11-25T15:31:42.363Z</time>
      </trkpt>
      <trkpt lat="55.46440386213362" lon="12.140799751505256">
        <ele>19.0</ele>
        <time>2018-11-25T15:31:47.029Z</time>
      </trkpt>
      <trkpt lat="55.4644307680428" lon="12.140978621318936">
        <ele>20.0</ele>
        <time>2018-11-25T15:31:51.698Z</time>
      </trkpt>
      <trkpt lat="55.46448357403278" lon="12.1410789526999">
        <ele>22.0</ele>
        <time>2018-11-25T15:31:56.370Z</time>
      </trkpt>
      <trkpt lat="55.464535374194384" lon="12.141126226633787">
        <ele>23.0</ele>
        <time>2018-11-25T15:32:01.043Z</time>
      </trkpt>
      <trkpt lat="55.46454442664981" lon="12.141193533316255">
        <ele>23.0</ele>
        <time>2018-11-25T15:32:05.718Z</time>
      </trkpt>
      <trkpt lat="55.464549120515585" lon="12.14142294600606">
        <ele>24.0</ele>
        <time>2018-11-25T15:32:10.397Z</time>
      </trkpt>
      <trkpt lat="55.46447301283479" lon="12.141559906303883">
        <ele>23.0</ele>
        <time>2018-11-25T15:32:15.080Z</time>
      </trkpt>
      <trkpt lat="55.46450017020106" lon="12.14172737672925">
        <ele>24.0</ele>
        <time>2018-11-25T15:32:19.766Z</time>
      </trkpt>
      <trkpt lat="55.46448374167085" lon="12.141999620944262">
        <ele>23.0</ele>
        <time>2018-11-25T15:32:24.457Z</time>
      </trkpt>
      <trkpt lat="55.464519867673516" lon="12.142126020044088">
        <ele>23.0</ele>
        <time>2018-11-25T15:32:29.151Z</time>
      </trkpt>
      <trkpt lat="55.464559346437454" lon="12.142145046964288">
        <ele>23.0</ele>
        <time>2018-11-25T15:32:33.846Z</time>
      </trkpt>
      <trkpt lat="55.46456504613161" lon="12.142185866832733">
        <ele>23.0</ele>
        <time>2018-11-25T15:32:38.542Z</time>
      </trkpt>
      <trkpt lat="55.46466764062643" lon="12.142251748591661">
        <ele>25.0</ele>
        <time>2018-11-25T15:32:43.242Z</time>
      </trkpt>
      <trkpt lat="55.46472270973027" lon="12.142340177670121">
        <ele>25.0</ele>
        <time>2018-11-25T15:32:47.944Z</time>
      </trkpt>
      <trkpt lat="55.46461885794997" lon="12.142523070797324">
        <ele>24.0</ele>
        <time>2018-11-25T15:32:52.651Z</time>
      </trkpt>
      <trkpt lat="55.46447368338704" lon="12.142730941995978">
        <ele>21.0</ele>
        <time>2018-11-25T15:32:57.364Z</time>
      </trkpt>
      <trkpt lat="55.46437427401543" lon="12.142790202051401">
        <ele>19.0</ele>
        <time>2018-11-25T15:33:02.081Z</time>
      </trkpt>
      <trkpt lat="55.46435935422778" lon="12.142783161252737">
        <ele>19.0</ele>
        <time>2018-11-25T15:33:06.798Z</time>
      </trkpt>
      <trkpt lat="55.464346865192056" lon="12.142426846548915">
        <ele>20.0</ele>
        <time>2018-11-25T15:33:11.522Z</time>
      </trkpt>
      <trkpt lat="55.464217280969024" lon="12.141761491075158">
        <ele>19.0</ele>
        <time>2018-11-25T15:33:16.259Z</time>
      </trkpt>
      <trkpt lat="55.46422985382378" lon="12.141445660963655">
        <ele>19.0</ele>
        <time>2018-11-25T15:33:21.002Z</time>
      </trkpt>
      <trkpt lat="55.464207138866186" lon="12.141361758112907">
        <ele>19.0</ele>
        <time>2018-11-25T15:33:25.747Z</time>
      </trkpt>
      <trkpt lat="55.46421518549323" lon="12.14124801568687">
        <ele>19.0</ele>
        <time>2018-11-25T15:33:30.494Z</time>
      </trkpt>
      <trkpt lat="55.46419456601143" lon="12.141270646825433">
        <ele>18.0</ele>
        <time>2018-11-25T15:33:35.242Z</time>
      </trkpt>
      <trkpt lat="55.464195823296905" lon="12.141292439773679">
        <ele>18.0</ele>
        <time>2018-11-25T15:33:39.990Z</time>
      </trkpt>
      <trkpt lat="55.46424888074398" lon="12.141353962942958">
        <ele>19.0</ele>
        <time>2018-11-25T15:33:44.740Z</time>
      </trkpt>
      <trkpt lat="55.46427394263446" lon="12.141263941302896">
        <ele>20.0</ele>
        <time>2018-11-25T15:33:49.492Z</time>
      </trkpt>
      <trkpt lat="55.46425919048488" lon="12.141250111162663">
        <ele>19.0</ele>
        <time>2018-11-25T15:33:54.245Z</time>
      </trkpt>
      <trkpt lat="55.46428022906184" lon="12.14110393077135">
        <ele>19.0</ele>
        <time>2018-11-25T15:33:59.001Z</time>
      </trkpt>
      <trkpt lat="55.46426656655967" lon="12.141039222478867">
        <ele>19.0</ele>
        <time>2018-11-25T15:34:03.758Z</time>
      </trkpt>
      <trkpt lat="55.46428559347987" lon="12.140960097312927">
        <ele>18.0</ele>
        <time>2018-11-25T15:34:08.516Z</time>
      </trkpt>
      <trkpt lat="55.464169504120946" lon="12.14049062691629">
        <ele>16.0</ele>
        <time>2018-11-25T15:34:13.284Z</time>
      </trkpt>
      <trkpt lat="55.464104041457176" lon="12.140306392684579">
        <ele>15.0</ele>
        <time>2018-11-25T15:34:18.056Z</time>
      </trkpt>
      <trkpt lat="55.46407068148255" lon="12.140065329149365">
        <ele>14.0</ele>
        <time>2018-11-25T15:34:22.833Z</time>
      </trkpt>
      <trkpt lat="55.46399859711528" lon="12.139985198155046">
        <ele>13.0</ele>
        <time>2018-11-25T15:34:27.613Z</time>
      </trkpt>
      <trkpt lat="55.463736997917295" lon="12.13982225395739">
        <ele>10.0</ele>
        <time>2018-11-25T15:34:32.402Z</time>
      </trkpt>
      <trkpt lat="55.46366583555937" lon="12.139851590618491">
        <ele>10.0</ele>
        <time>2018-11-25T15:34:37.193Z</time>
      </trkpt>
      <trkpt lat="55.46349694021046" lon="12.139879586175084">
        <ele>8.0</ele>
        <time>2018-11-25T15:34:41.990Z</time>
      </trkpt>
      <trkpt lat="55.46336601488292" lon="12.139930967241526">
        <ele>6.0</ele>
        <time>2018-11-25T15:34:46.791Z</time>
      </trkpt>
      <trkpt lat="55.46329686418176" lon="12.13998394086957">
        <ele>5.0</ele>
        <time>2018-11-25T15:34:51.595Z</time>
      </trkpt>
      <trkpt lat="55.463243555277586" lon="12.140106316655874">
        <ele>4.0</ele>
        <time>2018-11-25T15:34:56.402Z</time>
      </trkpt>
      <trkpt lat="55.463202400133014" lon="12.140533039346337">
        <ele>4.0</ele>
        <time>2018-11-25T15:35:01.217Z</time>
      </trkpt>
      <trkpt lat="55.463143894448876" lon="12.140724314376712">
        <ele>3.0</ele>
        <time>2018-11-25T15:35:06.036Z</time>
      </trkpt>
      <trkpt lat="55.4631323274225" lon="12.140875440090895">
        <ele>3.0</ele>
        <time>2018-11-25T15:35:10.858Z</time>
      </trkpt>
      <trkpt lat="55.463085221126676" lon="12.14100326411426">
        <ele>3.0</ele>
        <time>2018-11-25T15:35:15.683Z</time>
      </trkpt>
      <trkpt lat="55.46303660608828" lon="12.141223456710577">
        <ele>2.0</ele>
        <time>2018-11-25T15:35:20.512Z</time>
      </trkpt>
      <trkpt lat="55.46297776512802" lon="12.14167708531022">
        <ele>1.0</ele>
        <time>2018-11-25T15:35:25.350Z</time>
      </trkpt>
      <trkpt lat="55.46295312233269" lon="12.14173760265112">
        <ele>1.0</ele>
        <time>2018-11-25T15:35:30.189Z</time>
      </trkpt>
      <trkpt lat="55.46281750313938" lon="12.14193164370954">
        <ele>2.0</ele>
        <time>2018-11-25T15:35:35.034Z</time>
      </trkpt>
      <trkpt lat="55.46280400827527" lon="12.141977492719889">
        <ele>2.0</ele>
        <time>2018-11-25T15:35:39.880Z</time>
      </trkpt>
      <trkpt lat="55.46276276931167" lon="12.142444867640734">
        <ele>4.0</ele>
        <time>2018-11-25T15:35:44.735Z</time>
      </trkpt>
      <trkpt lat="55.46277919784188" lon="12.14265525341034">
        <ele>5.0</ele>
        <time>2018-11-25T15:35:49.594Z</time>
      </trkpt>
      <trkpt lat="55.4627800360322" lon="12.143079210072756">
        <ele>6.0</ele>
        <time>2018-11-25T15:35:54.461Z</time>
      </trkpt>
      <trkpt lat="55.46281037852168" lon="12.14339210651815">
        <ele>7.0</ele>
        <time>2018-11-25T15:35:59.334Z</time>
      </trkpt>
      <trkpt lat="55.462761009112" lon="12.144028376787901">
        <ele>6.0</ele>
        <time>2018-11-25T15:36:04.219Z</time>
      </trkpt>
      <trkpt lat="55.46268565580249" lon="12.14420179836452">
        <ele>6.0</ele>
        <time>2018-11-25T15:36:09.108Z</time>
      </trkpt>
      <trkpt lat="55.46260125003755" lon="12.144540343433619">
        <ele>6.0</ele>
        <time>2018-11-25T15:36:14.004Z</time>
      </trkpt>
      <trkpt lat="55.46256713569164" lon="12.144745197147131">
        <ele>7.0</ele>
        <time>2018-11-25T15:36:18.904Z</time>
      </trkpt>
      <trkpt lat="55.46249371021986" lon="12.1450334507972">
        <ele>8.0</ele>
        <time>2018-11-25T15:36:23.810Z</time>
      </trkpt>
      <trkpt lat="55.462444173172116" lon="12.145363530144095">
        <ele>9.0</ele>
        <time>2018-11-25T15:36:28.722Z</time>
      </trkpt>
      <trkpt lat="55.462354654446244" lon="12.14571070857346">
        <ele>10.0</ele>
        <time>2018-11-25T15:36:33.642Z</time>
      </trkpt>
      <trkpt lat="55.462250551208854" lon="12.146337004378438">
        <ele>11.0</ele>
        <time>2018-11-25T15:36:38.574Z</time>
      </trkpt>
      <trkpt lat="55.46220939606428" lon="12.146470779553056">
        <ele>12.0</ele>
        <time>2018-11-25T15:36:43.509Z</time>
      </trkpt>
      <trkpt lat="55.46215508133173" lon="12.146796248853207">
        <ele>12.0</ele>
        <time>2018-11-25T15:36:48.450Z</time>
      </trkpt>
      <trkpt lat="55.46209045685828" lon="12.147010071203113">
        <ele>12.0</ele>
        <time>2018-11-25T15:36:53.396Z</time>
      </trkpt>
      <trkpt lat="55.46206715516746" lon="12.147165471687913">
        <ele>11.0</ele>
        <time>2018-11-25T15:36:58.345Z</time>
      </trkpt>
      <trkpt lat="55.461958860978484" lon="12.147380635142326">
        <ele>10.0</ele>
        <time>2018-11-25T15:37:03.299Z</time>
      </trkpt>
      <trkpt lat="55.461770351976156" lon="12.148113213479519">
        <ele>9.0</ele>
        <time>2018-11-25T15:37:08.268Z</time>
      </trkpt>
      <trkpt lat="55.461700363084674" lon="12.148503139615059">
        <ele>9.0</ele>
        <time>2018-11-25T15:37:13.245Z</time>
      </trkpt>
      <trkpt lat="55.461732633411884" lon="12.149060536175966">
        <ele>9.0</ele>
        <time>2018-11-25T15:37:18.233Z</time>
      </trkpt>
      <trkpt lat="55.46177772805095" lon="12.14916966855526">
        <ele>9.0</ele>
        <time>2018-11-25T15:37:23.223Z</time>
      </trkpt>
      <trkpt lat="55.46178577467799" lon="12.149255499243736">
        <ele>9.0</ele>
        <time>2018-11-25T15:37:28.215Z</time>
      </trkpt>
      <trkpt lat="55.46184327453375" lon="12.149432189762592">
        <ele>9.0</ele>
        <time>2018-11-25T15:37:33.211Z</time>
      </trkpt>
      <trkpt lat="55.46186867170036" lon="12.149645173922181">
        <ele>9.0</ele>
        <time>2018-11-25T15:37:38.211Z</time>
      </trkpt>
      <trkpt lat="55.46186624094844" lon="12.149830916896462">
        <ele>9.0</ele>
        <time>2018-11-25T15:37:43.214Z</time>
      </trkpt>
      <trkpt lat="55.4619615431875" lon="12.150054043158889">
        <ele>9.0</ele>
        <time>2018-11-25T15:37:48.222Z</time>
      </trkpt>
      <trkpt lat="55.46196389012039" lon="12.150167617946863">
        <ele>9.0</ele>
        <time>2018-11-25T15:37:53.233Z</time>
      </trkpt>
      <trkpt lat="55.461989622563124" lon="12.150159906595945">
        <ele>9.0</ele>
        <time>2018-11-25T15:37:58.244Z</time>
      </trkpt>
      <trkpt lat="55.46203890815377" lon="12.150386469438672">
        <ele>8.0</ele>
        <time>2018-11-25T15:38:03.260Z</time>
      </trkpt>
      <trkpt lat="55.46235700137913" lon="12.15068394318223">
        <ele>7.0</ele>
        <time>2018-11-25T15:38:08.288Z</time>
      </trkpt>
      <trkpt lat="55.46270661056042" lon="12.150894915685058">
        <ele>6.0</ele>
        <time>2018-11-25T15:38:13.328Z</time>
      </trkpt>
      <trkpt lat="55.46276981011033" lon="12.150916792452335">
        <ele>6.0</ele>
        <time>2018-11-25T15:38:18.370Z</time>
      </trkpt>
      <trkpt lat="55.46286033466458" lon="12.151026343926787">
        <ele>5.0</ele>
        <time>2018-11-25T15:38:23.416Z</time>
      </trkpt>
      <trkpt lat="55.462978687137365" lon="12.15121460147202">
        <ele>5.0</ele>
        <time>2018-11-25T15:38:28.467Z</time>
      </trkpt>
      <trkpt lat="55.46310500241816" lon="12.151298336684704">
        <ele>6.0</ele>
        <time>2018-11-25T15:38:33.523Z</time>
      </trkpt>
      <trkpt lat="55.463337264955044" lon="12.151406379416585">
        <ele>10.0</ele>
        <time>2018-11-25T15:38:38.587Z</time>
      </trkpt>
      <trkpt lat="55.463475566357374" lon="12.151434626430273">
        <ele>12.0</ele>
        <time>2018-11-25T15:38:43.655Z</time>
      </trkpt>
      <trkpt lat="55.463510854169726" lon="12.15141442604363">
        <ele>12.0</ele>
        <time>2018-11-25T15:38:48.724Z</time>
      </trkpt>
      <trkpt lat="55.463655358180404" lon="12.151252487674356">
        <ele>15.0</ele>
        <time>2018-11-25T15:38:53.799Z</time>
      </trkpt>
      <trkpt lat="55.46369634568691" lon="12.151047298684716">
        <ele>16.0</ele>
        <time>2018-11-25T15:38:58.878Z</time>
      </trkpt>
      <trkpt lat="55.46371218748391" lon="12.150743203237653">
        <ele>17.0</ele>
        <time>2018-11-25T15:39:03.963Z</time>
      </trkpt>
      <trkpt lat="55.46371168456972" lon="12.150528207421303">
        <ele>17.0</ele>
        <time>2018-11-25T15:39:09.052Z</time>
      </trkpt>
      <trkpt lat="55.46369827352464" lon="12.150474898517132">
        <ele>17.0</ele>
        <time>2018-11-25T15:39:14.142Z</time>
      </trkpt>
      <trkpt lat="55.46371880918741" lon="12.150350427255034">
        <ele>18.0</ele>
        <time>2018-11-25T15:39:19.235Z</time>
      </trkpt>
      <trkpt lat="55.46372509561479" lon="12.150128055363894">
        <ele>18.0</ele>
        <time>2018-11-25T15:39:24.332Z</time>
      </trkpt>
      <trkpt lat="55.463665248826146" lon="12.149606868624687">
        <ele>17.0</ele>
        <time>2018-11-25T15:39:29.439Z</time>
      </trkpt>
      <trkpt lat="55.4636934120208" lon="12.149273352697492">
        <ele>17.0</ele>
        <time>2018-11-25T15:39:34.552Z</time>
      </trkpt>
      <trkpt lat="55.463828444480896" lon="12.148237014189363">
        <ele>18.0</ele>
        <time>2018-11-25T15:39:39.685Z</time>
      </trkpt>
      <trkpt lat="55.46383246779442" lon="12.147711887955666">
        <ele>18.0</ele>
        <time>2018-11-25T15:39:44.828Z</time>
      </trkpt>
      <trkpt lat="55.46381687745452" lon="12.14756889268756">
        <ele>17.0</ele>
        <time>2018-11-25T15:39:49.974Z</time>
      </trkpt>
      <trkpt lat="55.463793240487576" lon="12.147501166909933">
        <ele>17.0</ele>
        <time>2018-11-25T15:39:55.121Z</time>
      </trkpt>
      <trkpt lat="55.46375242061913" lon="12.147447690367699">
        <ele>16.0</ele>
        <time>2018-11-25T15:40:00.270Z</time>
      </trkpt>
      <trkpt lat="55.46370657160878" lon="12.147423047572374">
        <ele>16.0</ele>
        <time>2018-11-25T15:40:05.420Z</time>
      </trkpt>
      <trkpt lat="55.46334153972566" lon="12.14735104702413">
        <ele>10.0</ele>
        <time>2018-11-25T15:40:10.583Z</time>
      </trkpt>
      <trkpt lat="55.463239112868905" lon="12.147285751998425">
        <ele>9.0</ele>
        <time>2018-11-25T15:40:15.749Z</time>
      </trkpt>
      <trkpt lat="55.46308480203152" lon="12.147086262702942">
        <ele>6.0</ele>
        <time>2018-11-25T15:40:20.922Z</time>
      </trkpt>
      <trkpt lat="55.46273862943053" lon="12.146768337115645">
        <ele>7.0</ele>
        <time>2018-11-25T15:40:26.108Z</time>
      </trkpt>
      <trkpt lat="55.462640477344394" lon="12.146620815619826">
        <ele>8.0</ele>
        <time>2018-11-25T15:40:31.298Z</time>
      </trkpt>
      <trkpt lat="55.46249236911535" lon="12.146299118176103">
        <ele>9.0</ele>
        <time>2018-11-25T15:40:36.496Z</time>
      </trkpt>
      <trkpt lat="55.462452471256256" lon="12.146114632487297">
        <ele>9.0</ele>
        <time>2018-11-25T15:40:41.697Z</time>
      </trkpt>
      <trkpt lat="55.462439227849245" lon="12.146103736013174">
        <ele>10.0</ele>
        <time>2018-11-25T15:40:46.899Z</time>
      </trkpt>
      <trkpt lat="55.46237577684224" lon="12.146121840924025">
        <ele>10.0</ele>
        <time>2018-11-25T15:40:52.103Z</time>
      </trkpt>
      <trkpt lat="55.462357671931386" lon="12.146101305261254">
        <ele>10.0</ele>
        <time>2018-11-25T15:40:57.308Z</time>
      </trkpt>
      <trkpt lat="55.46238617040217" lon="12.145834425464272">
        <ele>10.0</ele>
        <time>2018-11-25T15:41:02.518Z</time>
      </trkpt>
      <trkpt lat="55.46246982179582" lon="12.145393956452608">
        <ele>8.0</ele>
        <time>2018-11-25T15:41:07.737Z</time>
      </trkpt>
      <trkpt lat="55.46247962862253" lon="12.145240902900696">
        <ele>8.0</ele>
        <time>2018-11-25T15:41:12.958Z</time>
      </trkpt>
      <trkpt lat="55.4625157546252" lon="12.145052645355463">
        <ele>8.0</ele>
        <time>2018-11-25T15:41:18.183Z</time>
      </trkpt>
      <trkpt lat="55.462588258087635" lon="12.144834129139781">
        <ele>7.0</ele>
        <time>2018-11-25T15:41:23.413Z</time>
      </trkpt>
      <trkpt lat="55.462735276669264" lon="12.144231889396906">
        <ele>6.0</ele>
        <time>2018-11-25T15:41:28.655Z</time>
      </trkpt>
      <trkpt lat="55.46274240128696" lon="12.14408160187304">
        <ele>6.0</ele>
        <time>2018-11-25T15:41:33.900Z</time>
      </trkpt>
      <trkpt lat="55.46276863664389" lon="12.143960231915116">
        <ele>6.0</ele>
        <time>2018-11-25T15:41:39.148Z</time>
      </trkpt>
      <trkpt lat="55.46279763802886" lon="12.143365954980254">
        <ele>7.0</ele>
        <time>2018-11-25T15:41:44.407Z</time>
      </trkpt>
      <trkpt lat="55.46272035688162" lon="12.14295289479196">
        <ele>6.0</ele>
        <time>2018-11-25T15:41:49.674Z</time>
      </trkpt>
      <trkpt lat="55.46270560473204" lon="12.142648631706834">
        <ele>5.0</ele>
        <time>2018-11-25T15:41:54.947Z</time>
      </trkpt>
      <trkpt lat="55.462683560326695" lon="12.142511084675789">
        <ele>4.0</ele>
        <time>2018-11-25T15:42:00.222Z</time>
      </trkpt>
      <trkpt lat="55.46272597275674" lon="12.142395665869117">
        <ele>4.0</ele>
        <time>2018-11-25T15:42:05.500Z</time>
      </trkpt>
      <trkpt lat="55.46279612928629" lon="12.14229030534625">
        <ele>3.0</ele>
        <time>2018-11-25T15:42:10.781Z</time>
      </trkpt>
      <trkpt lat="55.462822280824184" lon="12.14217740111053">
        <ele>3.0</ele>
        <time>2018-11-25T15:42:16.064Z</time>
      </trkpt>
      <trkpt lat="55.462829656898975" lon="12.141979085281491">
        <ele>2.0</ele>
        <time>2018-11-25T15:42:21.351Z</time>
      </trkpt>
      <trkpt lat="55.462865363806486" lon="12.141817230731249">
        <ele>1.0</ele>
        <time>2018-11-25T15:42:26.641Z</time>
      </trkpt>
      <trkpt lat="55.46288070268929" lon="12.141647664830089">
        <ele>1.0</ele>
        <time>2018-11-25T15:42:31.935Z</time>
      </trkpt>
      <trkpt lat="55.462950272485614" lon="12.141356226056814">
        <ele>1.0</ele>
        <time>2018-11-25T15:42:37.234Z</time>
      </trkpt>
      <trkpt lat="55.46300877816975" lon="12.140946770086884">
        <ele>1.0</ele>
        <time>2018-11-25T15:42:42.541Z</time>
      </trkpt>
      <trkpt lat="55.463037360459566" lon="12.14088348671794">
        <ele>2.0</ele>
        <time>2018-11-25T15:42:47.850Z</time>
      </trkpt>
      <trkpt lat="55.46304632909596" lon="12.14079799130559">
        <ele>2.0</ele>
        <time>2018-11-25T15:42:53.161Z</time>
      </trkpt>
      <trkpt lat="55.46302772127092" lon="12.140608225017786">
        <ele>2.0</ele>
        <time>2018-11-25T15:42:58.475Z</time>
      </trkpt>
      <trkpt lat="55.46305429190397" lon="12.140421476215124">
        <ele>2.0</ele>
        <time>2018-11-25T15:43:03.793Z</time>
      </trkpt>
      <trkpt lat="55.46310265548527" lon="12.140292059630156">
        <ele>3.0</ele>
        <time>2018-11-25T15:43:09.114Z</time>
      </trkpt>
      <trkpt lat="55.463136434555054" lon="12.140128193423152">
        <ele>3.0</ele>
        <time>2018-11-25T15:43:14.438Z</time>
      </trkpt>
      <trkpt lat="55.46320466324687" lon="12.14007094502449">
        <ele>4.0</ele>
        <time>2018-11-25T15:43:19.765Z</time>
      </trkpt>
      <trkpt lat="55.46330382116139" lon="12.14002308435738">
        <ele>5.0</ele>
        <time>2018-11-25T15:43:25.095Z</time>
      </trkpt>
      <trkpt lat="55.46347984112799" lon="12.139840023592114">
        <ele>7.0</ele>
        <time>2018-11-25T15:43:30.432Z</time>
      </trkpt>
      <trkpt lat="55.463780499994755" lon="12.140003386884928">
        <ele>11.0</ele>
        <time>2018-11-25T15:43:35.779Z</time>
      </trkpt>
      <trkpt lat="55.46383741311729" lon="12.140130624175072">
        <ele>12.0</ele>
        <time>2018-11-25T15:43:41.129Z</time>
      </trkpt>
      <trkpt lat="55.46390136703849" lon="12.140198266133666">
        <ele>12.0</ele>
        <time>2018-11-25T15:43:46.482Z</time>
      </trkpt>
      <trkpt lat="55.46403279528022" lon="12.14054443873465">
        <ele>14.0</ele>
        <time>2018-11-25T15:43:51.842Z</time>
      </trkpt>
      <trkpt lat="55.46411661431193" lon="12.140643345192075">
        <ele>15.0</ele>
        <time>2018-11-25T15:43:57.206Z</time>
      </trkpt>
      <trkpt lat="55.46418484300375" lon="12.14078038930893">
        <ele>16.0</ele>
        <time>2018-11-25T15:44:02.573Z</time>
      </trkpt>
      <trkpt lat="55.46419850550592" lon="12.140961438417435">
        <ele>17.0</ele>
        <time>2018-11-25T15:44:07.944Z</time>
      </trkpt>
      <trkpt lat="55.4641580209136" lon="12.141242567449808">
        <ele>18.0</ele>
        <time>2018-11-25T15:44:13.320Z</time>
      </trkpt>
      <trkpt lat="55.464159194380045" lon="12.141601145267487">
        <ele>18.0</ele>
        <time>2018-11-25T15:44:18.703Z</time>
      </trkpt>
      <trkpt lat="55.46430906280875" lon="12.142369011417031">
        <ele>19.0</ele>
        <time>2018-11-25T15:44:24.101Z</time>
      </trkpt>
      <trkpt lat="55.464310655370355" lon="12.142744436860085">
        <ele>18.0</ele>
        <time>2018-11-25T15:44:29.506Z</time>
      </trkpt>
      <trkpt lat="55.46433236449957" lon="12.142760111019015">
        <ele>19.0</ele>
        <time>2018-11-25T15:44:34.912Z</time>
      </trkpt>
      <trkpt lat="55.46434015966952" lon="12.142802188172936">
        <ele>19.0</ele>
        <time>2018-11-25T15:44:40.319Z</time>
      </trkpt>
      <trkpt lat="55.46438064426184" lon="12.142826495692134">
        <ele>19.0</ele>
        <time>2018-11-25T15:44:45.727Z</time>
      </trkpt>
      <trkpt lat="55.46439464204013" lon="12.142868991941214">
        <ele>19.0</ele>
        <time>2018-11-25T15:44:51.136Z</time>
      </trkpt>
      <trkpt lat="55.46442381106317" lon="12.142869746312499">
        <ele>20.0</ele>
        <time>2018-11-25T15:44:56.546Z</time>
      </trkpt>
      <trkpt lat="55.46451710164547" lon="12.142761871218681">
        <ele>21.0</ele>
        <time>2018-11-25T15:45:01.960Z</time>
      </trkpt>
      <trkpt lat="55.46465054154396" lon="12.142520975321531">
        <ele>24.0</ele>
        <time>2018-11-25T15:45:07.380Z</time>
      </trkpt>
      <trkpt lat="55.4647106397897" lon="12.14246372692287">
        <ele>24.0</ele>
        <time>2018-11-25T15:45:12.802Z</time>
      </trkpt>
      <trkpt lat="55.46473000198603" lon="12.142480406910181">
        <ele>24.0</ele>
        <time>2018-11-25T15:45:18.225Z</time>
      </trkpt>
      <trkpt lat="55.46477518044412" lon="12.142709819599986">
        <ele>23.0</ele>
        <time>2018-11-25T15:45:23.653Z</time>
      </trkpt>
      <trkpt lat="55.46480066142976" lon="12.142699845135212">
        <ele>23.0</ele>
        <time>2018-11-25T15:45:29.082Z</time>
      </trkpt>
      <trkpt lat="55.46477174386382" lon="12.143371235579252">
        <ele>21.0</ele>
        <time>2018-11-25T15:45:34.523Z</time>
      </trkpt>
      <trkpt lat="55.46473561786115" lon="12.143620010465384">
        <ele>21.0</ele>
        <time>2018-11-25T15:45:39.969Z</time>
      </trkpt>
      <trkpt lat="55.46469245105982" lon="12.144246390089393">
        <ele>20.0</ele>
        <time>2018-11-25T15:45:45.427Z</time>
      </trkpt>
      <trkpt lat="55.46468717046082" lon="12.14501827955246">
        <ele>19.0</ele>
        <time>2018-11-25T15:45:50.900Z</time>
      </trkpt>
      <trkpt lat="55.464628329500556" lon="12.145423544570804">
        <ele>20.0</ele>
        <time>2018-11-25T15:45:56.380Z</time>
      </trkpt>
      <trkpt lat="55.46463436447084" lon="12.145600989460945">
        <ele>20.0</ele>
        <time>2018-11-25T15:46:01.864Z</time>
      </trkpt>
      <trkpt lat="55.46458558179438" lon="12.146093929186463">
        <ele>21.0</ele>
        <time>2018-11-25T15:46:07.357Z</time>
      </trkpt>
      <trkpt lat="55.46460301615298" lon="12.146296603605151">
        <ele>21.0</ele>
        <time>2018-11-25T15:46:12.854Z</time>
      </trkpt>
      <trkpt lat="55.464491033926606" lon="12.147129094228148">
        <ele>21.0</ele>
        <time>2018-11-25T15:46:18.367Z</time>
      </trkpt>
      <trkpt lat="55.46432113274932" lon="12.147887907922268">
        <ele>20.0</ele>
        <time>2018-11-25T15:46:23.895Z</time>
      </trkpt>
      <trkpt lat="55.46428022906184" lon="12.148185968399048">
        <ele>21.0</ele>
        <time>2018-11-25T15:46:29.429Z</time>
      </trkpt>
      <trkpt lat="55.464217364788055" lon="12.149617513641715">
        <ele>22.0</ele>
        <time>2018-11-25T15:46:34.990Z</time>
      </trkpt>
      <trkpt lat="55.464163552969694" lon="12.150267781689763">
        <ele>21.0</ele>
        <time>2018-11-25T15:46:40.564Z</time>
      </trkpt>
      <trkpt lat="55.46411887742579" lon="12.150451764464378">
        <ele>20.0</ele>
        <time>2018-11-25T15:46:46.141Z</time>
      </trkpt>
      <trkpt lat="55.46415651217103" lon="12.15078410692513">
        <ele>19.0</ele>
        <time>2018-11-25T15:46:51.725Z</time>
      </trkpt>
      <trkpt lat="55.464229015633464" lon="12.150964066386223">
        <ele>19.0</ele>
        <time>2018-11-25T15:46:57.313Z</time>
      </trkpt>
      <trkpt lat="55.46431174501777" lon="12.151317279785872">
        <ele>17.0</ele>
        <time>2018-11-25T15:47:02.908Z</time>
      </trkpt>
      <trkpt lat="55.46445314772427" lon="12.151718437671661">
        <ele>16.0</ele>
        <time>2018-11-25T15:47:08.512Z</time>
      </trkpt>
      <trkpt lat="55.464487597346306" lon="12.151779625564814">
        <ele>16.0</ele>
        <time>2018-11-25T15:47:14.118Z</time>
      </trkpt>
      <trkpt lat="55.464599411934614" lon="12.151856906712055">
        <ele>15.0</ele>
        <time>2018-11-25T15:47:19.728Z</time>
      </trkpt>
      <trkpt lat="55.46477057039738" lon="12.15201985090971">
        <ele>14.0</ele>
        <time>2018-11-25T15:47:25.344Z</time>
      </trkpt>
      <trkpt lat="55.46509318985045" lon="12.152201570570469">
        <ele>12.0</ele>
        <time>2018-11-25T15:47:30.971Z</time>
      </trkpt>
      <trkpt lat="55.4651874024421" lon="12.15228077955544">
        <ele>11.0</ele>
        <time>2018-11-25T15:47:36.602Z</time>
      </trkpt>
      <trkpt lat="55.465559056028724" lon="12.152471551671624">
        <ele>9.0</ele>
        <time>2018-11-25T15:47:42.246Z</time>
      </trkpt>
      <trkpt lat="55.46564974822104" lon="12.152540870010853">
        <ele>10.0</ele>
        <time>2018-11-25T15:47:47.893Z</time>
      </trkpt>
      <trkpt lat="55.46585409902036" lon="12.152647320181131">
        <ele>12.0</ele>
        <time>2018-11-25T15:47:53.547Z</time>
      </trkpt>
      <trkpt lat="55.46596792526543" lon="12.152757374569774">
        <ele>13.0</ele>
        <time>2018-11-25T15:47:59.205Z</time>
      </trkpt>
      <trkpt lat="55.4663441888988" lon="12.153192479163408">
        <ele>17.0</ele>
        <time>2018-11-25T15:48:04.878Z</time>
      </trkpt>
      <trkpt lat="55.46640805900097" lon="12.153156269341707">
        <ele>17.0</ele>
        <time>2018-11-25T15:48:10.553Z</time>
      </trkpt>
      <trkpt lat="55.46644292771816" lon="12.153092063963413">
        <ele>17.0</ele>
        <time>2018-11-25T15:48:16.230Z</time>
      </trkpt>
      <trkpt lat="55.46644519083202" lon="12.152831554412842">
        <ele>16.0</ele>
        <time>2018-11-25T15:48:21.912Z</time>
      </trkpt>
      <trkpt lat="55.46646966598928" lon="12.152743628248572">
        <ele>16.0</ele>
        <time>2018-11-25T15:48:27.596Z</time>
      </trkpt>
      <trkpt lat="55.466534458100796" lon="12.152643464505672">
        <ele>16.0</ele>
        <time>2018-11-25T15:48:33.283Z</time>
      </trkpt>
      <trkpt lat="55.466591119766235" lon="12.152353283017874">
        <ele>15.0</ele>
        <time>2018-11-25T15:48:38.975Z</time>
      </trkpt>
      <trkpt lat="55.46658650971949" lon="12.152260662987828">
        <ele>15.0</ele>
        <time>2018-11-25T15:48:44.669Z</time>
      </trkpt>
      <trkpt lat="55.466640908271074" lon="12.151888255029917">
        <ele>14.0</ele>
        <time>2018-11-25T15:48:50.370Z</time>
      </trkpt>
      <trkpt lat="55.46664744615555" lon="12.151642246171832">
        <ele>13.0</ele>
        <time>2018-11-25T15:48:56.076Z</time>
      </trkpt>
      <trkpt lat="55.46671508811414" lon="12.151073617860675">
        <ele>13.0</ele>
        <time>2018-11-25T15:49:01.793Z</time>
      </trkpt>
      <trkpt lat="55.466846600174904" lon="12.150853592902422">
        <ele>12.0</ele>
        <time>2018-11-25T15:49:07.516Z</time>
      </trkpt>
      <trkpt lat="55.46687727794051" lon="12.150862896814942">
        <ele>12.0</ele>
        <time>2018-11-25T15:49:13.240Z</time>
      </trkpt>
      <trkpt lat="55.46699093654752" lon="12.150970520451665">
        <ele>13.0</ele>
        <time>2018-11-25T15:49:18.968Z</time>
      </trkpt>
      <trkpt lat="55.46703837811947" lon="12.151078898459673">
        <ele>14.0</ele>
        <time>2018-11-25T15:49:24.699Z</time>
      </trkpt>
      <trkpt lat="55.46706469729543" lon="12.151098679751158">
        <ele>14.0</ele>
        <time>2018-11-25T15:49:30.431Z</time>
      </trkpt>
      <trkpt lat="55.46725689433515" lon="12.15115592814982">
        <ele>14.0</ele>
        <time>2018-11-25T15:49:36.169Z</time>
      </trkpt>
      <trkpt lat="55.46727851964533" lon="12.151296408846974">
        <ele>14.0</ele>
        <time>2018-11-25T15:49:41.910Z</time>
      </trkpt>
      <trkpt lat="55.4673373606056" lon="12.151273442432284">
        <ele>14.0</ele>
        <time>2018-11-25T15:49:47.653Z</time>
      </trkpt>
      <trkpt lat="55.467349933460355" lon="12.151300935074687">
        <ele>14.0</ele>
        <time>2018-11-25T15:49:53.397Z</time>
      </trkpt>
      <trkpt lat="55.467447163537145" lon="12.151350807398558">
        <ele>14.0</ele>
        <time>2018-11-25T15:49:59.144Z</time>
      </trkpt>
      <trkpt lat="55.46749058179557" lon="12.151399841532111">
        <ele>14.0</ele>
        <time>2018-11-25T15:50:04.893Z</time>
      </trkpt>
      <trkpt lat="55.46753148548305" lon="12.151505704969168">
        <ele>14.0</ele>
        <time>2018-11-25T15:50:10.644Z</time>
      </trkpt>
      <trkpt lat="55.467592757195234" lon="12.151765879243612">
        <ele>15.0</ele>
        <time>2018-11-25T15:50:16.400Z</time>
      </trkpt>
      <trkpt lat="55.46757741831243" lon="12.152140466496348">
        <ele>15.0</ele>
        <time>2018-11-25T15:50:22.163Z</time>
      </trkpt>
      <trkpt lat="55.46752310357988" lon="12.152348337695003">
        <ele>16.0</ele>
        <time>2018-11-25T15:50:27.931Z</time>
      </trkpt>
      <trkpt lat="55.46750600449741" lon="12.152368118986487">
        <ele>16.0</ele>
        <time>2018-11-25T15:50:33.699Z</time>
      </trkpt>
      <trkpt lat="55.46745001338422" lon="12.15238245204091">
        <ele>17.0</ele>
        <time>2018-11-25T15:50:39.469Z</time>
      </trkpt>
      <trkpt lat="55.4674184974283" lon="12.15234381146729">
        <ele>17.0</ele>
        <time>2018-11-25T15:50:45.241Z</time>
      </trkpt>
      <trkpt lat="55.467408522963524" lon="12.152209198102355">
        <ele>16.0</ele>
        <time>2018-11-25T15:50:51.015Z</time>
      </trkpt>
      <trkpt lat="55.46732956543565" lon="12.151995711028576">
        <ele>16.0</ele>
        <time>2018-11-25T15:50:56.794Z</time>
      </trkpt>
      <trkpt lat="55.467344569042325" lon="12.151871491223574">
        <ele>16.0</ele>
        <time>2018-11-25T15:51:02.575Z</time>
      </trkpt>
      <trkpt lat="55.46729939058423" lon="12.151742996647954">
        <ele>16.0</ele>
        <time>2018-11-25T15:51:08.359Z</time>
      </trkpt>
      <trkpt lat="55.467305509373546" lon="12.151613915339112">
        <ele>16.0</ele>
        <time>2018-11-25T15:51:14.146Z</time>
      </trkpt>
      <trkpt lat="55.46736208721995" lon="12.151470249518752">
        <ele>15.0</ele>
        <time>2018-11-25T15:51:19.936Z</time>
      </trkpt>
      <trkpt lat="55.467430148273706" lon="12.151409229263663">
        <ele>14.0</ele>
        <time>2018-11-25T15:51:25.728Z</time>
      </trkpt>
      <trkpt lat="55.46746711246669" lon="12.151391794905066">
        <ele>14.0</ele>
        <time>2018-11-25T15:51:31.522Z</time>
      </trkpt>
      <trkpt lat="55.46750960871577" lon="12.151395985856652">
        <ele>14.0</ele>
        <time>2018-11-25T15:51:37.317Z</time>
      </trkpt>
      <trkpt lat="55.46754363924265" lon="12.151371343061328">
        <ele>14.0</ele>
        <time>2018-11-25T15:51:43.113Z</time>
      </trkpt>
      <trkpt lat="55.46759560704231" lon="12.151317279785872">
        <ele>13.0</ele>
        <time>2018-11-25T15:51:48.911Z</time>
      </trkpt>
      <trkpt lat="55.467596696689725" lon="12.151276962831616">
        <ele>13.0</ele>
        <time>2018-11-25T15:51:54.710Z</time>
      </trkpt>
      <trkpt lat="55.467546824365854" lon="12.151201609522104">
        <ele>13.0</ele>
        <time>2018-11-25T15:52:00.511Z</time>
      </trkpt>
      <trkpt lat="55.46745562925935" lon="12.15114125981927">
        <ele>13.0</ele>
        <time>2018-11-25T15:52:06.315Z</time>
      </trkpt>
      <trkpt lat="55.467268377542496" lon="12.150868428871036">
        <ele>13.0</ele>
        <time>2018-11-25T15:52:12.128Z</time>
      </trkpt>
      <trkpt lat="55.467233676463366" lon="12.15086817741394">
        <ele>13.0</ele>
        <time>2018-11-25T15:52:17.942Z</time>
      </trkpt>
      <trkpt lat="55.46698858961463" lon="12.150679919868708">
        <ele>12.0</ele>
        <time>2018-11-25T15:52:23.765Z</time>
      </trkpt>
      <trkpt lat="55.46688591130078" lon="12.15067120268941">
        <ele>12.0</ele>
        <time>2018-11-25T15:52:29.591Z</time>
      </trkpt>
      <trkpt lat="55.466857915744185" lon="12.150716464966536">
        <ele>12.0</ele>
        <time>2018-11-25T15:52:35.418Z</time>
      </trkpt>
      <trkpt lat="55.466785077005625" lon="12.150658713653684">
        <ele>11.0</ele>
        <time>2018-11-25T15:52:41.248Z</time>
      </trkpt>
      <trkpt lat="55.46670578420162" lon="12.150501972064376">
        <ele>11.0</ele>
        <time>2018-11-25T15:52:47.082Z</time>
      </trkpt>
      <trkpt lat="55.46658240258694" lon="12.150004589930177">
        <ele>10.0</ele>
        <time>2018-11-25T15:52:52.926Z</time>
      </trkpt>
      <trkpt lat="55.46658265404403" lon="12.149726813659072">
        <ele>10.0</ele>
        <time>2018-11-25T15:52:58.775Z</time>
      </trkpt>
      <trkpt lat="55.46662322245538" lon="12.149591194465756">
        <ele>10.0</ele>
        <time>2018-11-25T15:53:04.627Z</time>
      </trkpt>
      <trkpt lat="55.46664350666106" lon="12.149389442056417">
        <ele>10.0</ele>
        <time>2018-11-25T15:53:10.483Z</time>
      </trkpt>
      <trkpt lat="55.466720033437014" lon="12.148971185088158">
        <ele>10.0</ele>
        <time>2018-11-25T15:53:16.347Z</time>
      </trkpt>
      <trkpt lat="55.46678440645337" lon="12.148720901459455">
        <ele>11.0</ele>
        <time>2018-11-25T15:53:22.216Z</time>
      </trkpt>
      <trkpt lat="55.46684978529811" lon="12.14859014376998">
        <ele>11.0</ele>
        <time>2018-11-25T15:53:28.089Z</time>
      </trkpt>
      <trkpt lat="55.46688046306372" lon="12.148375064134598">
        <ele>12.0</ele>
        <time>2018-11-25T15:53:33.966Z</time>
      </trkpt>
      <trkpt lat="55.46692899428308" lon="12.148325694724917">
        <ele>12.0</ele>
        <time>2018-11-25T15:53:39.845Z</time>
      </trkpt>
      <trkpt lat="55.46694844029844" lon="12.148264003917575">
        <ele>12.0</ele>
        <time>2018-11-25T15:53:45.725Z</time>
      </trkpt>
      <trkpt lat="55.46691440977156" lon="12.148193847388029">
        <ele>12.0</ele>
        <time>2018-11-25T15:53:51.607Z</time>
      </trkpt>
      <trkpt lat="55.46679907478392" lon="12.148110195994377">
        <ele>12.0</ele>
        <time>2018-11-25T15:53:57.493Z</time>
      </trkpt>
      <trkpt lat="55.46669396571815" lon="12.14785379357636">
        <ele>12.0</ele>
        <time>2018-11-25T15:54:03.385Z</time>
      </trkpt>
      <trkpt lat="55.466533452272415" lon="12.147759078070521">
        <ele>11.0</ele>
        <time>2018-11-25T15:54:09.282Z</time>
      </trkpt>
      <trkpt lat="55.466368244960904" lon="12.147562857717276">
        <ele>11.0</ele>
        <time>2018-11-25T15:54:15.186Z</time>
      </trkpt>
      <trkpt lat="55.46633144840598" lon="12.14756260626018">
        <ele>10.0</ele>
        <time>2018-11-25T15:54:21.091Z</time>
      </trkpt>
      <trkpt lat="55.46630856581032" lon="12.147540645673871">
        <ele>11.0</ele>
        <time>2018-11-25T15:54:26.997Z</time>
      </trkpt>
      <trkpt lat="55.46628702431917" lon="12.147518517449498">
        <ele>11.0</ele>
        <time>2018-11-25T15:54:32.904Z</time>
      </trkpt>
      <trkpt lat="55.4662614595145" lon="12.14742430485785">
        <ele>11.0</ele>
        <time>2018-11-25T15:54:38.813Z</time>
      </trkpt>
      <trkpt lat="55.46611444093287" lon="12.14728650636971">
        <ele>12.0</ele>
        <time>2018-11-25T15:54:44.727Z</time>
      </trkpt>
      <trkpt lat="55.46607538126409" lon="12.147192126139998">
        <ele>13.0</ele>
        <time>2018-11-25T15:54:50.644Z</time>
      </trkpt>
      <trkpt lat="55.466011594980955" lon="12.146723913028836">
        <ele>14.0</ele>
        <time>2018-11-25T15:54:56.570Z</time>
      </trkpt>
      <trkpt lat="55.46603296883404" lon="12.146450998261571">
        <ele>14.0</ele>
        <time>2018-11-25T15:55:02.501Z</time>
      </trkpt>
      <trkpt lat="55.46609591692686" lon="12.146301381289959">
        <ele>13.0</ele>
        <time>2018-11-25T15:55:08.435Z</time>
      </trkpt>
      <trkpt lat="55.46614017337561" lon="12.146089486777782">
        <ele>13.0</ele>
        <time>2018-11-25T15:55:14.374Z</time>
      </trkpt>
      <trkpt lat="55.46614243648946" lon="12.145997621119022">
        <ele>13.0</ele>
        <time>2018-11-25T15:55:20.314Z</time>
      </trkpt>
      <trkpt lat="55.46619348227978" lon="12.145870216190815">
        <ele>12.0</ele>
        <time>2018-11-25T15:55:26.257Z</time>
      </trkpt>
      <trkpt lat="55.46618979424238" lon="12.145814225077629">
        <ele>12.0</ele>
        <time>2018-11-25T15:55:32.201Z</time>
      </trkpt>
      <trkpt lat="55.466219214722514" lon="12.145730489864945">
        <ele>12.0</ele>
        <time>2018-11-25T15:55:38.147Z</time>
      </trkpt>
      <trkpt lat="55.466244695708156" lon="12.145668379962444">
        <ele>12.0</ele>
        <time>2018-11-25T15:55:44.095Z</time>
      </trkpt>
      <trkpt lat="55.4664287623018" lon="12.145396890118718">
        <ele>11.0</ele>
        <time>2018-11-25T15:55:50.051Z</time>
      </trkpt>
      <trkpt lat="55.466580390930176" lon="12.14508768171072">
        <ele>11.0</ele>
        <time>2018-11-25T15:55:56.014Z</time>
      </trkpt>
      <trkpt lat="55.46682086773217" lon="12.14475642889738">
        <ele>11.0</ele>
        <time>2018-11-25T15:56:01.987Z</time>
      </trkpt>
      <trkpt lat="55.46690510585904" lon="12.144615445286036">
        <ele>10.0</ele>
        <time>2018-11-25T15:56:07.964Z</time>
      </trkpt>
      <trkpt lat="55.46718589961529" lon="12.143888566643">
        <ele>7.0</ele>
        <time>2018-11-25T15:56:13.958Z</time>
      </trkpt>
      <trkpt lat="55.46727022156119" lon="12.1435362752527">
        <ele>7.0</ele>
        <time>2018-11-25T15:56:19.959Z</time>
      </trkpt>
      <trkpt lat="55.4671248793602" lon="12.143379868939519">
        <ele>7.0</ele>
        <time>2018-11-25T15:56:25.966Z</time>
      </trkpt>
      <trkpt lat="55.46702194958925" lon="12.143333265557885">
        <ele>8.0</ele>
        <time>2018-11-25T15:56:31.976Z</time>
      </trkpt>
      <trkpt lat="55.46688389964402" lon="12.143241735175252">
        <ele>9.0</ele>
        <time>2018-11-25T15:56:37.991Z</time>
      </trkpt>
      <trkpt lat="55.46673461794853" lon="12.143087675794959">
        <ele>10.0</ele>
        <time>2018-11-25T15:56:44.012Z</time>
      </trkpt>
      <trkpt lat="55.466647781431675" lon="12.143020033836365">
        <ele>11.0</ele>
        <time>2018-11-25T15:56:50.036Z</time>
      </trkpt>
      <trkpt lat="55.466422978788614" lon="12.142892125993967">
        <ele>13.0</ele>
        <time>2018-11-25T15:56:56.068Z</time>
      </trkpt>
      <trkpt lat="55.46636212617159" lon="12.142792968079448">
        <ele>14.0</ele>
        <time>2018-11-25T15:57:02.103Z</time>
      </trkpt>
      <trkpt lat="55.466247126460075" lon="12.142479820176959">
        <ele>16.0</ele>
        <time>2018-11-25T15:57:08.145Z</time>
      </trkpt>
      <trkpt lat="55.466156769543886" lon="12.142320144921541">
        <ele>18.0</ele>
        <time>2018-11-25T15:57:14.191Z</time>
      </trkpt>
      <trkpt lat="55.46611988916993" lon="12.142304135486484">
        <ele>18.0</ele>
        <time>2018-11-25T15:57:20.238Z</time>
      </trkpt>
      <trkpt lat="55.465962225571275" lon="12.14216809719801">
        <ele>20.0</ele>
        <time>2018-11-25T15:57:26.291Z</time>
      </trkpt>
      <trkpt lat="55.465931966900826" lon="12.142105735838413">
        <ele>21.0</ele>
        <time>2018-11-25T15:57:32.345Z</time>
      </trkpt>
      <trkpt lat="55.46582140959799" lon="12.141997776925564">
        <ele>22.0</ele>
        <time>2018-11-25T15:57:38.404Z</time>
      </trkpt>
      <trkpt lat="55.46568335965276" lon="12.141826031729579">
        <ele>24.0</ele>
        <time>2018-11-25T15:57:44.468Z</time>
      </trkpt>
      <trkpt lat="55.46566726639867" lon="12.141777584329247">
        <ele>24.0</ele>
        <time>2018-11-25T15:57:50.533Z</time>
      </trkpt>
      <trkpt lat="55.46558244153857" lon="12.141671888530254">
        <ele>25.0</ele>
        <time>2018-11-25T15:57:56.602Z</time>
      </trkpt>
      <trkpt lat="55.465551763772964" lon="12.141558732837439">
        <ele>26.0</ele>
        <time>2018-11-25T15:58:02.673Z</time>
      </trkpt>
      <trkpt lat="55.46545377932489" lon="12.1414537075907">
        <ele>26.0</ele>
        <time>2018-11-25T15:58:08.748Z</time>
      </trkpt>
      <trkpt lat="55.465330397710204" lon="12.141392771154642">
        <ele>26.0</ele>
        <time>2018-11-25T15:58:14.827Z</time>
      </trkpt>
      <trkpt lat="55.46521690674126" lon="12.141364021226764">
        <ele>25.0</ele>
        <time>2018-11-25T15:58:20.910Z</time>
      </trkpt>
      <trkpt lat="55.465166699141264" lon="12.141316495835781">
        <ele>25.0</ele>
        <time>2018-11-25T15:58:26.995Z</time>
      </trkpt>
      <trkpt lat="55.46507910825312" lon="12.141149947419763">
        <ele>24.0</ele>
        <time>2018-11-25T15:58:33.084Z</time>
      </trkpt>
      <trkpt lat="55.464901914820075" lon="12.140905447304249">
        <ele>23.0</ele>
        <time>2018-11-25T15:58:39.180Z</time>
      </trkpt>
      <trkpt lat="55.46485765837133" lon="12.140794387087226">
        <ele>23.0</ele>
        <time>2018-11-25T15:58:45.279Z</time>
      </trkpt>
      <trkpt lat="55.46469287015498" lon="12.140540750697255">
        <ele>22.0</ele>
        <time>2018-11-25T15:58:51.385Z</time>
      </trkpt>
      <trkpt lat="55.4646554030478" lon="12.140405382961035">
        <ele>21.0</ele>
        <time>2018-11-25T15:58:57.494Z</time>
      </trkpt>
      <trkpt lat="55.46462472528219" lon="12.140156775712967">
        <ele>20.0</ele>
        <time>2018-11-25T15:59:03.608Z</time>
      </trkpt>
      <trkpt lat="55.46464090235531" lon="12.13938932865858">
        <ele>19.0</ele>
        <time>2018-11-25T15:59:09.736Z</time>
      </trkpt>
      <trkpt lat="55.4646897688508" lon="12.139203334227204">
        <ele>19.0</ele>
        <time>2018-11-25T15:59:15.868Z</time>
      </trkpt>
      <trkpt lat="55.464726984500885" lon="12.138956570997834">
        <ele>19.0</ele>
        <time>2018-11-25T15:59:22.005Z</time>
      </trkpt>
      <trkpt lat="55.46480837278068" lon="12.138760685920715">
        <ele>19.0</ele>
        <time>2018-11-25T15:59:28.147Z</time>
      </trkpt>
      <trkpt lat="55.464807618409395" lon="12.138679381459951">
        <ele>19.0</ele>
        <time>2018-11-25T15:59:34.290Z</time>
      </trkpt>
      <trkpt lat="55.46496285125613" lon="12.13802257552743">
        <ele>18.0</ele>
        <time>2018-11-25T15:59:40.447Z</time>
      </trkpt>
      <trkpt lat="55.465023284778" lon="12.137899780645967">
        <ele>18.0</ele>
        <time>2018-11-25T15:59:46.607Z</time>
      </trkpt>
      <trkpt lat="55.46504222787917" lon="12.137821661308408">
        <ele>18.0</ele>
        <time>2018-11-25T15:59:52.768Z</time>
      </trkpt>
      <trkpt lat="55.46507919207215" lon="12.137568444013596">
        <ele>18.0</ele>
        <time>2018-11-25T15:59:58.934Z</time>
      </trkpt>
      <trkpt lat="55.46528320759535" lon="12.137166783213615">
        <ele>19.0</ele>
        <time>2018-11-25T16:00:05.110Z</time>
      </trkpt>
      <trkpt lat="55.465303575620055" lon="12.1368826366961">
        <ele>19.0</ele>
        <time>2018-11-25T16:00:11.292Z</time>
      </trkpt>
      <trkpt lat="55.46535705216229" lon="12.136561861261725">
        <ele>19.0</ele>
        <time>2018-11-25T16:00:17.480Z</time>
      </trkpt>
      <trkpt lat="55.46534975990653" lon="12.13646144606173">
        <ele>19.0</ele>
        <time>2018-11-25T16:00:23.670Z</time>
      </trkpt>
      <trkpt lat="55.465427627786994" lon="12.135967081412673">
        <ele>21.0</ele>
        <time>2018-11-25T16:00:29.869Z</time>
      </trkpt>
      <trkpt lat="55.465457551181316" lon="12.135843951255083">
        <ele>22.0</ele>
        <time>2018-11-25T16:00:36.071Z</time>
      </trkpt>
      <trkpt lat="55.46553432941437" lon="12.135673211887479">
        <ele>23.0</ele>
        <time>2018-11-25T16:00:42.277Z</time>
      </trkpt>
      <trkpt lat="55.4655740596354" lon="12.1355374250561">
        <ele>23.0</ele>
        <time>2018-11-25T16:00:48.486Z</time>
      </trkpt>
      <trkpt lat="55.465608928352594" lon="12.135276077315211">
        <ele>24.0</ele>
        <time>2018-11-25T16:00:54.700Z</time>
      </trkpt>
      <trkpt lat="55.46566257253289" lon="12.13504490442574">
        <ele>25.0</ele>
        <time>2018-11-25T16:01:00.919Z</time>
      </trkpt>
      <trkpt lat="55.46571898274124" lon="12.134864777326584">
        <ele>25.0</ele>
        <time>2018-11-25T16:01:07.142Z</time>
      </trkpt>
      <trkpt lat="55.46582015231252" lon="12.134691691026092">
        <ele>25.0</ele>
        <time>2018-11-25T16:01:13.369Z</time>
      </trkpt>
      <trkpt lat="55.46593381091952" lon="12.134406203404069">
        <ele>25.0</ele>
        <time>2018-11-25T16:01:19.603Z</time>
      </trkpt>
      <trkpt lat="55.46606037765741" lon="12.134154411032796">
        <ele>26.0</ele>
        <time>2018-11-25T16:01:25.843Z</time>
      </trkpt>
      <trkpt lat="55.46618442982435" lon="12.133943187072873">
        <ele>26.0</ele>
        <time>2018-11-25T16:01:32.089Z</time>
      </trkpt>
      <trkpt lat="55.466301776468754" lon="12.133793653920293">
        <ele>28.0</ele>
        <time>2018-11-25T16:01:38.340Z</time>
      </trkpt>
      <trkpt lat="55.46645843423903" lon="12.133488804101944">
        <ele>28.0</ele>
        <time>2018-11-25T16:01:44.598Z</time>
      </trkpt>
      <trkpt lat="55.46653353609145" lon="12.133417474105954">
        <ele>28.0</ele>
        <time>2018-11-25T16:01:50.859Z</time>
      </trkpt>
      <trkpt lat="55.46658852137625" lon="12.133439518511295">
        <ele>28.0</ele>
        <time>2018-11-25T16:01:57.122Z</time>
      </trkpt>
      <trkpt lat="55.46665054745972" lon="12.133504310622811">
        <ele>28.0</ele>
        <time>2018-11-25T16:02:03.387Z</time>
      </trkpt>
      <trkpt lat="55.466725900769234" lon="12.133731879293919">
        <ele>27.0</ele>
        <time>2018-11-25T16:02:09.657Z</time>
      </trkpt>
      <trkpt lat="55.46676521189511" lon="12.134132366627455">
        <ele>27.0</ele>
        <time>2018-11-25T16:02:15.935Z</time>
      </trkpt>
      <trkpt lat="55.466756746172905" lon="12.134265303611755">
        <ele>26.0</ele>
        <time>2018-11-25T16:02:22.216Z</time>
      </trkpt>
      <trkpt lat="55.46681810170412" lon="12.134660258889198">
        <ele>25.0</ele>
        <time>2018-11-25T16:02:28.504Z</time>
      </trkpt>
      <trkpt lat="55.46698959544301" lon="12.13505077175796">
        <ele>23.0</ele>
        <time>2018-11-25T16:02:34.802Z</time>
      </trkpt>
      <trkpt lat="55.46712965704501" lon="12.13524623773992">
        <ele>22.0</ele>
        <time>2018-11-25T16:02:41.106Z</time>
      </trkpt>
      <trkpt lat="55.46715379692614" lon="12.135360985994339">
        <ele>21.0</ele>
        <time>2018-11-25T16:02:47.412Z</time>
      </trkpt>
      <trkpt lat="55.46709110029042" lon="12.135902624577284">
        <ele>19.0</ele>
        <time>2018-11-25T16:02:53.728Z</time>
      </trkpt>
      <trkpt lat="55.467036198824644" lon="12.136195488274097">
        <ele>18.0</ele>
        <time>2018-11-25T16:03:00.050Z</time>
      </trkpt>
      <trkpt lat="55.46694936230779" lon="12.136466559022665">
        <ele>17.0</ele>
        <time>2018-11-25T16:03:06.378Z</time>
      </trkpt>
      <trkpt lat="55.4669573251158" lon="12.136535039171576">
        <ele>16.0</ele>
        <time>2018-11-25T16:03:12.707Z</time>
      </trkpt>
      <trkpt lat="55.46692329458892" lon="12.136596981436014">
        <ele>16.0</ele>
        <time>2018-11-25T16:03:19.038Z</time>
      </trkpt>
      <trkpt lat="55.466887252405286" lon="12.136730756610632">
        <ele>16.0</ele>
        <time>2018-11-25T16:03:25.372Z</time>
      </trkpt>
      <trkpt lat="55.46685406006873" lon="12.136986404657364">
        <ele>16.0</ele>
        <time>2018-11-25T16:03:31.711Z</time>
      </trkpt>
      <trkpt lat="55.46682430431247" lon="12.137066787108779">
        <ele>16.0</ele>
        <time>2018-11-25T16:03:38.051Z</time>
      </trkpt>
      <trkpt lat="55.46681500039995" lon="12.137302989140153">
        <ele>16.0</ele>
        <time>2018-11-25T16:03:44.396Z</time>
      </trkpt>
      <trkpt lat="55.466853473335505" lon="12.137418072670698">
        <ele>16.0</ele>
        <time>2018-11-25T16:03:50.743Z</time>
      </trkpt>
      <trkpt lat="55.466834949329495" lon="12.137540532276034">
        <ele>15.0</ele>
        <time>2018-11-25T16:03:57.093Z</time>
      </trkpt>
      <trkpt lat="55.46687283553183" lon="12.137818643823266">
        <ele>15.0</ele>
        <time>2018-11-25T16:04:03.448Z</time>
      </trkpt>
      <trkpt lat="55.46694450080395" lon="12.137992400676012">
        <ele>14.0</ele>
        <time>2018-11-25T16:04:09.807Z</time>
      </trkpt>
      <trkpt lat="55.46696905978024" lon="12.13814478367567">
        <ele>14.0</ele>
        <time>2018-11-25T16:04:16.169Z</time>
      </trkpt>
      <trkpt lat="55.46698699705303" lon="12.138174707069993">
        <ele>14.0</ele>
        <time>2018-11-25T16:04:22.532Z</time>
      </trkpt>
      <trkpt lat="55.46698288992047" lon="12.138374615460634">
        <ele>13.0</ele>
        <time>2018-11-25T16:04:28.899Z</time>
      </trkpt>
      <trkpt lat="55.4670091252774" lon="12.138531859964132">
        <ele>13.0</ele>
        <time>2018-11-25T16:04:35.269Z</time>
      </trkpt>
      <trkpt lat="55.466969311237335" lon="12.13916159234941">
        <ele>12.0</ele>
        <time>2018-11-25T16:04:41.651Z</time>
      </trkpt>
      <trkpt lat="55.46698926016688" lon="12.139333169907331">
        <ele>11.0</ele>
        <time>2018-11-25T16:04:48.036Z</time>
      </trkpt>
      <trkpt lat="55.466993702575564" lon="12.139807837083936">
        <ele>10.0</ele>
        <time>2018-11-25T16:04:54.430Z</time>
      </trkpt>
      <trkpt lat="55.4669554810971" lon="12.140118470415473">
        <ele>10.0</ele>
        <time>2018-11-25T16:05:00.830Z</time>
      </trkpt>
      <trkpt lat="55.4669330175966" lon="12.140193656086922">
        <ele>11.0</ele>
        <time>2018-11-25T16:05:07.231Z</time>
      </trkpt>
      <trkpt lat="55.46690644696355" lon="12.14020136743784">
        <ele>11.0</ele>
        <time>2018-11-25T16:05:13.633Z</time>
      </trkpt>
      <trkpt lat="55.4668846540153" lon="12.140240175649524">
        <ele>11.0</ele>
        <time>2018-11-25T16:05:20.036Z</time>
      </trkpt>
      <trkpt lat="55.466879457235336" lon="12.140285354107618">
        <ele>11.0</ele>
        <time>2018-11-25T16:05:26.440Z</time>
      </trkpt>
      <trkpt lat="55.46692362986505" lon="12.140524657443166">
        <ele>11.0</ele>
        <time>2018-11-25T16:05:32.849Z</time>
      </trkpt>
      <trkpt lat="55.46694232150912" lon="12.140546785667539">
        <ele>10.0</ele>
        <time>2018-11-25T16:05:39.259Z</time>
      </trkpt>
      <trkpt lat="55.46695522964001" lon="12.140682991594076">
        <ele>10.0</ele>
        <time>2018-11-25T16:05:45.671Z</time>
      </trkpt>
      <trkpt lat="55.466972747817636" lon="12.14070612564683">
        <ele>10.0</ele>
        <time>2018-11-25T16:05:52.084Z</time>
      </trkpt>
      <trkpt lat="55.46701608225703" lon="12.141193449497223">
        <ele>10.0</ele>
        <time>2018-11-25T16:05:58.506Z</time>
      </trkpt>
      <trkpt lat="55.466962521895766" lon="12.141887051984668">
        <ele>11.0</ele>
        <time>2018-11-25T16:06:04.942Z</time>
      </trkpt>
      <trkpt lat="55.46694265678525" lon="12.141959639266133">
        <ele>11.0</ele>
        <time>2018-11-25T16:06:11.379Z</time>
      </trkpt>
      <trkpt lat="55.46693385578692" lon="12.142207492142916">
        <ele>11.0</ele>
        <time>2018-11-25T16:06:17.821Z</time>
      </trkpt>
      <trkpt lat="55.46687216497958" lon="12.142438665032387">
        <ele>10.0</ele>
        <time>2018-11-25T16:06:24.268Z</time>
      </trkpt>
      <trkpt lat="55.46684945002198" lon="12.142599513754249">
        <ele>10.0</ele>
        <time>2018-11-25T16:06:30.718Z</time>
      </trkpt>
      <trkpt lat="55.466870656237006" lon="12.142692217603326">
        <ele>10.0</ele>
        <time>2018-11-25T16:06:37.170Z</time>
      </trkpt>
      <trkpt lat="55.46685271896422" lon="12.142969323322177">
        <ele>10.0</ele>
        <time>2018-11-25T16:06:43.627Z</time>
      </trkpt>
      <trkpt lat="55.466884318739176" lon="12.14311994612217">
        <ele>9.0</ele>
        <time>2018-11-25T16:06:50.087Z</time>
      </trkpt>
      <trkpt lat="55.4669988155365" lon="12.14311751537025">
        <ele>8.0</ele>
        <time>2018-11-25T16:06:56.551Z</time>
      </trkpt>
      <trkpt lat="55.467047430574894" lon="12.143141655251384">
        <ele>8.0</ele>
        <time>2018-11-25T16:07:03.016Z</time>
      </trkpt>
      <trkpt lat="55.467090010643005" lon="12.143241064622998">
        <ele>7.0</ele>
        <time>2018-11-25T16:07:09.484Z</time>
      </trkpt>
      <trkpt lat="55.467133428901434" lon="12.14327140711248">
        <ele>7.0</ele>
        <time>2018-11-25T16:07:15.953Z</time>
      </trkpt>
      <trkpt lat="55.467187659814954" lon="12.143385568633676">
        <ele>7.0</ele>
        <time>2018-11-25T16:07:22.425Z</time>
      </trkpt>
      <trkpt lat="55.467197466641665" lon="12.143609449267387">
        <ele>7.0</ele>
        <time>2018-11-25T16:07:28.901Z</time>
      </trkpt>
      <trkpt lat="55.4671695549041" lon="12.14385143481195">
        <ele>7.0</ele>
        <time>2018-11-25T16:07:35.382Z</time>
      </trkpt>
      <trkpt lat="55.46709068119526" lon="12.144205654039979">
        <ele>8.0</ele>
        <time>2018-11-25T16:07:41.870Z</time>
      </trkpt>
      <trkpt lat="55.46698087826371" lon="12.144430372864008">
        <ele>9.0</ele>
        <time>2018-11-25T16:07:48.364Z</time>
      </trkpt>
      <trkpt lat="55.46666940674186" lon="12.144859191030264">
        <ele>11.0</ele>
        <time>2018-11-25T16:07:54.871Z</time>
      </trkpt>
      <trkpt lat="55.46647067181766" lon="12.145081395283341">
        <ele>11.0</ele>
        <time>2018-11-25T16:08:01.385Z</time>
      </trkpt>
      <trkpt lat="55.46634209342301" lon="12.145291110500693">
        <ele>11.0</ele>
        <time>2018-11-25T16:08:07.905Z</time>
      </trkpt>
      <trkpt lat="55.46623840928078" lon="12.145532928407192">
        <ele>12.0</ele>
        <time>2018-11-25T16:08:14.431Z</time>
      </trkpt>
      <trkpt lat="55.466060461476445" lon="12.14608940295875">
        <ele>13.0</ele>
        <time>2018-11-25T16:08:20.969Z</time>
      </trkpt>
      <trkpt lat="55.46602902933955" lon="12.14647388085723">
        <ele>14.0</ele>
        <time>2018-11-25T16:08:27.514Z</time>
      </trkpt>
      <trkpt lat="55.46606079675257" lon="12.146742772310972">
        <ele>14.0</ele>
        <time>2018-11-25T16:08:34.064Z</time>
      </trkpt>
      <trkpt lat="55.46608351171017" lon="12.146796751767397">
        <ele>13.0</ele>
        <time>2018-11-25T16:08:40.616Z</time>
      </trkpt>
      <trkpt lat="55.466061886399984" lon="12.147498484700918">
        <ele>13.0</ele>
        <time>2018-11-25T16:08:47.181Z</time>
      </trkpt>
      <trkpt lat="55.46592593193054" lon="12.148184543475509">
        <ele>13.0</ele>
        <time>2018-11-25T16:08:53.760Z</time>
      </trkpt>
      <trkpt lat="55.46583968214691" lon="12.148479837924242">
        <ele>14.0</ele>
        <time>2018-11-25T16:09:00.345Z</time>
      </trkpt>
      <trkpt lat="55.46585460193455" lon="12.148649068549275">
        <ele>13.0</ele>
        <time>2018-11-25T16:09:06.933Z</time>
      </trkpt>
      <trkpt lat="55.46583607792854" lon="12.14901234023273">
        <ele>13.0</ele>
        <time>2018-11-25T16:09:13.528Z</time>
      </trkpt>
      <trkpt lat="55.46584538184106" lon="12.149246027693152">
        <ele>13.0</ele>
        <time>2018-11-25T16:09:20.127Z</time>
      </trkpt>
      <trkpt lat="55.46572485007346" lon="12.149661099538207">
        <ele>13.0</ele>
        <time>2018-11-25T16:09:26.735Z</time>
      </trkpt>
      <trkpt lat="55.46566584147513" lon="12.149737123399973">
        <ele>14.0</ele>
        <time>2018-11-25T16:09:33.346Z</time>
      </trkpt>
      <trkpt lat="55.4653652664274" lon="12.149922782555223">
        <ele>16.0</ele>
        <time>2018-11-25T16:09:39.967Z</time>
      </trkpt>
      <trkpt lat="55.4649265576154" lon="12.150092767551541">
        <ele>20.0</ele>
        <time>2018-11-25T16:09:46.603Z</time>
      </trkpt>
      <trkpt lat="55.46483083628118" lon="12.150088073685765">
        <ele>21.0</ele>
        <time>2018-11-25T16:09:53.242Z</time>
      </trkpt>
      <trkpt lat="55.46455331146717" lon="12.150324191898108">
        <ele>22.0</ele>
        <time>2018-11-25T16:09:59.891Z</time>
      </trkpt>
      <trkpt lat="55.46442682854831" lon="12.150488728657365">
        <ele>21.0</ele>
        <time>2018-11-25T16:10:06.546Z</time>
      </trkpt>
      <trkpt lat="55.46437796205282" lon="12.150494093075395">
        <ele>20.0</ele>
        <time>2018-11-25T16:10:13.202Z</time>
      </trkpt>
      <trkpt lat="55.464306296780705" lon="12.150367526337504">
        <ele>21.0</ele>
        <time>2018-11-25T16:10:19.862Z</time>
      </trkpt>
      <trkpt lat="55.46429045498371" lon="12.150260573253036">
        <ele>21.0</ele>
        <time>2018-11-25T16:10:26.524Z</time>
      </trkpt>
      <trkpt lat="55.464375196024776" lon="12.14938416145742">
        <ele>22.0</ele>
        <time>2018-11-25T16:10:33.202Z</time>
      </trkpt>
      <trkpt lat="55.46438257209957" lon="12.149089956656098">
        <ele>21.0</ele>
        <time>2018-11-25T16:10:39.886Z</time>
      </trkpt>
      <trkpt lat="55.46434812247753" lon="12.149012004956603">
        <ele>21.0</ele>
        <time>2018-11-25T16:10:46.572Z</time>
      </trkpt>
      <trkpt lat="55.464320965111256" lon="12.14901577681303">
        <ele>21.0</ele>
        <time>2018-11-25T16:10:53.259Z</time>
      </trkpt>
      <trkpt lat="55.464261872693896" lon="12.148929443210363">
        <ele>21.0</ele>
        <time>2018-11-25T16:10:59.948Z</time>
      </trkpt>
      <trkpt lat="55.464184088632464" lon="12.148648900911212">
        <ele>20.0</ele>
        <time>2018-11-25T16:11:06.643Z</time>
      </trkpt>
      <trkpt lat="55.46417227014899" lon="12.148507330566645">
        <ele>20.0</ele>
        <time>2018-11-25T16:11:13.341Z</time>
      </trkpt>
      <trkpt lat="55.46421987935901" lon="12.148155877366662">
        <ele>20.0</ele>
        <time>2018-11-25T16:11:20.046Z</time>
      </trkpt>
      <trkpt lat="55.46421334147453" lon="12.14791581965983">
        <ele>20.0</ele>
        <time>2018-11-25T16:11:26.755Z</time>
      </trkpt>
      <trkpt lat="55.46426841057837" lon="12.147775925695896">
        <ele>20.0</ele>
        <time>2018-11-25T16:11:33.467Z</time>
      </trkpt>
      <trkpt lat="55.46426807530224" lon="12.147709876298904">
        <ele>20.0</ele>
        <time>2018-11-25T16:11:40.181Z</time>
      </trkpt>
      <trkpt lat="55.46424938365817" lon="12.147669894620776">
        <ele>20.0</ele>
        <time>2018-11-25T16:11:46.896Z</time>
      </trkpt>
      <trkpt lat="55.46421040780842" lon="12.147661177441478">
        <ele>20.0</ele>
        <time>2018-11-25T16:11:53.612Z</time>
      </trkpt>
      <trkpt lat="55.46420152299106" lon="12.147644748911262">
        <ele>20.0</ele>
        <time>2018-11-25T16:12:00.328Z</time>
      </trkpt>
      <trkpt lat="55.464230105280876" lon="12.147445091977715">
        <ele>20.0</ele>
        <time>2018-11-25T16:12:07.048Z</time>
      </trkpt>
      <trkpt lat="55.46420965343714" lon="12.147358506917953">
        <ele>20.0</ele>
        <time>2018-11-25T16:12:13.770Z</time>
      </trkpt>
      <trkpt lat="55.464267153292894" lon="12.147144936025143">
        <ele>20.0</ele>
        <time>2018-11-25T16:12:20.496Z</time>
      </trkpt>
      <trkpt lat="55.464244270697236" lon="12.147040162235498">
        <ele>20.0</ele>
        <time>2018-11-25T16:12:27.224Z</time>
      </trkpt>
      <trkpt lat="55.46426170505583" lon="12.146958438679576">
        <ele>20.0</ele>
        <time>2018-11-25T16:12:33.954Z</time>
      </trkpt>
      <trkpt lat="55.46427687630057" lon="12.146651493385434">
        <ele>20.0</ele>
        <time>2018-11-25T16:12:40.690Z</time>
      </trkpt>
      <trkpt lat="55.46433873474598" lon="12.14652274735272">
        <ele>20.0</ele>
        <time>2018-11-25T16:12:47.429Z</time>
      </trkpt>
      <trkpt lat="55.46437041833997" lon="12.146302638575435">
        <ele>20.0</ele>
        <time>2018-11-25T16:12:54.172Z</time>
      </trkpt>
      <trkpt lat="55.46438307501376" lon="12.14626919478178">
        <ele>20.0</ele>
        <time>2018-11-25T16:13:00.916Z</time>
      </trkpt>
      <trkpt lat="55.46443495899439" lon="12.146228374913335">
        <ele>20.0</ele>
        <time>2018-11-25T16:13:07.662Z</time>
      </trkpt>
      <trkpt lat="55.46440771780908" lon="12.146012708544731">
        <ele>19.0</ele>
        <time>2018-11-25T16:13:14.412Z</time>
      </trkpt>
      <trkpt lat="55.46442431397736" lon="12.145851524546742">
        <ele>19.0</ele>
        <time>2018-11-25T16:13:21.165Z</time>
      </trkpt>
      <trkpt lat="55.46445356681943" lon="12.145779272541404">
        <ele>19.0</ele>
        <time>2018-11-25T16:13:27.920Z</time>
      </trkpt>
      <trkpt lat="55.46447167173028" lon="12.14559386484325">
        <ele>19.0</ele>
        <time>2018-11-25T16:13:34.678Z</time>
      </trkpt>
      <trkpt lat="55.46450695954263" lon="12.145470818504691">
        <ele>19.0</ele>
        <time>2018-11-25T16:13:41.439Z</time>
      </trkpt>
      <trkpt lat="55.46450402587652" lon="12.145345928147435">
        <ele>19.0</ele>
        <time>2018-11-25T16:13:48.202Z</time>
      </trkpt>
      <trkpt lat="55.46454115770757" lon="12.145141996443272">
        <ele>19.0</ele>
        <time>2018-11-25T16:13:54.969Z</time>
      </trkpt>
      <trkpt lat="55.46457141637802" lon="12.145065134391189">
        <ele>19.0</ele>
        <time>2018-11-25T16:14:01.738Z</time>
      </trkpt>
      <trkpt lat="55.464555993676186" lon="12.144933203235269">
        <ele>19.0</ele>
        <time>2018-11-25T16:14:08.510Z</time>
      </trkpt>
      <trkpt lat="55.4645637050271" lon="12.144726002588868">
        <ele>19.0</ele>
        <time>2018-11-25T16:14:15.286Z</time>
      </trkpt>
      <trkpt lat="55.4645864199847" lon="12.144520729780197">
        <ele>19.0</ele>
        <time>2018-11-25T16:14:22.066Z</time>
      </trkpt>
      <trkpt lat="55.46468339860439" lon="12.14410993270576">
        <ele>20.0</ele>
        <time>2018-11-25T16:14:28.854Z</time>
      </trkpt>
      <trkpt lat="55.46466747298837" lon="12.14403223246336">
        <ele>21.0</ele>
        <time>2018-11-25T16:14:35.643Z</time>
      </trkpt>
      <trkpt lat="55.464679710567" lon="12.14373861439526">
        <ele>21.0</ele>
        <time>2018-11-25T16:14:42.438Z</time>
      </trkpt>
      <trkpt lat="55.46470234170556" lon="12.14368974789977">
        <ele>21.0</ele>
        <time>2018-11-25T16:14:49.234Z</time>
      </trkpt>
      <trkpt lat="55.46474835835397" lon="12.143692513927817">
        <ele>21.0</ele>
        <time>2018-11-25T16:14:56.032Z</time>
      </trkpt>
      <trkpt lat="55.464788004755974" lon="12.143606096506119">
        <ele>21.0</ele>
        <time>2018-11-25T16:15:02.832Z</time>
      </trkpt>
      <trkpt lat="55.464852126315236" lon="12.143166633322835">
        <ele>21.0</ele>
        <time>2018-11-25T16:15:09.640Z</time>
      </trkpt>
      <trkpt lat="55.46484299004078" lon="12.143044006079435">
        <ele>22.0</ele>
        <time>2018-11-25T16:15:16.451Z</time>
      </trkpt>
      <trkpt lat="55.464867716655135" lon="12.14271442964673">
        <ele>23.0</ele>
        <time>2018-11-25T16:15:23.268Z</time>
      </trkpt>
      <trkpt lat="55.464858915656805" lon="12.14267092756927">
        <ele>23.0</ele>
        <time>2018-11-25T16:15:30.086Z</time>
      </trkpt>
      <trkpt lat="55.464825220406055" lon="12.14265525341034">
        <ele>23.0</ele>
        <time>2018-11-25T16:15:36.905Z</time>
      </trkpt>
      <trkpt lat="55.464760763570666" lon="12.142675621435046">
        <ele>23.0</ele>
        <time>2018-11-25T16:15:43.726Z</time>
      </trkpt>
      <trkpt lat="55.46461617574096" lon="12.142764637246728">
        <ele>23.0</ele>
        <time>2018-11-25T16:15:50.552Z</time>
      </trkpt>
      <trkpt lat="55.464534033089876" lon="12.142844181507826">
        <ele>21.0</ele>
        <time>2018-11-25T16:15:57.381Z</time>
      </trkpt>
      <trkpt lat="55.464458176866174" lon="12.142884666100144">
        <ele>20.0</ele>
        <time>2018-11-25T16:16:04.213Z</time>
      </trkpt>
      <trkpt lat="55.4643601924181" lon="12.142896484583616">
        <ele>19.0</ele>
        <time>2018-11-25T16:16:11.048Z</time>
      </trkpt>
      <trkpt lat="55.46434007585049" lon="12.14291668497026">
        <ele>18.0</ele>
        <time>2018-11-25T16:16:17.884Z</time>
      </trkpt>
      <trkpt lat="55.4643686581403" lon="12.143026823177934">
        <ele>18.0</ele>
        <time>2018-11-25T16:16:24.722Z</time>
      </trkpt>
      <trkpt lat="55.464372681453824" lon="12.143120784312487">
        <ele>18.0</ele>
        <time>2018-11-25T16:16:31.562Z</time>
      </trkpt>
      <trkpt lat="55.4643858410418" lon="12.14316294528544">
        <ele>18.0</ele>
        <time>2018-11-25T16:16:38.403Z</time>
      </trkpt>
      <trkpt lat="55.464400593191385" lon="12.143162526190281">
        <ele>19.0</ele>
        <time>2018-11-25T16:16:45.244Z</time>
      </trkpt>
      <trkpt lat="55.46451224014163" lon="12.143478272482753">
        <ele>19.0</ele>
        <time>2018-11-25T16:16:52.092Z</time>
      </trkpt>
      <trkpt lat="55.46454635448754" lon="12.143834168091416">
        <ele>19.0</ele>
        <time>2018-11-25T16:16:58.947Z</time>
      </trkpt>
      <trkpt lat="55.464438227936625" lon="12.14427798986435">
        <ele>18.0</ele>
        <time>2018-11-25T16:17:05.811Z</time>
      </trkpt>
      <trkpt lat="55.46416187658906" lon="12.144998079165816">
        <ele>16.0</ele>
        <time>2018-11-25T16:17:12.692Z</time>
      </trkpt>
      <trkpt lat="55.46402022242546" lon="12.145428573712707">
        <ele>15.0</ele>
        <time>2018-11-25T16:17:19.582Z</time>
      </trkpt>
      <trkpt lat="55.46403204090893" lon="12.14597012847662">
        <ele>16.0</ele>
        <time>2018-11-25T16:17:26.482Z</time>
      </trkpt>
      <trkpt lat="55.464062467217445" lon="12.146463990211487">
        <ele>18.0</ele>
        <time>2018-11-25T16:17:33.392Z</time>
      </trkpt>
      <trkpt lat="55.46398292295635" lon="12.14690387248993">
        <ele>18.0</ele>
        <time>2018-11-25T16:17:40.310Z</time>
      </trkpt>
      <trkpt lat="55.463990131393075" lon="12.14705633930862">
        <ele>18.0</ele>
        <time>2018-11-25T16:17:47.231Z</time>
      </trkpt>
      <trkpt lat="55.46401837840676" lon="12.14716580696404">
        <ele>18.0</ele>
        <time>2018-11-25T16:17:54.154Z</time>
      </trkpt>
      <trkpt lat="55.46401527710259" lon="12.147275106981397">
        <ele>18.0</ele>
        <time>2018-11-25T16:18:01.079Z</time>
      </trkpt>
      <trkpt lat="55.464041931554675" lon="12.14737351052463">
        <ele>19.0</ele>
        <time>2018-11-25T16:18:08.006Z</time>
      </trkpt>
      <trkpt lat="55.46405048109591" lon="12.147620022296906">
        <ele>19.0</ele>
        <time>2018-11-25T16:18:14.938Z</time>
      </trkpt>
      <trkpt lat="55.4640182107687" lon="12.148173647001386">
        <ele>19.0</ele>
        <time>2018-11-25T16:18:21.881Z</time>
      </trkpt>
      <trkpt lat="55.46400245279074" lon="12.148317312821746">
        <ele>19.0</ele>
        <time>2018-11-25T16:18:28.826Z</time>
      </trkpt>
      <trkpt lat="55.46395677141845" lon="12.148437006399035">
        <ele>19.0</ele>
        <time>2018-11-25T16:18:35.774Z</time>
      </trkpt>
      <trkpt lat="55.46394637785852" lon="12.148639680817723">
        <ele>19.0</ele>
        <time>2018-11-25T16:18:42.726Z</time>
      </trkpt>
      <trkpt lat="55.46397973783314" lon="12.14901669882238">
        <ele>20.0</ele>
        <time>2018-11-25T16:18:49.685Z</time>
      </trkpt>
      <trkpt lat="55.46398996375501" lon="12.14909196831286">
        <ele>20.0</ele>
        <time>2018-11-25T16:18:56.646Z</time>
      </trkpt>
      <trkpt lat="55.46402961015701" lon="12.149174278602004">
        <ele>20.0</ele>
        <time>2018-11-25T16:19:03.609Z</time>
      </trkpt>
      <trkpt lat="55.46402600593865" lon="12.14935532771051">
        <ele>21.0</ele>
        <time>2018-11-25T16:19:10.575Z</time>
      </trkpt>
      <trkpt lat="55.46404645778239" lon="12.149355662986636">
        <ele>21.0</ele>
        <time>2018-11-25T16:19:17.542Z</time>
      </trkpt>
      <trkpt lat="55.46405919827521" lon="12.149498239159584">
        <ele>21.0</ele>
        <time>2018-11-25T16:19:24.511Z</time>
      </trkpt>
      <trkpt lat="55.464083924889565" lon="12.149540735408664">
        <ele>21.0</ele>
        <time>2018-11-25T16:19:31.482Z</time>
      </trkpt>
      <trkpt lat="55.46412826515734" lon="12.149541657418013">
        <ele>21.0</ele>
        <time>2018-11-25T16:19:38.454Z</time>
      </trkpt>
      <trkpt lat="55.46415894292295" lon="12.149573005735874">
        <ele>21.0</ele>
        <time>2018-11-25T16:19:45.427Z</time>
      </trkpt>
      <trkpt lat="55.4642169456929" lon="12.149685574695468">
        <ele>22.0</ele>
        <time>2018-11-25T16:19:52.403Z</time>
      </trkpt>
      <trkpt lat="55.46423161402345" lon="12.149688927456737">
        <ele>22.0</ele>
        <time>2018-11-25T16:19:59.380Z</time>
      </trkpt>
      <trkpt lat="55.46417394652963" lon="12.150065023452044">
        <ele>21.0</ele>
        <time>2018-11-25T16:20:06.364Z</time>
      </trkpt>
      <trkpt lat="55.46420286409557" lon="12.150298459455371">
        <ele>21.0</ele>
        <time>2018-11-25T16:20:13.352Z</time>
      </trkpt>
      <trkpt lat="55.46424007974565" lon="12.150322264060378">
        <ele>21.0</ele>
        <time>2018-11-25T16:20:20.342Z</time>
      </trkpt>
      <trkpt lat="55.464291628450155" lon="12.150394599884748">
        <ele>21.0</ele>
        <time>2018-11-25T16:20:27.334Z</time>
      </trkpt>
      <trkpt lat="55.46434937976301" lon="12.150431061163545">
        <ele>21.0</ele>
        <time>2018-11-25T16:20:34.328Z</time>
      </trkpt>
      <trkpt lat="55.46437150798738" lon="12.150479592382908">
        <ele>21.0</ele>
        <time>2018-11-25T16:20:41.323Z</time>
      </trkpt>
      <trkpt lat="55.464403443038464" lon="12.150503899902105">
        <ele>21.0</ele>
        <time>2018-11-25T16:20:48.319Z</time>
      </trkpt>
      <trkpt lat="55.46440176665783" lon="12.150546479970217">
        <ele>20.0</ele>
        <time>2018-11-25T16:20:55.316Z</time>
      </trkpt>
      <trkpt lat="55.46445423737168" lon="12.15055838227272">
        <ele>21.0</ele>
        <time>2018-11-25T16:21:02.315Z</time>
      </trkpt>
      <trkpt lat="55.46447494067252" lon="12.150588724762201">
        <ele>21.0</ele>
        <time>2018-11-25T16:21:09.315Z</time>
      </trkpt>
      <trkpt lat="55.46445909887552" lon="12.150681931525469">
        <ele>20.0</ele>
        <time>2018-11-25T16:21:16.316Z</time>
      </trkpt>
      <trkpt lat="55.46447468921542" lon="12.150706825777888">
        <ele>20.0</ele>
        <time>2018-11-25T16:21:23.318Z</time>
      </trkpt>
      <trkpt lat="55.464477287605405" lon="12.150781257078052">
        <ele>20.0</ele>
        <time>2018-11-25T16:21:30.322Z</time>
      </trkpt>
      <trkpt lat="55.464399671182036" lon="12.151218373328447">
        <ele>18.0</ele>
        <time>2018-11-25T16:21:37.334Z</time>
      </trkpt>
      <trkpt lat="55.46440277248621" lon="12.15123019181192">
        <ele>18.0</ele>
        <time>2018-11-25T16:21:44.346Z</time>
      </trkpt>
      <trkpt lat="55.46443437226117" lon="12.15120973996818">
        <ele>18.0</ele>
        <time>2018-11-25T16:21:51.360Z</time>
      </trkpt>
      <trkpt lat="55.46447510831058" lon="12.151435380801558">
        <ele>17.0</ele>
        <time>2018-11-25T16:21:58.378Z</time>
      </trkpt>
      <trkpt lat="55.464489525184035" lon="12.151467567309737">
        <ele>17.0</ele>
        <time>2018-11-25T16:22:05.397Z</time>
      </trkpt>
      <trkpt lat="55.464515341445804" lon="12.151480559259653">
        <ele>17.0</ele>
        <time>2018-11-25T16:22:12.417Z</time>
      </trkpt>
      <trkpt lat="55.46453948132694" lon="12.1515610255301">
        <ele>17.0</ele>
        <time>2018-11-25T16:22:19.438Z</time>
      </trkpt>
      <trkpt lat="55.464588180184364" lon="12.15163285844028">
        <ele>16.0</ele>
        <time>2018-11-25T16:22:26.461Z</time>
      </trkpt>
      <trkpt lat="55.46462740749121" lon="12.151732938364148">
        <ele>16.0</ele>
        <time>2018-11-25T16:22:33.487Z</time>
      </trkpt>
      <trkpt lat="55.46469630673528" lon="12.151824636384845">
        <ele>15.0</ele>
        <time>2018-11-25T16:22:40.516Z</time>
      </trkpt>
      <trkpt lat="55.464958576485515" lon="12.152015408501029">
        <ele>13.0</ele>
        <time>2018-11-25T16:22:47.554Z</time>
      </trkpt>
      <trkpt lat="55.46515588648617" lon="12.15212931856513">
        <ele>12.0</ele>
        <time>2018-11-25T16:22:54.599Z</time>
      </trkpt>
      <trkpt lat="55.46536593697965" lon="12.152220262214541">
        <ele>10.0</ele>
        <time>2018-11-25T16:23:01.651Z</time>
      </trkpt>
      <trkpt lat="55.46550038270652" lon="12.152340710163116">
        <ele>9.0</ele>
        <time>2018-11-25T16:23:08.708Z</time>
      </trkpt>
      <trkpt lat="55.465715713799" lon="12.152425535023212">
        <ele>10.0</ele>
        <time>2018-11-25T16:23:15.772Z</time>
      </trkpt>
      <trkpt lat="55.46590925194323" lon="12.152569452300668">
        <ele>12.0</ele>
        <time>2018-11-25T16:23:22.843Z</time>
      </trkpt>
      <trkpt lat="55.466099521145225" lon="12.152881259098649">
        <ele>14.0</ele>
        <time>2018-11-25T16:23:29.923Z</time>
      </trkpt>
      <trkpt lat="55.46620630659163" lon="12.153000868856907">
        <ele>16.0</ele>
        <time>2018-11-25T16:23:37.007Z</time>
      </trkpt>
      <trkpt lat="55.46631535515189" lon="12.153172614052892">
        <ele>17.0</ele>
        <time>2018-11-25T16:23:44.096Z</time>
      </trkpt>
      <trkpt lat="55.46632734127343" lon="12.153232712298632">
        <ele>17.0</ele>
        <time>2018-11-25T16:23:51.186Z</time>
      </trkpt>
      <trkpt lat="55.4663613718003" lon="12.153229610994458">
        <ele>17.0</ele>
        <time>2018-11-25T16:23:58.277Z</time>
      </trkpt>
      <trkpt lat="55.46638358384371" lon="12.153160879388452">
        <ele>17.0</ele>
        <time>2018-11-25T16:24:05.370Z</time>
      </trkpt>
      <trkpt lat="55.46643882058561" lon="12.153083849698305">
        <ele>17.0</ele>
        <time>2018-11-25T16:24:12.465Z</time>
      </trkpt>
      <trkpt lat="55.46649841591716" lon="12.152837086468935">
        <ele>17.0</ele>
        <time>2018-11-25T16:24:19.565Z</time>
      </trkpt>
      <trkpt lat="55.46649330295622" lon="12.152713621035218">
        <ele>16.0</ele>
        <time>2018-11-25T16:24:26.668Z</time>
      </trkpt>
      <trkpt lat="55.46643597073853" lon="12.152540367096663">
        <ele>15.0</ele>
        <time>2018-11-25T16:24:33.774Z</time>
      </trkpt>
      <trkpt lat="55.466418117284775" lon="12.15250306762755">
        <ele>15.0</ele>
        <time>2018-11-25T16:24:40.881Z</time>
      </trkpt>
      <trkpt lat="55.46634955331683" lon="12.15243911370635">
        <ele>15.0</ele>
        <time>2018-11-25T16:24:47.991Z</time>
      </trkpt>
      <trkpt lat="55.46606037765741" lon="12.152284635230899">
        <ele>13.0</ele>
        <time>2018-11-25T16:24:55.111Z</time>
      </trkpt>
      <trkpt lat="55.46583071351051" lon="12.152107944712043">
        <ele>11.0</ele>
        <time>2018-11-25T16:25:02.239Z</time>
      </trkpt>
      <trkpt lat="55.46570532023907" lon="12.151963775977492">
        <ele>10.0</ele>
        <time>2018-11-25T16:25:09.372Z</time>
      </trkpt>
      <trkpt lat="55.465625105425715" lon="12.15195044875145">
        <ele>9.0</ele>
        <time>2018-11-25T16:25:16.508Z</time>
      </trkpt>
      <trkpt lat="55.46558327972889" lon="12.151993783190846">
        <ele>9.0</ele>
        <time>2018-11-25T16:25:23.645Z</time>
      </trkpt>
      <trkpt lat="55.46559417620301" lon="12.15191532857716">
        <ele>9.0</ele>
        <time>2018-11-25T16:25:30.784Z</time>
      </trkpt>
      <trkpt lat="55.46558973379433" lon="12.15207994915545">
        <ele>9.0</ele>
        <time>2018-11-25T16:25:37.926Z</time>
      </trkpt>
      <trkpt lat="55.465534664690495" lon="12.152129737660289">
        <ele>9.0</ele>
        <time>2018-11-25T16:25:45.070Z</time>
      </trkpt>
      <trkpt lat="55.46550650149584" lon="12.152190087363124">
        <ele>9.0</ele>
        <time>2018-11-25T16:25:52.215Z</time>
      </trkpt>
      <trkpt lat="55.46550205908716" lon="12.152238031849265">
        <ele>9.0</ele>
        <time>2018-11-25T16:25:59.361Z</time>
      </trkpt>
      <trkpt lat="55.465525360777974" lon="12.152283377945423">
        <ele>9.0</ele>
        <time>2018-11-25T16:26:06.509Z</time>
      </trkpt>
      <trkpt lat="55.46553449705243" lon="12.152355881407857">
        <ele>9.0</ele>
        <time>2018-11-25T16:26:13.658Z</time>
      </trkpt>
      <trkpt lat="55.46556919813156" lon="12.152408435940742">
        <ele>9.0</ele>
        <time>2018-11-25T16:26:20.808Z</time>
      </trkpt>
      <trkpt lat="55.46570582315326" lon="12.152499379590154">
        <ele>10.0</ele>
        <time>2018-11-25T16:26:27.963Z</time>
      </trkpt>
      <trkpt lat="55.46576709486544" lon="12.152568446472287">
        <ele>11.0</ele>
        <time>2018-11-25T16:26:35.121Z</time>
      </trkpt>
      <trkpt lat="55.46590883284807" lon="12.15258613228798">
        <ele>12.0</ele>
        <time>2018-11-25T16:26:42.283Z</time>
      </trkpt>
      <trkpt lat="55.466007152572274" lon="12.152665676549077">
        <ele>13.0</ele>
        <time>2018-11-25T16:26:49.449Z</time>
      </trkpt>
      <trkpt lat="55.466101951897144" lon="12.152775228023529">
        <ele>14.0</ele>
        <time>2018-11-25T16:26:56.619Z</time>
      </trkpt>
      <trkpt lat="55.46622382476926" lon="12.15301419608295">
        <ele>16.0</ele>
        <time>2018-11-25T16:27:03.795Z</time>
      </trkpt>
      <trkpt lat="55.46628124080598" lon="12.15307530015707">
        <ele>16.0</ele>
        <time>2018-11-25T16:27:10.973Z</time>
      </trkpt>
      <trkpt lat="55.466350223869085" lon="12.153204549103975">
        <ele>17.0</ele>
        <time>2018-11-25T16:27:18.154Z</time>
      </trkpt>
      <trkpt lat="55.46638861298561" lon="12.153237825259566">
        <ele>18.0</ele>
        <time>2018-11-25T16:27:25.337Z</time>
      </trkpt>
      <trkpt lat="55.466418704018" lon="12.15316565707326">
        <ele>17.0</ele>
        <time>2018-11-25T16:27:32.521Z</time>
      </trkpt>
      <trkpt lat="55.4664702527225" lon="12.153110252693295">
        <ele>17.0</ele>
        <time>2018-11-25T16:27:39.707Z</time>
      </trkpt>
      <trkpt lat="55.46649757772684" lon="12.15278989635408">
        <ele>16.0</ele>
        <time>2018-11-25T16:27:46.900Z</time>
      </trkpt>
      <trkpt lat="55.46644636429846" lon="12.152618234977126">
        <ele>16.0</ele>
        <time>2018-11-25T16:27:54.096Z</time>
      </trkpt>
      <trkpt lat="55.46640864573419" lon="12.152550760656595">
        <ele>15.0</ele>
        <time>2018-11-25T16:28:01.294Z</time>
      </trkpt>
      <trkpt lat="55.46627269126475" lon="12.152467528358102">
        <ele>14.0</ele>
        <time>2018-11-25T16:28:08.497Z</time>
      </trkpt>
      <trkpt lat="55.46610019169748" lon="12.152390079572797">
        <ele>13.0</ele>
        <time>2018-11-25T16:28:15.706Z</time>
      </trkpt>
      <trkpt lat="55.46596490778029" lon="12.152288826182485">
        <ele>12.0</ele>
        <time>2018-11-25T16:28:22.920Z</time>
      </trkpt>
      <trkpt lat="55.46578159555793" lon="12.15206285007298">
        <ele>11.0</ele>
        <time>2018-11-25T16:28:30.141Z</time>
      </trkpt>
      <trkpt lat="55.46562334522605" lon="12.151922788470984">
        <ele>9.0</ele>
        <time>2018-11-25T16:28:37.368Z</time>
      </trkpt>
      <trkpt lat="55.46557925641537" lon="12.151827234774828">
        <ele>9.0</ele>
        <time>2018-11-25T16:28:44.597Z</time>
      </trkpt>
      <trkpt lat="55.46562334522605" lon="12.151762694120407">
        <ele>9.0</ele>
        <time>2018-11-25T16:28:51.828Z</time>
      </trkpt>
      <trkpt lat="55.46569190919399" lon="12.151705110445619">
        <ele>10.0</ele>
        <time>2018-11-25T16:28:59.062Z</time>
      </trkpt>
      <trkpt lat="55.46570297330618" lon="12.151599833741784">
        <ele>9.0</ele>
        <time>2018-11-25T16:29:06.298Z</time>
      </trkpt>
      <trkpt lat="55.46567573212087" lon="12.15108904056251">
        <ele>11.0</ele>
        <time>2018-11-25T16:29:13.543Z</time>
      </trkpt>
      <trkpt lat="55.465699369087815" lon="12.150683272629976">
        <ele>12.0</ele>
        <time>2018-11-25T16:29:20.796Z</time>
      </trkpt>
      <trkpt lat="55.46564421616495" lon="12.150384625419974">
        <ele>13.0</ele>
        <time>2018-11-25T16:29:28.055Z</time>
      </trkpt>
      <trkpt lat="55.465710097923875" lon="12.150148507207632">
        <ele>13.0</ele>
        <time>2018-11-25T16:29:35.319Z</time>
      </trkpt>
      <trkpt lat="55.46577732078731" lon="12.149782050400972">
        <ele>13.0</ele>
        <time>2018-11-25T16:29:42.590Z</time>
      </trkpt>
      <trkpt lat="55.465878657996655" lon="12.148844031617045">
        <ele>13.0</ele>
        <time>2018-11-25T16:29:49.879Z</time>
      </trkpt>
      <trkpt lat="55.465937247499824" lon="12.1487186383456">
        <ele>13.0</ele>
        <time>2018-11-25T16:29:57.171Z</time>
      </trkpt>
      <trkpt lat="55.466023245826364" lon="12.148412112146616">
        <ele>12.0</ele>
        <time>2018-11-25T16:30:04.469Z</time>
      </trkpt>
      <trkpt lat="55.46607621945441" lon="12.148282025009394">
        <ele>12.0</ele>
        <time>2018-11-25T16:30:11.770Z</time>
      </trkpt>
      <trkpt lat="55.46607923693955" lon="12.147678025066853">
        <ele>12.0</ele>
        <time>2018-11-25T16:30:19.083Z</time>
      </trkpt>
      <trkpt lat="55.466015953570604" lon="12.147215008735657">
        <ele>13.0</ele>
        <time>2018-11-25T16:30:26.405Z</time>
      </trkpt>
      <trkpt lat="55.46599726192653" lon="12.146816197782755">
        <ele>14.0</ele>
        <time>2018-11-25T16:30:33.734Z</time>
      </trkpt>
      <trkpt lat="55.46606037765741" lon="12.14630238711834">
        <ele>13.0</ele>
        <time>2018-11-25T16:30:41.073Z</time>
      </trkpt>
      <trkpt lat="55.46605476178229" lon="12.146180933341384">
        <ele>13.0</ele>
        <time>2018-11-25T16:30:48.414Z</time>
      </trkpt>
      <trkpt lat="55.465997848659754" lon="12.146073644980788">
        <ele>13.0</ele>
        <time>2018-11-25T16:30:55.758Z</time>
      </trkpt>
      <trkpt lat="55.46591671183705" lon="12.14601463638246">
        <ele>14.0</ele>
        <time>2018-11-25T16:31:03.105Z</time>
      </trkpt>
      <trkpt lat="55.46582065522671" lon="12.146023688837886">
        <ele>15.0</ele>
        <time>2018-11-25T16:31:10.455Z</time>
      </trkpt>
      <trkpt lat="55.46579928137362" lon="12.145985634997487">
        <ele>15.0</ele>
        <time>2018-11-25T16:31:17.806Z</time>
      </trkpt>
      <trkpt lat="55.46574840322137" lon="12.145778853446245">
        <ele>15.0</ele>
        <time>2018-11-25T16:31:25.162Z</time>
      </trkpt>
      <trkpt lat="55.465715462341905" lon="12.145734010264277">
        <ele>15.0</ele>
        <time>2018-11-25T16:31:32.519Z</time>
      </trkpt>
      <trkpt lat="55.465657878667116" lon="12.14549370110035">
        <ele>15.0</ele>
        <time>2018-11-25T16:31:39.881Z</time>
      </trkpt>
      <trkpt lat="55.465563582256436" lon="12.145282980054617">
        <ele>15.0</ele>
        <time>2018-11-25T16:31:47.248Z</time>
      </trkpt>
      <trkpt lat="55.46550700441003" lon="12.145210644230247">
        <ele>16.0</ele>
        <time>2018-11-25T16:31:54.617Z</time>
      </trkpt>
      <trkpt lat="55.46547884121537" lon="12.145208716392517">
        <ele>16.0</ele>
        <time>2018-11-25T16:32:01.987Z</time>
      </trkpt>
      <trkpt lat="55.46540508046746" lon="12.145152976736426">
        <ele>16.0</ele>
        <time>2018-11-25T16:32:09.360Z</time>
      </trkpt>
      <trkpt lat="55.46532025560737" lon="12.145134285092354">
        <ele>17.0</ele>
        <time>2018-11-25T16:32:16.736Z</time>
      </trkpt>
      <trkpt lat="55.465237610042095" lon="12.145093800500035">
        <ele>17.0</ele>
        <time>2018-11-25T16:32:24.115Z</time>
      </trkpt>
      <trkpt lat="55.46501364558935" lon="12.145057506859303">
        <ele>18.0</ele>
        <time>2018-11-25T16:32:31.501Z</time>
      </trkpt>
      <trkpt lat="55.4648747574538" lon="12.145014256238937">
        <ele>19.0</ele>
        <time>2018-11-25T16:32:38.892Z</time>
      </trkpt>
      <trkpt lat="55.46482991427183" lon="12.145027834922075">
        <ele>19.0</ele>
        <time>2018-11-25T16:32:46.284Z</time>
      </trkpt>
      <trkpt lat="55.46482547186315" lon="12.145164543762803">
        <ele>19.0</ele>
        <time>2018-11-25T16:32:53.679Z</time>
      </trkpt>
      <trkpt lat="55.46485036611557" lon="12.145151887089014">
        <ele>19.0</ele>
        <time>2018-11-25T16:33:01.075Z</time>
      </trkpt>
      <trkpt lat="55.464827651157975" lon="12.145180720835924">
        <ele>19.0</ele>
        <time>2018-11-25T16:33:08.472Z</time>
      </trkpt>
      <trkpt lat="55.464828154072165" lon="12.145218774676323">
        <ele>19.0</ele>
        <time>2018-11-25T16:33:15.869Z</time>
      </trkpt>
      <trkpt lat="55.46487031504512" lon="12.145353807136416">
        <ele>19.0</ele>
        <time>2018-11-25T16:33:23.269Z</time>
      </trkpt>
      <trkpt lat="55.46482840552926" lon="12.145627308636904">
        <ele>20.0</ele>
        <time>2018-11-25T16:33:30.674Z</time>
      </trkpt>
      <trkpt lat="55.464923372492194" lon="12.145574754104018">
        <ele>19.0</ele>
        <time>2018-11-25T16:33:38.083Z</time>
      </trkpt>
      <trkpt lat="55.464943489059806" lon="12.145577939227223">
        <ele>19.0</ele>
        <time>2018-11-25T16:33:45.492Z</time>
      </trkpt>
      <trkpt lat="55.46495388261974" lon="12.14577374048531">
        <ele>19.0</ele>
        <time>2018-11-25T16:33:52.905Z</time>
      </trkpt>
      <trkpt lat="55.46491088345647" lon="12.14593986980617">
        <ele>20.0</ele>
        <time>2018-11-25T16:34:00.322Z</time>
      </trkpt>
      <trkpt lat="55.464644338935614" lon="12.146718380972743">
        <ele>22.0</ele>
        <time>2018-11-25T16:34:07.756Z</time>
      </trkpt>
      <trkpt lat="55.46443487517536" lon="12.147498819977045">
        <ele>21.0</ele>
        <time>2018-11-25T16:34:15.206Z</time>
      </trkpt>
      <trkpt lat="55.46435088850558" lon="12.14798036031425">
        <ele>21.0</ele>
        <time>2018-11-25T16:34:22.665Z</time>
      </trkpt>
      <trkpt lat="55.464437725022435" lon="12.148173730820417">
        <ele>21.0</ele>
        <time>2018-11-25T16:34:30.129Z</time>
      </trkpt>
      <trkpt lat="55.46445406973362" lon="12.1482886467129">
        <ele>22.0</ele>
        <time>2018-11-25T16:34:37.595Z</time>
      </trkpt>
      <trkpt lat="55.46440176665783" lon="12.148740096017718">
        <ele>21.0</ele>
        <time>2018-11-25T16:34:45.070Z</time>
      </trkpt>
      <trkpt lat="55.46440662816167" lon="12.149099176749587">
        <ele>22.0</ele>
        <time>2018-11-25T16:34:52.552Z</time>
      </trkpt>
      <trkpt lat="55.46438626013696" lon="12.149467561393976">
        <ele>22.0</ele>
        <time>2018-11-25T16:35:00.041Z</time>
      </trkpt>
      <trkpt lat="55.46429221518338" lon="12.15000769123435">
        <ele>22.0</ele>
        <time>2018-11-25T16:35:07.540Z</time>
      </trkpt>
      <trkpt lat="55.46432666480541" lon="12.150088241323829">
        <ele>22.0</ele>
        <time>2018-11-25T16:35:15.041Z</time>
      </trkpt>
      <trkpt lat="55.46435206197202" lon="12.150103747844696">
        <ele>22.0</ele>
        <time>2018-11-25T16:35:22.543Z</time>
      </trkpt>
      <trkpt lat="55.464367903769016" lon="12.150215730071068">
        <ele>21.0</ele>
        <time>2018-11-25T16:35:30.047Z</time>
      </trkpt>
      <trkpt lat="55.46431233175099" lon="12.150462158024311">
        <ele>20.0</ele>
        <time>2018-11-25T16:35:37.556Z</time>
      </trkpt>
      <trkpt lat="55.46433622017503" lon="12.150491327047348">
        <ele>20.0</ele>
        <time>2018-11-25T16:35:45.066Z</time>
      </trkpt>
      <trkpt lat="55.46439246274531" lon="12.150485208258033">
        <ele>21.0</ele>
        <time>2018-11-25T16:35:52.578Z</time>
      </trkpt>
      <trkpt lat="55.464444011449814" lon="12.15041907504201">
        <ele>21.0</ele>
        <time>2018-11-25T16:36:00.092Z</time>
      </trkpt>
      <trkpt lat="55.46453143469989" lon="12.150356965139508">
        <ele>22.0</ele>
        <time>2018-11-25T16:36:07.609Z</time>
      </trkpt>
      <trkpt lat="55.464647775515914" lon="12.150195445865393">
        <ele>23.0</ele>
        <time>2018-11-25T16:36:15.131Z</time>
      </trkpt>
      <trkpt lat="55.465132081881166" lon="12.150135599076748">
        <ele>18.0</ele>
        <time>2018-11-25T16:36:22.669Z</time>
      </trkpt>
      <trkpt lat="55.46531413681805" lon="12.150158565491438">
        <ele>16.0</ele>
        <time>2018-11-25T16:36:30.213Z</time>
      </trkpt>
      <trkpt lat="55.465424694120884" lon="12.150242300704122">
        <ele>14.0</ele>
        <time>2018-11-25T16:36:37.761Z</time>
      </trkpt>
      <trkpt lat="55.46554807573557" lon="12.15028228238225">
        <ele>13.0</ele>
        <time>2018-11-25T16:36:45.313Z</time>
      </trkpt>
      <trkpt lat="55.465602139011025" lon="12.150363167747855">
        <ele>13.0</ele>
        <time>2018-11-25T16:36:52.868Z</time>
      </trkpt>
      <trkpt lat="55.46576516702771" lon="12.150394432246685">
        <ele>13.0</ele>
        <time>2018-11-25T16:37:00.428Z</time>
      </trkpt>
      <trkpt lat="55.46585217118263" lon="12.150359731167555">
        <ele>13.0</ele>
        <time>2018-11-25T16:37:07.991Z</time>
      </trkpt>
      <trkpt lat="55.46597077511251" lon="12.150283958762884">
        <ele>12.0</ele>
        <time>2018-11-25T16:37:15.558Z</time>
      </trkpt>
      <trkpt lat="55.466060880571604" lon="12.150159068405628">
        <ele>11.0</ele>
        <time>2018-11-25T16:37:23.129Z</time>
      </trkpt>
      <trkpt lat="55.466162636876106" lon="12.150063514709473">
        <ele>11.0</ele>
        <time>2018-11-25T16:37:30.704Z</time>
      </trkpt>
      <trkpt lat="55.4662371519953" lon="12.150042559951544">
        <ele>10.0</ele>
        <time>2018-11-25T16:37:38.282Z</time>
      </trkpt>
      <trkpt lat="55.46631770208478" lon="12.150092851370573">
        <ele>10.0</ele>
        <time>2018-11-25T16:37:45.862Z</time>
      </trkpt>
      <trkpt lat="55.46637847088277" lon="12.150094946846366">
        <ele>10.0</ele>
        <time>2018-11-25T16:37:53.444Z</time>
      </trkpt>
      <trkpt lat="55.466579888015985" lon="12.150222100317478">
        <ele>10.0</ele>
        <time>2018-11-25T16:38:01.033Z</time>
      </trkpt>
      <trkpt lat="55.466693714261055" lon="12.150430055335164">
        <ele>11.0</ele>
        <time>2018-11-25T16:38:08.628Z</time>
      </trkpt>
      <trkpt lat="55.466736294329166" lon="12.150467270985246">
        <ele>11.0</ele>
        <time>2018-11-25T16:38:16.224Z</time>
      </trkpt>
      <trkpt lat="55.466807037591934" lon="12.150595430284739">
        <ele>11.0</ele>
        <time>2018-11-25T16:38:23.824Z</time>
      </trkpt>
      <trkpt lat="55.46685221605003" lon="12.150630885735154">
        <ele>12.0</ele>
        <time>2018-11-25T16:38:31.425Z</time>
      </trkpt>
      <trkpt lat="55.46688322909176" lon="12.150760553777218">
        <ele>12.0</ele>
        <time>2018-11-25T16:38:39.029Z</time>
      </trkpt>
      <trkpt lat="55.466865291818976" lon="12.150873122736812">
        <ele>12.0</ele>
        <time>2018-11-25T16:38:46.635Z</time>
      </trkpt>
      <trkpt lat="55.46688222326338" lon="12.150897597894073">
        <ele>12.0</ele>
        <time>2018-11-25T16:38:54.242Z</time>
      </trkpt>
      <trkpt lat="55.466880798339844" lon="12.151000443845987">
        <ele>13.0</ele>
        <time>2018-11-25T16:39:01.851Z</time>
      </trkpt>
      <trkpt lat="55.4668952152133" lon="12.151028271764517">
        <ele>13.0</ele>
        <time>2018-11-25T16:39:09.461Z</time>
      </trkpt>
      <trkpt lat="55.46682237647474" lon="12.151368241757154">
        <ele>14.0</ele>
        <time>2018-11-25T16:39:17.078Z</time>
      </trkpt>
      <trkpt lat="55.46682036481798" lon="12.151516936719418">
        <ele>14.0</ele>
        <time>2018-11-25T16:39:24.697Z</time>
      </trkpt>
      <trkpt lat="55.46682866290212" lon="12.151563037186861">
        <ele>14.0</ele>
        <time>2018-11-25T16:39:32.317Z</time>
      </trkpt>
      <trkpt lat="55.46685975976288" lon="12.151592541486025">
        <ele>15.0</ele>
        <time>2018-11-25T16:39:39.938Z</time>
      </trkpt>
      <trkpt lat="55.46686286106706" lon="12.151666218414903">
        <ele>15.0</ele>
        <time>2018-11-25T16:39:47.561Z</time>
      </trkpt>
      <trkpt lat="55.466886246576905" lon="12.151730172336102">
        <ele>15.0</ele>
        <time>2018-11-25T16:39:55.185Z</time>
      </trkpt>
      <trkpt lat="55.466856407001615" lon="12.151978025212884">
        <ele>16.0</ele>
        <time>2018-11-25T16:40:02.814Z</time>
      </trkpt>
      <trkpt lat="55.466907704249024" lon="12.15214398689568">
        <ele>16.0</ele>
        <time>2018-11-25T16:40:10.447Z</time>
      </trkpt>
      <trkpt lat="55.46692153438926" lon="12.152329478412867">
        <ele>17.0</ele>
        <time>2018-11-25T16:40:18.083Z</time>
      </trkpt>
      <trkpt lat="55.4668605979532" lon="12.152568278834224">
        <ele>17.0</ele>
        <time>2018-11-25T16:40:25.724Z</time>
      </trkpt>
      <trkpt lat="55.46685992740095" lon="12.152493176981807">
        <ele>17.0</ele>
        <time>2018-11-25T16:40:33.366Z</time>
      </trkpt>
      <trkpt lat="55.46679446473718" lon="12.152630807831883">
        <ele>17.0</ele>
        <time>2018-11-25T16:40:41.012Z</time>
      </trkpt>
      <trkpt lat="55.46677250415087" lon="12.152614211663604">
        <ele>17.0</ele>
        <time>2018-11-25T16:40:48.659Z</time>
      </trkpt>
      <trkpt lat="55.46673730015755" lon="12.152645476162434">
        <ele>17.0</ele>
        <time>2018-11-25T16:40:56.307Z</time>
      </trkpt>
      <trkpt lat="55.466703940182924" lon="12.152647152543068">
        <ele>17.0</ele>
        <time>2018-11-25T16:41:03.956Z</time>
      </trkpt>
      <trkpt lat="55.46666789799929" lon="12.152612870559096">
        <ele>17.0</ele>
        <time>2018-11-25T16:41:11.606Z</time>
      </trkpt>
      <trkpt lat="55.46661324799061" lon="12.152652433142066">
        <ele>16.0</ele>
        <time>2018-11-25T16:41:19.258Z</time>
      </trkpt>
      <trkpt lat="55.466520208865404" lon="12.152660647407174">
        <ele>16.0</ele>
        <time>2018-11-25T16:41:26.913Z</time>
      </trkpt>
      <trkpt lat="55.46651844866574" lon="12.152522346004844">
        <ele>16.0</ele>
        <time>2018-11-25T16:41:34.571Z</time>
      </trkpt>
      <trkpt lat="55.466493386775255" lon="12.152475910261273">
        <ele>15.0</ele>
        <time>2018-11-25T16:41:42.230Z</time>
      </trkpt>
      <trkpt lat="55.46649162657559" lon="12.152432994917035">
        <ele>15.0</ele>
        <time>2018-11-25T16:41:49.890Z</time>
      </trkpt>
      <trkpt lat="55.46646279282868" lon="12.152415812015533">
        <ele>15.0</ele>
        <time>2018-11-25T16:41:57.551Z</time>
      </trkpt>
      <trkpt lat="55.46617898158729" lon="12.152433581650257">
        <ele>13.0</ele>
        <time>2018-11-25T16:42:05.221Z</time>
      </trkpt>
      <trkpt lat="55.466125002130866" lon="12.152407597750425">
        <ele>13.0</ele>
        <time>2018-11-25T16:42:12.893Z</time>
      </trkpt>
      <trkpt lat="55.465944707393646" lon="12.15246886946261">
        <ele>12.0</ele>
        <time>2018-11-25T16:42:20.571Z</time>
      </trkpt>
      <trkpt lat="55.46583842486143" lon="12.152456548064947">
        <ele>11.0</ele>
        <time>2018-11-25T16:42:28.253Z</time>
      </trkpt>
      <trkpt lat="55.465697860345244" lon="12.152515640482306">
        <ele>10.0</ele>
        <time>2018-11-25T16:42:35.940Z</time>
      </trkpt>
      <trkpt lat="55.46560482122004" lon="12.1525919996202">
        <ele>10.0</ele>
        <time>2018-11-25T16:42:43.630Z</time>
      </trkpt>
      <trkpt lat="55.465557714924216" lon="12.152608009055257">
        <ele>9.0</ele>
        <time>2018-11-25T16:42:51.322Z</time>
      </trkpt>
      <trkpt lat="55.465244902297854" lon="12.152498625218868">
        <ele>10.0</ele>
        <time>2018-11-25T16:42:59.024Z</time>
      </trkpt>
      <trkpt lat="55.46515705995262" lon="12.152432072907686">
        <ele>10.0</ele>
        <time>2018-11-25T16:43:06.729Z</time>
      </trkpt>
      <trkpt lat="55.46493745408952" lon="12.152331909164786">
        <ele>12.0</ele>
        <time>2018-11-25T16:43:14.442Z</time>
      </trkpt>
      <trkpt lat="55.46478549018502" lon="12.152161421254277">
        <ele>13.0</ele>
        <time>2018-11-25T16:43:22.161Z</time>
      </trkpt>
      <trkpt lat="55.46476864255965" lon="12.152109453454614">
        <ele>14.0</ele>
        <time>2018-11-25T16:43:29.881Z</time>
      </trkpt>
      <trkpt lat="55.464593628421426" lon="12.151926644146442">
        <ele>15.0</ele>
        <time>2018-11-25T16:43:37.608Z</time>
      </trkpt>
      <trkpt lat="55.464585246518254" lon="12.151876939460635">
        <ele>15.0</ele>
        <time>2018-11-25T16:43:45.336Z</time>
      </trkpt>
      <trkpt lat="55.46453948132694" lon="12.151821115985513">
        <ele>15.0</ele>
        <time>2018-11-25T16:43:53.066Z</time>
      </trkpt>
      <trkpt lat="55.46451567672193" lon="12.151716342195868">
        <ele>16.0</ele>
        <time>2018-11-25T16:44:00.798Z</time>
      </trkpt>
      <trkpt lat="55.46441660262644" lon="12.151621291413903">
        <ele>16.0</ele>
        <time>2018-11-25T16:44:08.533Z</time>
      </trkpt>
      <trkpt lat="55.464338567107916" lon="12.15157418511808">
        <ele>17.0</ele>
        <time>2018-11-25T16:44:16.271Z</time>
      </trkpt>
      <trkpt lat="55.464205630123615" lon="12.151536298915744">
        <ele>17.0</ele>
        <time>2018-11-25T16:44:24.014Z</time>
      </trkpt>
      <trkpt lat="55.4641149379313" lon="12.151487097144127">
        <ele>17.0</ele>
        <time>2018-11-25T16:44:31.760Z</time>
      </trkpt>
      <trkpt lat="55.46395920217037" lon="12.15152196586132">
        <ele>17.0</ele>
        <time>2018-11-25T16:44:39.511Z</time>
      </trkpt>
      <trkpt lat="55.46387982554734" lon="12.151499083265662">
        <ele>17.0</ele>
        <time>2018-11-25T16:44:47.265Z</time>
      </trkpt>
      <trkpt lat="55.46372702345252" lon="12.1514159347862">
        <ele>15.0</ele>
        <time>2018-11-25T16:44:55.024Z</time>
      </trkpt>
      <trkpt lat="55.46369089744985" lon="12.151444349437952">
        <ele>15.0</ele>
        <time>2018-11-25T16:45:02.784Z</time>
      </trkpt>
      <trkpt lat="55.46358277089894" lon="12.151444936171174">
        <ele>13.0</ele>
        <time>2018-11-25T16:45:10.548Z</time>
      </trkpt>
      <trkpt lat="55.46331765130162" lon="12.15134753845632">
        <ele>9.0</ele>
        <time>2018-11-25T16:45:18.321Z</time>
      </trkpt>
      <trkpt lat="55.463193682953715" lon="12.151284338906407">
        <ele>8.0</ele>
        <time>2018-11-25T16:45:26.098Z</time>
      </trkpt>
      <trkpt lat="55.46309234574437" lon="12.151195742189884">
        <ele>6.0</ele>
        <time>2018-11-25T16:45:33.879Z</time>
      </trkpt>
      <trkpt lat="55.46287483535707" lon="12.150899693369865">
        <ele>5.0</ele>
        <time>2018-11-25T16:45:41.669Z</time>
      </trkpt>
      <trkpt lat="55.46279512345791" lon="12.150843366980553">
        <ele>6.0</ele>
        <time>2018-11-25T16:45:49.462Z</time>
      </trkpt>
      <trkpt lat="55.46276620589197" lon="12.150802379474044">
        <ele>6.0</ele>
        <time>2018-11-25T16:45:57.256Z</time>
      </trkpt>
      <trkpt lat="55.462613655254245" lon="12.15071378275752">
        <ele>6.0</ele>
        <time>2018-11-25T16:46:05.055Z</time>
      </trkpt>
      <trkpt lat="55.46240335330367" lon="12.15047875419259">
        <ele>8.0</ele>
        <time>2018-11-25T16:46:12.863Z</time>
      </trkpt>
      <trkpt lat="55.46218542382121" lon="12.150364508852363">
        <ele>8.0</ele>
        <time>2018-11-25T16:46:20.678Z</time>
      </trkpt>
      <trkpt lat="55.46208274550736" lon="12.150382697582245">
        <ele>8.0</ele>
        <time>2018-11-25T16:46:28.496Z</time>
      </trkpt>
      <trkpt lat="55.4620254971087" lon="12.150428714230657">
        <ele>8.0</ele>
        <time>2018-11-25T16:46:36.317Z</time>
      </trkpt>
      <trkpt lat="55.46189985238016" lon="12.150480346754193">
        <ele>7.0</ele>
        <time>2018-11-25T16:46:44.142Z</time>
      </trkpt>
      <trkpt lat="55.4618473816663" lon="12.150486717000604">
        <ele>7.0</ele>
        <time>2018-11-25T16:46:51.969Z</time>
      </trkpt>
      <trkpt lat="55.4618198890239" lon="12.150503480806947">
        <ele>7.0</ele>
        <time>2018-11-25T16:46:59.797Z</time>
      </trkpt>
      <trkpt lat="55.46175241470337" lon="12.150602219626307">
        <ele>6.0</ele>
        <time>2018-11-25T16:47:07.627Z</time>
      </trkpt>
      <trkpt lat="55.461695082485676" lon="12.150645721703768">
        <ele>6.0</ele>
        <time>2018-11-25T16:47:15.460Z</time>
      </trkpt>
      <trkpt lat="55.46167002059519" lon="12.150635747238994">
        <ele>6.0</ele>
        <time>2018-11-25T16:47:23.293Z</time>
      </trkpt>
      <trkpt lat="55.4615608882159" lon="12.150655528530478">
        <ele>5.0</ele>
        <time>2018-11-25T16:47:31.130Z</time>
      </trkpt>
      <trkpt lat="55.46151260845363" lon="12.150723757222295">
        <ele>5.0</ele>
        <time>2018-11-25T16:47:38.969Z</time>
      </trkpt>
      <trkpt lat="55.46137028373778" lon="12.151037491858006">
        <ele>3.0</ele>
        <time>2018-11-25T16:47:46.816Z</time>
      </trkpt>
      <trkpt lat="55.46133549883962" lon="12.151079652830958">
        <ele>3.0</ele>
        <time>2018-11-25T16:47:54.664Z</time>
      </trkpt>
      <trkpt lat="55.46124187298119" lon="12.151175374165177">
        <ele>2.0</ele>
        <time>2018-11-25T16:48:02.516Z</time>
      </trkpt>
      <trkpt lat="55.46094607561827" lon="12.151333456858993">
        <ele>1.0</ele>
        <time>2018-11-25T16:48:10.378Z</time>
      </trkpt>
      <trkpt lat="55.46077894046903" lon="12.151508638635278">
        <ele>1.0</ele>
        <time>2018-11-25T16:48:18.246Z</time>
      </trkpt>
      <trkpt lat="55.460750022903085" lon="12.151574352756143">
        <ele>1.0</ele>
        <time>2018-11-25T16:48:26.116Z</time>
      </trkpt>
      <trkpt lat="55.46071322634816" lon="12.1517579164356">
        <ele>1.0</ele>
        <time>2018-11-25T16:48:33.990Z</time>
      </trkpt>
      <trkpt lat="55.46068330295384" lon="12.152859717607498">
        <ele>0.0</ele>
        <time>2018-11-25T16:48:41.884Z</time>
      </trkpt>
      <trkpt lat="55.46071154996753" lon="12.15322433039546">
        <ele>0.0</ele>
        <time>2018-11-25T16:48:49.785Z</time>
      </trkpt>
      <trkpt lat="55.46071129851043" lon="12.153461119160056">
        <ele>0.0</ele>
        <time>2018-11-25T16:48:57.691Z</time>
      </trkpt>
      <trkpt lat="55.46067710034549" lon="12.154248263686895">
        <ele>0.0</ele>
        <time>2018-11-25T16:49:05.612Z</time>
      </trkpt>
      <trkpt lat="55.46063653193414" lon="12.154664676636457">
        <ele>1.0</ele>
        <time>2018-11-25T16:49:13.540Z</time>
      </trkpt>
      <trkpt lat="55.46062328852713" lon="12.155019901692867">
        <ele>1.0</ele>
        <time>2018-11-25T16:49:21.475Z</time>
      </trkpt>
      <trkpt lat="55.46063108369708" lon="12.155264653265476">
        <ele>1.0</ele>
        <time>2018-11-25T16:49:29.415Z</time>
      </trkpt>
      <trkpt lat="55.46056159771979" lon="12.15620149858296">
        <ele>1.0</ele>
        <time>2018-11-25T16:49:37.373Z</time>
      </trkpt>
      <trkpt lat="55.46058263629675" lon="12.157333893701434">
        <ele>1.0</ele>
        <time>2018-11-25T16:49:45.352Z</time>
      </trkpt>
      <trkpt lat="55.46062169596553" lon="12.158007379621267">
        <ele>1.0</ele>
        <time>2018-11-25T16:49:53.344Z</time>
      </trkpt>
      <trkpt lat="55.460750022903085" lon="12.159306658431888">
        <ele>0.0</ele>
        <time>2018-11-25T16:50:01.360Z</time>
      </trkpt>
      <trkpt lat="55.4609096981585" lon="12.160221543163061">
        <ele>1.0</ele>
        <time>2018-11-25T16:50:09.394Z</time>
      </trkpt>
      <trkpt lat="55.46089578419924" lon="12.160242162644863">
        <ele>1.0</ele>
        <time>2018-11-25T16:50:17.429Z</time>
      </trkpt>
      <trkpt lat="55.46086653135717" lon="12.160240821540356">
        <ele>1.0</ele>
        <time>2018-11-25T16:50:25.465Z</time>
      </trkpt>
      <trkpt lat="55.46042002737522" lon="12.159909065812826">
        <ele>1.0</ele>
        <time>2018-11-25T16:50:33.517Z</time>
      </trkpt>
      <trkpt lat="55.4603192768991" lon="12.15990437194705">
        <ele>1.0</ele>
        <time>2018-11-25T16:50:41.572Z</time>
      </trkpt>
      <trkpt lat="55.46028072014451" lon="12.159924823790789">
        <ele>1.0</ele>
        <time>2018-11-25T16:50:49.629Z</time>
      </trkpt>
      <trkpt lat="55.46009053476155" lon="12.160204527899623">
        <ele>1.0</ele>
        <time>2018-11-25T16:50:57.694Z</time>
      </trkpt>
      <trkpt lat="55.45995038934052" lon="12.160451877862215">
        <ele>1.0</ele>
        <time>2018-11-25T16:51:05.766Z</time>
      </trkpt>
      <trkpt lat="55.45976364053786" lon="12.16082889586687">
        <ele>1.0</ele>
        <time>2018-11-25T16:51:13.847Z</time>
      </trkpt>
      <trkpt lat="55.459675965830684" lon="12.161053698509932">
        <ele>1.0</ele>
        <time>2018-11-25T16:51:21.933Z</time>
      </trkpt>
      <trkpt lat="55.459604635834694" lon="12.161424849182367">
        <ele>1.0</ele>
        <time>2018-11-25T16:51:30.026Z</time>
      </trkpt>
      <trkpt lat="55.4595594573766" lon="12.162328334525228">
        <ele>2.0</ele>
        <time>2018-11-25T16:51:38.137Z</time>
      </trkpt>
      <trkpt lat="55.45947773382068" lon="12.163197034969926">
        <ele>1.0</ele>
        <time>2018-11-25T16:51:46.264Z</time>
      </trkpt>
      <trkpt lat="55.45945141464472" lon="12.163752084597945">
        <ele>1.0</ele>
        <time>2018-11-25T16:51:54.402Z</time>
      </trkpt>
      <trkpt lat="55.45937907882035" lon="12.164468569681048">
        <ele>2.0</ele>
        <time>2018-11-25T16:52:02.553Z</time>
      </trkpt>
      <trkpt lat="55.45924874022603" lon="12.16532276943326">
        <ele>2.0</ele>
        <time>2018-11-25T16:52:10.721Z</time>
      </trkpt>
      <trkpt lat="55.45924982987344" lon="12.165489988401532">
        <ele>2.0</ele>
        <time>2018-11-25T16:52:18.892Z</time>
      </trkpt>
      <trkpt lat="55.45926575548947" lon="12.165569197386503">
        <ele>2.0</ele>
        <time>2018-11-25T16:52:27.065Z</time>
      </trkpt>
      <trkpt lat="55.45932895503938" lon="12.165669277310371">
        <ele>2.0</ele>
        <time>2018-11-25T16:52:35.240Z</time>
      </trkpt>
      <trkpt lat="55.45968317426741" lon="12.165995417162776">
        <ele>2.0</ele>
        <time>2018-11-25T16:52:43.429Z</time>
      </trkpt>
      <trkpt lat="55.45996204018593" lon="12.166210999712348">
        <ele>3.0</ele>
        <time>2018-11-25T16:52:51.628Z</time>
      </trkpt>
      <trkpt lat="55.460065975785255" lon="12.166319210082293">
        <ele>4.0</ele>
        <time>2018-11-25T16:52:59.831Z</time>
      </trkpt>
      <trkpt lat="55.46012783423066" lon="12.166415099054575">
        <ele>5.0</ele>
        <time>2018-11-25T16:53:08.037Z</time>
      </trkpt>
      <trkpt lat="55.46019379980862" lon="12.166615258902311">
        <ele>5.0</ele>
        <time>2018-11-25T16:53:16.247Z</time>
      </trkpt>
      <trkpt lat="55.46024995855987" lon="12.166947601363063">
        <ele>5.0</ele>
        <time>2018-11-25T16:53:24.463Z</time>
      </trkpt>
      <trkpt lat="55.46027200296521" lon="12.167187994346023">
        <ele>4.0</ele>
        <time>2018-11-25T16:53:32.684Z</time>
      </trkpt>
      <trkpt lat="55.460310727357864" lon="12.167320093140006">
        <ele>4.0</ele>
        <time>2018-11-25T16:53:40.908Z</time>
      </trkpt>
      <trkpt lat="55.460358085110784" lon="12.16734180226922">
        <ele>4.0</ele>
        <time>2018-11-25T16:53:49.133Z</time>
      </trkpt>
      <trkpt lat="55.46067223884165" lon="12.167187994346023">
        <ele>4.0</ele>
        <time>2018-11-25T16:53:57.369Z</time>
      </trkpt>
      <trkpt lat="55.46089100651443" lon="12.167141810059547">
        <ele>3.0</ele>
        <time>2018-11-25T16:54:05.613Z</time>
      </trkpt>
      <trkpt lat="55.4609842132777" lon="12.167140636593103">
        <ele>3.0</ele>
        <time>2018-11-25T16:54:13.860Z</time>
      </trkpt>
      <trkpt lat="55.461160484701395" lon="12.167291091755033">
        <ele>2.0</ele>
        <time>2018-11-25T16:54:22.113Z</time>
      </trkpt>
      <trkpt lat="55.461293924599886" lon="12.167433584108949">
        <ele>1.0</ele>
        <time>2018-11-25T16:54:30.371Z</time>
      </trkpt>
      <trkpt lat="55.46139484271407" lon="12.167486054822803">
        <ele>1.0</ele>
        <time>2018-11-25T16:54:38.633Z</time>
      </trkpt>
      <trkpt lat="55.461543118581176" lon="12.167453281581402">
        <ele>1.0</ele>
        <time>2018-11-25T16:54:46.900Z</time>
      </trkpt>
      <trkpt lat="55.46191703528166" lon="12.16727340593934">
        <ele>2.0</ele>
        <time>2018-11-25T16:54:55.180Z</time>
      </trkpt>
      <trkpt lat="55.46215759590268" lon="12.167187575250864">
        <ele>3.0</ele>
        <time>2018-11-25T16:55:03.468Z</time>
      </trkpt>
      <trkpt lat="55.46231240965426" lon="12.167078191414475">
        <ele>3.0</ele>
        <time>2018-11-25T16:55:11.761Z</time>
      </trkpt>
      <trkpt lat="55.46237460337579" lon="12.1669611800462">
        <ele>3.0</ele>
        <time>2018-11-25T16:55:20.057Z</time>
      </trkpt>
      <trkpt lat="55.462428415194154" lon="12.166688600555062">
        <ele>4.0</ele>
        <time>2018-11-25T16:55:28.359Z</time>
      </trkpt>
      <trkpt lat="55.46253721229732" lon="12.166272522881627">
        <ele>4.0</ele>
        <time>2018-11-25T16:55:36.669Z</time>
      </trkpt>
      <trkpt lat="55.46258892863989" lon="12.16573415324092">
        <ele>4.0</ele>
        <time>2018-11-25T16:55:44.990Z</time>
      </trkpt>
      <trkpt lat="55.462618097662926" lon="12.165707163512707">
        <ele>4.0</ele>
        <time>2018-11-25T16:55:53.312Z</time>
      </trkpt>
      <trkpt lat="55.46274684369564" lon="12.16579089872539">
        <ele>4.0</ele>
        <time>2018-11-25T16:56:01.638Z</time>
      </trkpt>
      <trkpt lat="55.46281959861517" lon="12.165877064689994">
        <ele>4.0</ele>
        <time>2018-11-25T16:56:09.967Z</time>
      </trkpt>
      <trkpt lat="55.462841307744384" lon="12.165944036096334">
        <ele>3.0</ele>
        <time>2018-11-25T16:56:18.298Z</time>
      </trkpt>
      <trkpt lat="55.46300693415105" lon="12.16663671657443">
        <ele>2.0</ele>
        <time>2018-11-25T16:56:26.643Z</time>
      </trkpt>
      <trkpt lat="55.463288985192776" lon="12.167689818888903">
        <ele>2.0</ele>
        <time>2018-11-25T16:56:35.010Z</time>
      </trkpt>
      <trkpt lat="55.46342493966222" lon="12.168036326766014">
        <ele>1.0</ele>
        <time>2018-11-25T16:56:43.385Z</time>
      </trkpt>
      <trkpt lat="55.46372107230127" lon="12.168941404670477">
        <ele>1.0</ele>
        <time>2018-11-25T16:56:51.779Z</time>
      </trkpt>
      <trkpt lat="55.46374462544918" lon="12.169062942266464">
        <ele>1.0</ele>
        <time>2018-11-25T16:57:00.176Z</time>
      </trkpt>
      <trkpt lat="55.46374127268791" lon="12.169091608375311">
        <ele>1.0</ele>
        <time>2018-11-25T16:57:08.573Z</time>
      </trkpt>
      <trkpt lat="55.46371562406421" lon="12.169117508456111">
        <ele>0.0</ele>
        <time>2018-11-25T16:57:16.971Z</time>
      </trkpt>
      <trkpt lat="55.46341236680746" lon="12.169194789603353">
        <ele>0.0</ele>
        <time>2018-11-25T16:57:25.379Z</time>
      </trkpt>
      <trkpt lat="55.463303066790104" lon="12.169180288910866">
        <ele>0.0</ele>
        <time>2018-11-25T16:57:33.791Z</time>
      </trkpt>
      <trkpt lat="55.46300190500915" lon="12.169212475419044">
        <ele>0.0</ele>
        <time>2018-11-25T16:57:42.213Z</time>
      </trkpt>
      <trkpt lat="55.4628630168736" lon="12.169209541752934">
        <ele>1.0</ele>
        <time>2018-11-25T16:57:50.640Z</time>
      </trkpt>
      <trkpt lat="55.46240855008364" lon="12.169292522594333">
        <ele>1.0</ele>
        <time>2018-11-25T16:57:59.082Z</time>
      </trkpt>
      <trkpt lat="55.461973529309034" lon="12.169334264472127">
        <ele>0.0</ele>
        <time>2018-11-25T16:58:07.538Z</time>
      </trkpt>
      <trkpt lat="55.46165124513209" lon="12.169346082955599">
        <ele>0.0</ele>
        <time>2018-11-25T16:58:16.005Z</time>
      </trkpt>
      <trkpt lat="55.46143474057317" lon="12.169417832046747">
        <ele>1.0</ele>
        <time>2018-11-25T16:58:24.479Z</time>
      </trkpt>
      <trkpt lat="55.461262576282024" lon="12.169417077675462">
        <ele>1.0</ele>
        <time>2018-11-25T16:58:32.959Z</time>
      </trkpt>
      <trkpt lat="55.461236676201224" lon="12.169429399073124">
        <ele>1.0</ele>
        <time>2018-11-25T16:58:41.440Z</time>
      </trkpt>
      <trkpt lat="55.4612170625478" lon="12.169587900862098">
        <ele>1.0</ele>
        <time>2018-11-25T16:58:49.924Z</time>
      </trkpt>
      <trkpt lat="55.46124916523695" lon="12.169703738763928">
        <ele>1.0</ele>
        <time>2018-11-25T16:58:58.410Z</time>
      </trkpt>
      <trkpt lat="55.46126467175782" lon="12.16990515589714">
        <ele>2.0</ele>
        <time>2018-11-25T16:59:06.900Z</time>
      </trkpt>
      <trkpt lat="55.46133030205965" lon="12.170073380693793">
        <ele>1.0</ele>
        <time>2018-11-25T16:59:15.394Z</time>
      </trkpt>
      <trkpt lat="55.46132896095514" lon="12.170132473111153">
        <ele>1.0</ele>
        <time>2018-11-25T16:59:23.889Z</time>
      </trkpt>
      <trkpt lat="55.461165430024266" lon="12.170665981248021">
        <ele>2.0</ele>
        <time>2018-11-25T16:59:32.395Z</time>
      </trkpt>
      <trkpt lat="55.46101723797619" lon="12.171281548216939">
        <ele>2.0</ele>
        <time>2018-11-25T16:59:40.914Z</time>
      </trkpt>
      <trkpt lat="55.46103307977319" lon="12.171428566798568">
        <ele>2.0</ele>
        <time>2018-11-25T16:59:49.436Z</time>
      </trkpt>
      <trkpt lat="55.461021177470684" lon="12.171495957300067">
        <ele>2.0</ele>
        <time>2018-11-25T16:59:57.959Z</time>
      </trkpt>
      <trkpt lat="55.46103844419122" lon="12.171551445499063">
        <ele>2.0</ele>
        <time>2018-11-25T17:00:06.483Z</time>
      </trkpt>
      <trkpt lat="55.460968874394894" lon="12.171768369153142">
        <ele>2.0</ele>
        <time>2018-11-25T17:00:15.012Z</time>
      </trkpt>
      <trkpt lat="55.460987649858" lon="12.171853194013238">
        <ele>2.0</ele>
        <time>2018-11-25T17:00:23.543Z</time>
      </trkpt>
      <trkpt lat="55.46101547777653" lon="12.171874148771167">
        <ele>2.0</ele>
        <time>2018-11-25T17:00:32.075Z</time>
      </trkpt>
      <trkpt lat="55.461044646799564" lon="12.17193340882659">
        <ele>2.0</ele>
        <time>2018-11-25T17:00:40.608Z</time>
      </trkpt>
    </trkseg>
  </trk>
</gpx>
